[[{"header":{"parameterUnit":"m.s-1","parameterCategory":1,"la1":30.6,"la2":28.766,"lo1":-90.7593,"lo2":-88.6598,"dy":0.0162,"dx":0.0183,"nx":116,"ny":114,"refTime":"2023-07-16T12:00:00:Z","depth":0,"parameterNumber":2,"parameterNumberName":"U-component_of_WINDS"},"data":[0.0,0.0,0.0,0.0,0.0,0.0,0.0,0.0,0.0,0.0,0.0,0.0,0.0,0.0,0.0,0.0,0.0,0.0,0.0,0.0,0.0,0.0,0.0,0.0,0.0,0.0,0.0,0.0,0.0,0.0,0.0,0.0,0.0,0.0,0.0,0.0,0.0,0.0,0.0,0.0,0.0,0.0,0.0,0.0,0.0,0.0,0.0,0.0,0.0,0.0,0.0,0.0,0.0,0.0,0.0,0.0,0.0,0.0,0.0,0.0,0.0,0.0,0.0,0.0,0.0,0.0,0.0,0.0,0.0,0.0,0.0,0.0,0.0,0.0,0.0,0.0,0.0,0.0,0.0,0.0,0.0,0.0,0.0,0.0,0.0,0.0,0.0,0.0,0.0,0.0,0.0,0.0,0.0,0.0,0.0,0.0,0.0,0.0,0.0,0.0,0.0,0.0,0.0,0.0,0.0,0.0,0.0,0.0,0.0,0.0,0.0,0.0,0.0,0.0,0.0,0.0,0.0,0.0,0.0,0.0,0.0,0.0,0.0,0.0,0.0,0.0,0.0,0.0,0.0,0.0,0.0,0.0,0.0,0.0,0.0,0.0,0.0,0.0,0.0,0.0,0.0,0.0,0.0,0.0,0.0,0.0,0.0,0.0,0.0,0.0,0.0,0.0,0.0,0.0,0.0,0.0,0.0,0.0,0.0,0.0,0.0,0.0,0.0,0.0,0.0,0.0,0.0,0.0,0.0,0.0,0.0,0.0,0.0,0.0,0.0,0.0,0.0,0.0,0.0,0.0,0.0,0.0,0.0,0.0,0.0,0.0,0.0,0.0,0.0,0.0,0.0,0.0,0.0,0.0,0.0,0.0,0.0,0.0,0.0,0.0,0.0,0.0,0.0,0.0,0.0,0.0,0.0,0.0,0.0,0.0,0.0,0.0,0.0,0.0,0.0,0.0,0.0,0.0,0.0,0.0,0.0,0.0,0.0,0.0,0.0,0.0,0.0,0.0,0.0,0.0,0.0,0.0,0.0,0.0,0.0,0.0,0.0,0.0,0.0,0.0,0.0,0.0,0.0,0.0,0.0,0.0,0.0,0.0,0.0,0.0,0.0,0.0,0.0,0.0,0.0,0.0,0.0,0.0,0.0,0.0,0.0,0.0,0.0,0.0,0.0,0.0,0.0,0.0,0.0,0.0,0.0,0.0,0.0,0.0,0.0,0.0,0.0,0.0,0.0,0.0,0.0,0.0,0.0,0.0,0.0,0.0,0.0,0.0,0.0,0.0,0.0,0.0,0.0,0.0,0.0,0.0,0.0,0.0,0.0,0.0,0.0,0.0,0.0,0.0,0.0,0.0,0.0,0.0,0.0,0.0,0.0,0.0,0.0,0.0,0.0,0.0,0.0,0.0,0.0,0.0,0.0,0.0,0.0,0.0,0.0,0.0,0.0,0.0,0.0,0.0,0.0,0.0,0.0,0.0,0.0,0.0,0.0,0.0,0.0,0.0,0.0,0.0,0.0,0.0,0.0,0.0,0.0,0.0,0.0,0.0,0.0,0.0,0.0,0.0,0.0,0.0,0.0,0.0,0.0,0.0,0.0,0.0,0.0,0.0,0.0,0.0,0.0,0.0,0.0,0.0,0.0,0.0,0.0,0.0,0.0,0.0,0.0,0.0,0.0,0.0,0.0,0.0,0.0,0.0,0.0,0.0,0.0,0.0,0.0,0.0,0.0,0.0,0.0,0.0,0.0,0.0,0.0,0.0,0.0,0.0,0.0,0.0,0.0,0.0,0.0,0.0,0.0,0.0,0.0,0.0,0.0,0.0,0.0,0.0,0.0,0.0,0.0,0.0,0.0,0.0,0.0,0.0,0.0,0.0,0.0,0.0,0.0,0.0,0.0,0.0,0.0,0.0,0.0,0.0,0.0,0.0,0.0,0.0,0.0,0.0,0.0,0.0,0.0,0.0,0.0,0.0,0.0,0.0,0.0,0.0,0.0,0.0,0.0,0.0,0.0,0.0,0.0,0.0,0.0,0.0,0.0,0.0,0.0,0.0,0.0,0.0,0.0,0.0,0.0,0.0,0.0,0.0,0.0,0.0,0.0,0.0,0.0,0.0,0.0,0.0,0.0,0.0,0.0,0.0,0.0,0.0,0.0,0.0,0.0,0.0,0.0,0.0,0.0,0.0,0.0,0.0,0.0,0.0,0.0,0.0,0.0,0.0,0.0,0.0,0.0,0.0,0.0,0.0,0.0,0.0,0.0,0.0,0.0,0.0,0.0,0.0,0.0,0.0,0.0,0.0,0.0,0.0,0.0,0.0,0.0,0.0,0.0,0.0,0.0,0.0,0.0,0.0,0.0,0.0,0.0,0.0,0.0,0.0,0.0,0.0,0.0,0.0,0.0,0.0,0.0,0.0,0.0,0.0,0.0,0.0,0.0,0.0,0.0,0.0,0.0,0.0,0.0,0.0,0.0,0.0,0.0,0.0,0.0,0.0,0.0,0.0,0.0,0.0,0.0,0.0,0.0,0.0,0.0,0.0,0.0,0.0,0.0,0.0,0.0,0.0,0.0,0.0,0.0,0.0,0.0,0.0,0.0,0.0,0.0,0.0,0.0,0.0,0.0,0.0,0.0,0.0,0.0,0.0,0.0,0.0,0.0,0.0,0.0,0.0,0.0,0.0,0.0,0.0,0.0,0.0,0.0,0.0,0.0,0.0,0.0,0.0,0.0,0.0,0.0,0.0,0.0,0.0,0.0,0.0,0.0,0.0,0.0,0.0,0.0,0.0,0.0,0.0,0.0,0.0,0.0,0.0,0.0,0.0,0.0,0.0,0.0,0.0,0.0,0.0,0.0,0.0,0.0,0.0,0.0,0.0,0.0,0.0,0.0,0.0,0.0,0.0,0.0,0.0,0.0,0.0,0.0,0.0,0.0,0.0,0.0,0.0,0.0,0.0,0.0,0.0,0.0,0.0,0.0,0.0,0.0,0.0,0.0,0.0,0.0,0.0,0.0,0.0,0.0,0.0,0.0,0.0,0.0,0.0,0.0,0.0,0.0,0.0,0.0,0.0,0.0,0.0,0.0,0.0,0.0,0.0,0.0,0.0,0.0,0.0,0.0,0.0,0.0,0.0,0.0,0.0,0.0,0.0,0.0,0.0,0.0,0.0,0.0,0.0,0.0,0.0,0.0,0.0,0.0,0.0,0.0,0.0,0.0,0.0,0.0,0.0,0.0,0.0,0.0,0.0,0.0,0.0,0.0,0.0,0.0,0.0,0.0,0.0,0.0,0.0,0.0,0.0,0.0,0.0,0.0,0.0,0.0,0.0,0.0,0.0,0.0,0.0,0.0,0.0,0.0,0.0,0.0,0.0,0.0,0.0,0.0,0.0,0.0,0.0,0.0,0.0,0.0,0.0,0.0,0.0,0.0,0.0,0.0,0.0,0.0,0.0,0.0,0.0,0.0,0.0,0.0,0.0,0.0,0.0,0.0,0.0,0.0,0.0,0.0,0.0,0.0,0.0,0.0,0.0,0.0,0.0,0.0,0.0,0.0,0.0,0.0,0.0,0.0,0.0,0.0,0.0,0.0,0.0,0.0,0.0,0.0,0.0,0.0,0.0,0.0,0.0,0.0,0.0,0.0,0.0,0.0,0.0,0.0,0.0,0.0,0.0,0.0,0.0,0.0,0.0,0.0,0.0,0.0,0.0,0.0,0.0,0.0,0.0,0.0,0.0,0.0,0.0,0.0,0.0,0.0,0.0,0.0,0.0,0.0,0.0,0.0,0.0,0.0,0.0,0.0,0.0,0.0,0.0,0.0,0.0,0.0,0.0,0.0,0.0,0.0,0.0,0.0,0.0,0.0,0.0,0.0,0.0,0.0,0.0,0.0,0.0,0.0,0.0,0.0,0.0,0.0,0.0,0.0,0.0,0.0,0.0,0.0,0.0,0.0,0.0,0.0,0.0,0.0,0.0,0.0,0.0,0.0,0.0,0.0,0.0,0.0,0.0,0.0,0.0,0.0,0.0,0.0,0.0,0.0,0.0,0.0,0.0,0.0,0.0,0.0,0.0,0.0,0.0,0.0,0.0,0.0,0.0,0.0,0.0,0.0,0.0,0.0,0.0,0.0,0.0,0.0,0.0,0.0,0.0,0.0,0.0,0.0,0.0,0.0,0.0,0.0,0.0,0.0,0.0,0.0,0.0,0.0,0.0,0.0,0.0,0.0,0.0,0.0,0.0,0.0,0.0,0.0,0.0,0.0,0.0,0.0,0.0,0.0,0.0,0.0,0.0,0.0,0.0,0.0,0.0,0.0,0.0,0.0,0.0,0.0,0.0,0.0,0.0,0.0,0.0,0.0,0.0,0.0,0.0,0.0,0.0,0.0,0.0,0.0,0.0,0.0,0.0,0.0,0.0,0.0,0.0,0.0,0.0,0.0,0.0,0.0,0.0,0.0,0.0,0.0,0.0,0.0,0.0,0.0,0.0,0.0,0.0,0.0,0.0,0.0,0.0,0.0,0.0,0.0,0.0,0.0,0.0,0.0,0.0,0.0,0.0,0.0,0.0,0.0,0.0,0.0,0.0,0.0,0.0,0.0,0.0,0.0,0.0,0.0,0.0,0.0,0.0,0.0,0.0,0.0,0.0,0.0,0.0,0.0,0.0,0.0,0.0,0.0,0.0,0.0,0.0,0.0,0.0,0.0,0.0,0.0,0.0,0.0,0.0,0.0,0.0,0.0,0.0,0.0,0.0,0.0,0.0,0.0,0.0,0.0,0.0,0.0,0.0,0.0,0.0,0.0,0.0,0.0,0.0,0.0,0.0,0.0,0.0,0.0,0.0,0.0,0.0,0.0,0.0,0.0,0.0,0.0,0.0,0.0,0.0,0.0,0.0,0.0,0.0,0.0,0.0,0.0,0.0,0.0,0.0,0.0,0.0,0.0,0.0,0.0,0.0,0.0,0.0,0.0,0.0,0.0,0.0,0.0,0.0,0.0,0.0,0.0,0.0,0.0,0.0,0.0,0.0,0.0,0.0,0.0,0.0,0.0,0.0,0.0,0.0,0.0,0.0,0.0,0.0,0.0,0.0,0.0,0.0,0.0,0.0,0.0,0.0,0.0,0.0,0.0,0.0,0.0,0.0,0.0,0.0,0.0,0.0,0.0,0.0,0.0,0.0,0.0,0.0,0.0,0.0,0.0,0.0,0.0,0.0,0.0,0.0,0.0,0.0,0.0,0.0,0.0,0.0,0.0,0.0,0.0,0.0,0.0,0.0,0.0,0.0,0.0,0.0,0.0,0.0,0.0,0.0,0.0,0.0,0.0,0.0,0.0,0.0,0.0,0.0,0.0,0.0,0.0,0.0,0.0,0.0,0.0,0.0,0.0,0.0,0.0,0.0,0.0,0.0,0.0,0.0,0.0,0.0,0.0,0.0,0.0,0.0,0.0,0.0,0.0,0.0,0.0,0.0,0.0,0.0,0.0,0.0,0.0,0.0,0.0,0.0,0.0,0.0,0.0,0.0,0.0,0.0,0.0,0.0,0.0,0.0,0.0,0.0,0.0,0.0,0.0,0.0,0.0,0.0,0.0,0.0,0.0,0.0,0.0,0.0,0.0,0.0,0.0,0.0,0.0,0.0,0.0,0.0,0.0,0.0,0.0,0.0,0.0,0.0,0.0,0.0,0.0,0.0,0.0,0.0,0.0,0.0,0.0,0.0,0.0,0.0,0.0,0.0,0.0,0.0,0.0,0.0,0.0,0.0,0.0,0.0,0.0,0.0,0.0,0.0,0.0,0.0,0.0,0.0,0.0,0.0,0.0,0.0,0.0,0.0,0.0,0.0,0.0,0.0,0.0,0.0,0.0,0.0,0.0,0.0,0.0,0.0,0.0,0.0,0.0,0.0,0.0,0.0,0.0,0.0,0.0,0.0,0.0,0.0,0.0,0.0,0.0,0.0,0.0,0.0,0.0,0.0,0.0,0.0,0.0,0.0,0.0,0.0,0.0,0.0,0.0,0.0,0.0,0.0,0.0,0.0,0.0,0.0,0.0,0.0,0.0,0.0,0.0,0.0,0.0,0.0,0.0,0.0,0.0,0.0,0.0,0.0,0.5687,0.6514,0.0,0.0,0.0,0.0,0.0,0.0,0.0,0.0,0.0,0.0,0.0,0.0,0.0,0.0,0.0,0.0,0.0,0.0,0.0,0.0,0.0,0.0,0.0,0.0,0.0,0.0,0.0,0.0,0.0,0.0,0.0,0.0,0.0,0.0,0.0,0.0,0.0,0.0,0.0,0.0,0.0,0.0,0.0,0.0,0.0,0.0,0.0,0.0,0.0,0.0,0.0,0.0,0.0,0.0,0.0,0.0,0.0,0.0,0.0,0.0,0.0,0.0,0.0,0.0,0.0,0.0,0.0,0.0,0.0,0.0,0.0,0.0,0.0,0.0,0.0,0.0,0.0,0.0,0.0,0.0,0.0,0.0,0.0,0.0,0.0,0.0,0.0,0.0,0.0,0.0,0.0,0.0,0.0,0.0,0.0,0.0,0.0,0.0,0.0,0.0,0.0,0.0,0.0,0.0,0.0,0.0,0.0,0.0,0.0,0.0,0.0,0.0,0.0,0.0,0.5575,0.6126,0.0,0.0,0.0,0.0,0.0,0.0,0.0,0.0,0.0,0.0,0.0,0.0,0.0,0.0,0.0,0.0,0.0,0.0,0.0,0.0,0.0,0.0,0.0,0.0,0.0,0.0,0.0,0.0,0.0,0.0,0.0,0.0,0.0,0.0,0.0,0.0,0.0,0.0,0.0,0.0,0.0,0.0,0.0,0.0,0.0,0.0,0.0,0.0,0.0,0.0,0.0,0.0,0.0,0.0,0.0,0.0,0.0,0.0,0.0,0.0,0.0,0.0,0.0,0.0,0.0,0.0,0.0,0.0,0.0,0.0,0.0,0.0,0.0,0.0,0.0,0.0,0.0,0.0,0.0,0.0,0.0,0.0,0.0,0.0,0.0,0.0,0.0,0.0,0.0,0.0,0.0,0.0,0.0,0.0,0.0,0.0,0.0,0.0,0.0,0.0,0.0,0.0,0.0,0.0,0.0,0.0,0.0,0.0,0.5655,0.5324,0.5328,0.4732,0.4519,0.457,0.5719,0.5895,0.5387,0.6133,0.0,0.0,0.0,0.0,0.0,0.0,0.0,0.0,0.0,0.0,0.0,0.0,0.0,0.0,0.0,0.0,0.0,0.0,0.0,0.0,0.0,0.0,0.0,0.0,0.0,0.0,0.0,0.0,0.0,0.0,0.0,0.0,0.0,0.0,0.0,0.0,0.0,0.0,0.4453,0.4161,0.4195,0.4519,0.0,0.0,0.0,0.0,0.0,0.0,0.0,0.0,0.0,0.0,0.0,0.0,0.0,0.0,0.0,0.0,0.0,0.0,0.0,0.0,0.0,0.0,0.0,0.0,0.0,0.0,0.0,0.0,0.0,0.0,0.0,0.0,0.0,0.0,0.0,0.0,0.0,0.0,0.0,0.0,0.0,0.0,0.0,0.0,0.7321,0.6897,0.0,0.0,0.0,0.0,0.0,0.0,0.0,0.0,0.0,0.0,0.0,0.0,0.0,0.6309,0.6197,0.581,0.5651,0.5651,0.4948,0.4625,0.4625,0.4519,0.4519,0.4519,0.468,0.0,0.5508,0.5588,0.0,0.0,0.0,0.0,0.0,0.0,0.0,0.0,0.0,0.0,0.0,0.0,0.0,0.0,0.0,0.0,0.0,0.0,0.0,0.0,0.0,0.0,0.0,0.0,0.0,0.0,0.0,0.0,0.0,0.0,0.0,0.0,0.0,0.0,0.0,0.0,0.0,0.0,0.4212,0.4168,0.4216,0.4345,0.4426,0.4519,0.4519,0.4519,0.0,0.0,0.0,0.0,0.0,0.0,0.0,0.0,0.0,0.0,0.0,0.0,0.0,0.0,0.0,0.0,0.0,0.0,0.0,0.0,0.0,0.0,0.0,0.0,0.0,0.0,0.0,0.0,0.0,0.0,0.0,0.0,0.0,0.0,0.0,0.0,0.0,0.0,0.0,0.7883,0.7384,0.7043,0.678,0.675,0.0,0.0,0.0,0.0,0.0,0.0,0.0,0.0,0.0,0.517,0.5589,0.558,0.5068,0.4973,0.4948,0.4948,0.4625,0.4519,0.4519,0.4519,0.4519,0.4519,0.4519,0.468,0.4948,0.4948,0.5066,0.5272,0.0,0.0,0.0,0.0,0.6196,0.638,0.0,0.0,0.0,0.0,0.0,0.0,0.0,0.0,0.0,0.0,0.0,0.0,0.0,0.0,0.0,0.4519,0.0,0.0,0.0,0.0,0.0,0.0,0.0,0.0,0.0,0.0,0.0,0.0,0.0,0.0,0.0,0.0,0.4214,0.4307,0.4412,0.4519,0.4519,0.4519,0.4519,0.0,0.0,0.0,0.0,0.0,0.0,0.0,0.0,0.0,0.0,0.0,0.0,0.0,0.0,0.0,0.0,0.0,0.0,0.0,0.0,0.0,0.0,0.0,0.0,0.0,0.0,0.0,0.0,0.0,0.0,0.0,0.0,0.0,0.0,0.0,0.0,0.0,0.0,0.7703,0.7203,0.6873,0.6376,0.615,0.0,0.0,0.0,0.0,0.0,0.0,0.559,0.5668,0.5461,0.4731,0.5063,0.4946,0.4304,0.4409,0.4519,0.4519,0.468,0.4732,0.4787,0.4952,0.5062,0.5062,0.5062,0.4952,0.4732,0.457,0.4519,0.4519,0.4519,0.4787,0.5218,0.5218,0.5601,0.5987,0.0,0.0,0.0,0.0,0.0,0.0,0.0,0.0,0.0,0.0,0.0,0.0,0.0,0.0,0.4519,0.4519,0.4519,0.4519,0.0,0.0,0.0,0.0,0.0,0.0,0.0,0.0,0.0,0.0,0.0,0.0,0.0,0.0,0.0,0.0,0.4515,0.4519,0.4519,0.4519,0.4519,0.4519,0.0,0.0,0.0,0.0,0.0,0.0,0.0,0.0,0.0,0.0,0.0,0.0,0.0,0.0,0.0,0.0,0.0,0.0,0.0,0.0,0.0,0.0,0.0,0.0,0.0,0.0,0.0,0.0,0.0,0.0,0.0,0.0,0.0,0.0,0.0,0.0,0.0,0.0,0.0,0.5671,0.4999,0.0,0.0,0.0,0.0,0.6154,0.5797,0.5373,0.4973,0.4714,0.4494,0.4239,0.4436,0.4512,0.4508,0.4515,0.4519,0.4519,0.5164,0.5433,0.5487,0.6204,0.648,0.648,0.648,0.6095,0.5378,0.4787,0.4519,0.4519,0.4519,0.4515,0.457,0.457,0.457,0.4629,0.0,0.0,0.0,0.0,0.0,0.0,0.0,0.0,0.0,0.0,0.0,0.0,0.0,0.4519,0.4519,0.4519,0.4519,0.4519,0.4519,0.0,0.0,0.0,0.0,0.0,0.0,0.0,0.0,0.0,0.0,0.0,0.0,0.0,0.0,0.0,0.0,0.0,0.4519,0.4519,0.4519,0.4519,0.4519,0.4519,0.0,0.0,0.0,0.0,0.0,0.0,0.0,0.0,0.0,0.0,0.0,0.0,0.0,0.0,0.0,0.0,0.0,0.0,0.0,0.0,0.0,0.0,0.0,0.0,0.0,0.0,0.0,0.0,0.0,0.0,0.0,0.0,0.0,0.0,0.0,0.0,0.0,0.5534,0.4893,0.0,0.4842,0.4838,0.4925,0.5081,0.4969,0.479,0.4627,0.4569,0.4494,0.4389,0.4491,0.4736,0.5164,0.5164,0.5382,0.5828,0.5597,0.5487,0.5487,0.5332,0.5226,0.5226,0.5226,0.5117,0.4842,0.4625,0.4519,0.4519,0.4519,0.4519,0.457,0.5003,0.5164,0.5218,0.0,0.0,0.0,0.0,0.0,0.0,0.0,0.0,0.0,0.0,0.0,0.4519,0.4519,0.4519,0.4519,0.4519,0.4519,0.4519,0.4519,0.0,0.0,0.0,0.0,0.0,0.0,0.0,0.0,0.0,0.0,0.0,0.0,0.0,0.0,0.0,0.0,0.0,0.0,0.0,0.4786,0.4522,0.4845,0.4815,0.4524,0.0,0.0,0.0,0.0,0.0,0.0,0.0,0.0,0.0,0.0,0.0,0.0,0.0,0.0,0.0,0.0,0.0,0.0,0.0,0.0,0.0,0.0,0.0,0.0,0.0,0.0,0.0,0.0,0.0,0.0,0.0,0.0,0.0,0.0,0.5982,0.5487,0.5487,0.4893,0.4519,0.4519,0.4519,0.4519,0.4519,0.4519,0.4539,0.4591,0.4546,0.4539,0.4594,0.4543,0.4736,0.5164,0.5378,0.576,0.6204,0.6249,0.6249,0.6249,0.616,0.6046,0.5932,0.6055,0.5881,0.5605,0.5605,0.5441,0.5171,0.468,0.4519,0.457,0.5003,0.5164,0.5273,0.0,0.0,0.0,0.0,0.0,0.0,0.0,0.0,0.0,0.0,0.4519,0.4519,0.4519,0.4519,0.4519,0.4519,0.4519,0.4519,0.4519,0.4519,0.0,0.0,0.0,0.0,0.0,0.0,0.0,0.0,0.0,0.0,0.0,0.0,0.0,0.0,0.0,0.0,0.0,0.0,0.0,0.4653,0.5588,0.5435,0.468,0.0,0.0,0.0,0.0,0.0,0.0,0.0,0.0,0.0,0.0,0.0,0.0,0.0,0.0,0.0,0.0,0.0,0.0,0.0,0.0,0.0,0.0,0.0,0.0,0.0,0.0,0.0,0.0,0.0,0.0,0.0,0.0,0.0,0.6372,0.5928,0.5487,0.5487,0.4893,0.4519,0.4519,0.4522,0.4525,0.4525,0.4529,0.4541,0.4691,0.4558,0.4545,0.4694,0.4608,0.4584,0.4577,0.5226,0.5601,0.5592,0.7009,0.7723,0.7747,0.8722,0.8982,0.8798,0.9009,0.858,0.7681,0.767,0.7235,0.648,0.5117,0.457,0.457,0.4574,0.4625,0.4736,0.0,0.0,0.0,0.0,0.0,0.0,0.0,0.0,0.0,0.0,0.4519,0.4519,0.4519,0.4519,0.4519,0.4519,0.4519,0.4519,0.4519,0.0,0.0,0.0,0.0,0.0,0.0,0.0,0.0,0.0,0.0,0.0,0.0,0.0,0.0,0.0,0.0,0.0,0.0,0.0,0.0,0.0,0.5366,0.5033,0.4853,0.0,0.0,0.0,0.0,0.0,0.0,0.0,0.0,0.0,0.0,0.0,0.0,0.0,0.0,0.0,0.0,0.0,0.0,0.0,0.0,0.0,0.0,0.0,0.0,0.0,0.0,0.0,0.0,0.0,0.0,0.0,0.4948,0.4625,0.5011,0.4897,0.4787,0.4787,0.4625,0.4519,0.4519,0.4562,0.4626,0.4626,0.4731,0.4813,0.4853,0.4816,0.4813,0.4857,0.5395,0.5884,0.6257,0.7043,0.7626,0.7877,0.7771,0.7823,0.806,0.7796,0.7767,0.7868,0.7756,0.7504,0.7261,0.6981,0.6804,0.6588,0.615,0.6046,0.6095,0.6637,0.7176,0.7687,0.0,0.0,0.0,0.0,0.0,0.0,0.0,0.0,0.0,0.0,0.4519,0.4519,0.4519,0.4519,0.4519,0.4519,0.4519,0.4519,0.4519,0.0,0.0,0.0,0.0,0.0,0.0,0.0,0.0,0.0,0.0,0.0,0.0,0.0,0.0,0.0,0.0,0.0,0.0,0.0,0.0,0.0,0.6369,0.6175,0.6092,0.6021,0.6337,0.6689,0.5775,0.5747,0.6087,0.5514,0.0,0.0,0.0,0.0,0.0,0.0,0.0,0.0,0.0,0.0,0.0,0.0,0.0,0.0,0.0,0.0,0.0,0.0,0.0,0.0,0.0,0.0,0.0,0.0,0.4732,0.465,0.5042,0.4833,0.4591,0.4525,0.4575,0.4629,0.4565,0.4697,0.4785,0.4785,0.4867,0.4945,0.5003,0.5251,0.5487,0.5497,0.6328,0.688,0.7165,0.7875,0.8373,0.8718,0.8321,0.8415,0.8789,0.8384,0.8294,0.8422,0.8276,0.8091,0.7975,0.7666,0.7509,0.7456,0.0,0.0,0.0,0.0,0.7649,0.7973,0.0,0.0,0.0,0.0,0.0,0.0,0.0,0.0,0.0,0.0,0.0,0.4519,0.4519,0.4519,0.4519,0.4519,0.4519,0.4519,0.0,0.0,0.0,0.0,0.0,0.0,0.0,0.0,0.0,0.0,0.0,0.0,0.0,0.0,0.0,0.0,0.0,0.0,0.0,0.0,0.0,0.0,0.8073,0.7968,0.7695,0.7628,0.7674,0.7757,0.6768,0.6466,0.6522,0.6379,0.0,0.0,0.0,0.0,0.0,0.0,0.0,0.0,0.0,0.0,0.0,0.0,0.0,0.0,0.0,0.0,0.0,0.0,0.0,0.0,0.0,0.0,0.0,0.0,0.4543,0.4815,0.5768,0.5242,0.4742,0.4696,0.481,0.4867,0.4728,0.4913,0.5064,0.5064,0.52,0.533,0.5399,0.6072,0.0,0.0,0.0,0.7665,0.7638,0.8132,0.8528,0.8721,0.8815,0.9198,0.9733,0.9733,0.9746,0.978,0.9746,0.9566,0.921,0.8978,0.8858,0.8692,0.7387,0.6895,0.6926,0.7295,0.7231,0.704,0.0,0.0,0.0,0.0,0.0,0.0,0.0,0.0,0.0,0.4519,0.4519,0.4519,0.4519,0.4519,0.4519,0.4519,0.4519,0.4519,0.0,0.0,0.0,0.0,0.0,0.0,0.0,0.0,0.0,0.0,0.0,0.0,0.0,0.0,0.0,0.0,0.0,0.0,0.0,0.0,0.0,0.0,0.0,0.8586,0.7955,0.7914,0.8377,0.8862,0.7978,0.809,0.8576,0.768,0.7282,0.7157,0.7171,0.0,0.0,0.0,0.0,0.0,0.0,0.0,0.0,0.0,0.0,0.0,0.0,0.0,0.0,0.0,0.0,0.0,0.0,0.0,0.0,0.4683,0.4646,0.4755,0.509,0.503,0.5232,0.5783,0.5295,0.4908,0.4877,0.5616,0.6087,0.6087,0.6913,0.7402,0.7445,0.7599,0.7659,0.7703,0.8504,0.8822,0.8543,0.9354,0.9676,0.9499,0.9508,0.0,1.0033,1.0033,1.016,1.0436,1.0134,0.9866,0.9579,0.9279,0.9103,0.9103,0.8815,0.8705,0.8769,0.9336,0.9195,0.8781,0.0,0.0,0.0,0.0,0.0,0.0,0.0,0.0,0.0,0.0,0.4519,0.4519,0.4519,0.4519,0.4519,0.4519,0.4787,0.0,0.0,0.0,0.0,0.0,0.0,0.0,0.0,0.0,0.0,0.0,0.0,0.0,0.0,0.0,0.0,0.0,0.0,0.0,0.0,0.0,0.0,0.0,0.0,1.0116,0.9675,0.9421,0.9588,0.9849,0.8941,0.8947,0.9186,0.8661,0.8153,0.7783,0.8111,0.779,0.7312,0.0,0.0,0.0,0.0,0.0,0.0,0.0,0.0,0.0,0.0,0.0,0.0,0.0,0.0,0.4691,0.4691,0.0,0.4714,0.4792,0.4863,0.5057,0.5566,0.5474,0.5377,0.5552,0.5293,0.5297,0.5647,0.6227,0.6711,0.7158,0.7703,0.8027,0.8027,0.842,0.8678,0.8678,0.9524,0.9844,0.9693,0.9936,1.012,1.0181,0.982,0.9913,1.0334,1.018,1.0281,1.0611,1.0247,1.0033,0.988,0.9579,0.9459,0.9479,0.9619,0.9593,0.9519,0.9953,0.984,0.9526,0.0,0.0,0.0,0.0,0.0,0.0,0.0,0.0,0.0,0.0,0.0,0.4519,0.4519,0.4519,0.4519,0.0,0.0,0.0,0.0,0.0,0.0,0.0,0.0,0.0,0.0,0.0,0.0,0.0,0.0,0.0,0.0,0.0,0.0,0.0,0.0,0.0,0.0,0.0,0.0,0.0,0.0,1.1476,1.1369,1.0842,1.0705,1.0571,0.9804,0.953,0.9536,0.959,0.9064,0.8441,0.9146,0.8784,0.8089,0.8039,0.7871,0.0,0.0,0.0,0.0,0.0,0.0,0.0,0.0,0.0,0.5811,0.5023,0.4921,0.5006,0.5006,0.5006,0.5016,0.5043,0.5145,0.542,0.6157,0.5876,0.5498,0.5135,0.5494,0.5992,0.6496,0.7033,0.7564,0.8289,0.8441,0.8479,0.8479,0.9198,0.953,0.953,1.0238,1.0651,1.0705,1.0354,1.0354,1.0641,1.0107,1.0107,1.0618,1.0314,1.0334,1.0611,1.0247,1.0114,1.01,0.9866,0.9766,0.9793,1.0087,1.0094,0.996,1.0134,1.002,0.9813,0.0,0.0,0.0,0.0,0.0,0.0,0.0,0.0,0.0,0.0,0.0,0.0,0.0,0.0,0.0,0.0,0.0,0.0,0.0,0.0,0.0,0.0,0.0,0.0,0.0,0.0,0.0,0.0,0.0,0.0,0.0,0.0,0.0,0.0,0.0,0.0,0.0,0.0,0.0,0.0,0.0,1.1663,1.139,1.1069,1.0949,1.0909,1.0584,1.0428,1.0467,1.0725,1.0719,1.0621,1.0758,1.0566,1.0214,0.9897,0.0,0.861,0.9266,0.9026,0.8531,0.8359,0.796,0.7516,0.0,0.0,0.6144,0.5484,0.5367,0.5311,0.5311,0.5311,0.5355,0.5494,0.5528,0.5652,0.5849,0.5827,0.5759,0.5708,0.6499,0.714,0.7189,0.8492,0.9403,0.9475,0.9987,1.0301,1.0301,1.0428,1.0428,1.0428,1.0561,1.0681,1.0942,1.0655,1.0655,1.0942,1.0678,1.0557,1.0624,1.0591,1.0591,1.0611,1.0247,1.0114,1.0114,1.008,1.0067,1.01,1.0394,1.0648,1.0822,1.0595,1.0327,1.0107,0.0,0.0,0.0,0.0,0.0,0.0,0.0,0.0,0.0,0.0,0.0,0.0,0.0,0.0,0.0,0.0,0.0,0.0,0.0,0.0,0.0,0.0,0.0,0.0,0.0,0.0,0.0,0.0,0.0,0.0,0.0,0.0,0.0,0.0,0.0,0.0,0.0,0.0,0.0,0.0,0.0,1.2198,1.1904,1.161,1.1396,1.1162,1.0528,1.0414,0.0,0.0,1.0595,1.0742,1.0742,1.0541,1.0314,1.0361,0.9977,0.0,1.0086,1.0246,1.012,0.9508,0.896,0.8323,0.7566,0.6841,0.6187,0.5724,0.5759,0.5957,0.5957,0.581,0.5772,0.5837,0.5844,0.5837,0.5803,0.5956,0.6003,0.5823,0.683,0.775,0.8014,0.9167,1.0085,1.04,1.0837,1.0989,1.0822,1.0815,1.0815,1.0815,1.0815,1.0868,1.0995,1.1042,1.1042,1.0995,1.0868,1.0722,1.0624,1.0624,1.0624,1.0618,1.0428,1.0374,1.0374,1.0374,1.0374,1.0388,1.0577,1.0698,1.0748,1.0795,1.0735,1.0641,0.0,0.0,0.0,0.0,0.0,0.0,0.0,0.0,0.0,0.0,0.0,0.0,0.0,0.0,0.0,0.0,0.0,0.0,0.0,0.0,0.0,0.0,0.0,0.0,0.0,0.0,0.0,0.0,0.0,0.0,0.0,0.0,0.0,0.0,0.0,0.0,0.0,0.0,0.0,0.0,1.2906,1.2692,1.2371,1.1917,1.1749,1.1601,1.0678,1.0448,0.0,0.0,1.0448,1.0624,1.0624,1.0354,1.016,1.0374,1.0341,1.0307,1.0601,1.1042,1.1325,1.0847,1.0284,0.9544,0.8384,0.7507,0.6702,0.617,0.6227,0.6383,0.6383,0.6288,0.62,0.6159,0.6377,0.6471,0.6383,0.6791,0.7003,0.6826,0.7786,0.8723,0.919,0.982,1.0478,1.1182,1.1356,1.1336,1.1122,1.1035,1.1029,1.1109,1.1035,1.1069,1.1236,1.1363,1.1363,1.1236,1.1069,1.0922,1.0795,1.0795,1.0795,1.0795,1.0795,1.0755,1.0681,1.0681,1.0698,1.0624,1.0624,1.0672,1.0701,1.0915,1.0995,1.1002,0.0,0.0,0.0,0.0,0.0,0.0,0.0,0.0,0.0,0.0,0.0,0.0,0.0,0.0,0.0,0.0,0.0,0.0,0.0,0.0,0.0,0.0,0.0,0.0,0.0,0.0,0.0,0.0,0.0,0.0,0.0,0.0,0.0,0.0,0.0,0.0,0.0,0.0,0.0,0.0,1.3307,1.3013,1.2714,1.177,1.1908,1.2535,1.1407,0.0,0.0,0.0,1.0782,1.0624,1.0624,1.0354,0.0,1.0127,1.0327,1.0608,1.0902,1.1196,1.1563,1.2058,1.1665,1.0924,1.0013,0.9022,0.8057,0.6919,0.6681,0.6685,0.6685,0.6681,0.663,0.6481,0.7323,0.7886,0.7791,0.8609,0.9216,0.92,0.9827,1.0434,1.0742,1.0542,1.0826,1.1773,1.1583,1.1423,1.141,1.1142,1.1122,1.1403,1.1142,1.1269,1.1837,1.1563,1.1563,1.1837,1.1269,1.1136,1.1403,1.1403,1.1403,1.1403,1.1403,1.1236,1.0982,1.0982,1.0815,1.0624,1.0624,1.0735,1.0982,1.0989,1.0995,1.1035,0.0,0.0,0.0,0.0,0.0,0.0,0.0,0.0,0.0,0.0,0.0,0.0,0.0,0.0,0.0,0.0,0.0,0.0,0.0,0.0,0.0,0.0,0.0,0.0,0.0,0.0,0.0,0.0,0.0,0.0,0.0,0.0,0.0,0.0,0.0,0.0,0.0,0.0,0.0,0.0,1.3327,1.3146,1.301,1.2389,1.2369,1.2647,0.0,0.0,0.0,0.0,0.0,1.1027,1.0974,1.0407,0.9826,0.9826,1.0314,1.0828,1.0735,1.1202,1.181,1.2204,1.1821,1.1385,1.1146,0.9849,0.8577,0.8123,0.7348,0.6702,0.6702,0.7097,0.7403,0.7344,0.8176,0.8842,0.8775,0.9074,0.9246,0.9168,0.9432,0.9972,1.0627,1.1122,1.1572,1.187,1.1951,1.1924,1.173,1.163,1.153,1.143,1.1523,1.1577,1.1577,1.1857,1.1957,1.1864,1.147,1.1329,1.1423,1.1423,1.1423,1.1423,1.1423,1.1263,1.0995,1.0995,1.1132,1.1351,1.0807,1.0989,1.1467,1.1111,1.0995,1.1009,0.0,0.0,0.0,0.0,0.0,0.0,0.0,0.0,0.0,0.0,0.0,0.0,0.0,0.0,0.0,0.0,0.0,0.0,0.0,0.0,0.0,0.0,0.0,0.0,0.0,0.0,0.0,0.0,0.0,0.0,0.0,0.0,0.0,0.0,0.0,0.0,0.0,0.0,0.0,0.0,1.3153,1.312,1.2993,1.2885,1.3041,0.0,0.0,0.0,0.0,0.0,0.0,1.1476,1.1245,1.0565,0.9931,1.0043,1.0465,1.0822,1.0735,1.1356,1.2064,1.2258,1.2203,1.2086,1.1855,1.0877,0.9862,0.9306,0.8209,0.7413,0.7597,0.7671,0.7812,0.79,0.8763,0.9427,0.9495,0.9789,1.0092,1.025,1.0245,1.0489,1.1149,1.1638,1.187,1.187,1.2044,1.2017,1.1724,1.161,1.1563,1.1583,1.1663,1.1717,1.1737,1.2111,1.2158,1.187,1.1784,1.1683,1.159,1.169,1.1737,1.1737,1.1737,1.1577,1.1296,1.1189,1.129,1.1439,1.0848,1.0926,1.131,1.0955,1.0902,1.1009,0.0,0.0,0.0,0.0,0.0,0.0,0.0,0.0,0.0,0.0,0.0,0.0,0.0,0.0,0.0,0.0,0.0,0.0,0.0,0.0,0.0,0.0,0.0,0.0,0.0,0.0,0.0,0.0,0.0,0.0,0.0,0.0,0.0,0.0,0.0,0.0,0.0,0.0,0.0,0.0,1.2969,0.0,1.2856,1.3292,0.0,0.0,0.0,0.0,0.0,0.0,0.0,1.1892,1.139,1.0833,1.0449,1.062,1.0643,1.0641,1.0902,1.1597,1.2265,1.2278,1.2726,1.2909,1.2098,1.1905,1.1575,1.0497,0.9229,0.8613,0.0,0.839,0.7838,0.8269,0.9125,0.984,0.9985,1.083,1.1677,1.2238,1.2058,1.1997,1.2278,1.2051,1.1884,1.187,1.1884,1.177,1.1483,1.1209,1.1309,1.185,1.161,1.173,1.2271,1.2291,1.2164,1.1897,1.2171,1.2158,1.1904,1.2178,1.2305,1.2305,1.2305,1.2131,1.1824,1.1543,1.1243,1.1008,1.0732,1.0624,1.0681,1.0624,1.0735,1.1009,0.0,0.0,0.0,0.0,0.0,0.0,0.0,0.0,0.0,0.0,0.0,0.0,0.0,0.0,0.0,0.0,0.0,0.0,0.0,0.0,0.0,0.0,0.0,0.0,0.0,0.0,0.0,0.0,0.0,0.0,0.0,0.0,0.0,0.0,0.0,0.0,0.0,0.0,0.0,0.0,0.0,1.4111,1.4212,0.0,0.0,0.0,0.0,0.0,0.0,0.0,0.0,0.0,1.1249,1.1118,1.1248,1.0513,1.0546,1.0855,1.0708,1.1149,1.1703,1.1924,1.2258,1.2536,1.2583,1.1848,1.1134,1.0897,0.9494,0.8422,0.8592,0.8907,0.9264,0.9603,1.0618,1.1397,1.1676,1.1926,1.2131,1.2285,0.0,1.2218,1.2291,1.2231,1.2104,1.1891,1.2071,1.2158,1.2084,1.2011,1.1937,1.187,1.2004,1.2051,1.1984,1.2191,1.2265,1.2191,1.2265,1.2265,1.2191,1.2271,1.2305,1.2305,1.2305,1.2011,1.153,1.1456,1.1514,1.1522,1.0835,1.0989,1.1406,1.0807,1.0672,1.0681,0.0,0.0,0.0,0.0,0.0,0.0,0.0,0.0,0.0,0.0,0.0,0.0,0.0,0.0,0.0,0.0,0.0,0.0,0.0,0.0,0.0,0.0,0.0,0.0,0.0,0.0,0.0,0.0,0.0,0.0,0.0,0.0,0.0,0.0,0.0,0.0,0.0,0.0,0.0,0.0,0.0,0.0,0.0,0.0,0.0,0.0,0.0,0.0,0.0,0.0,0.0,1.2758,1.1911,1.1503,1.1219,1.071,0.0,1.0768,1.0665,1.0982,1.1436,1.1476,1.1703,1.1997,1.2365,1.19,1.1372,1.1372,1.0185,0.9216,0.9525,0.9516,0.9628,0.0,0.0,0.0,1.169,1.1837,1.2011,0.0,1.2305,0.0,1.2305,1.2305,1.2231,1.2071,1.2091,1.2058,1.1924,1.1917,1.1904,1.187,1.2031,1.2098,1.2058,1.2218,1.2305,1.2305,1.2305,1.2305,1.2305,1.2305,1.2305,1.2291,1.2171,1.1997,1.179,1.153,1.1491,1.1567,1.1132,1.1173,1.1369,1.0934,1.0828,1.0922,0.0,0.0,0.0,0.0,0.0,0.0,0.0,0.0,0.0,0.0,0.0,0.0,0.0,0.0,0.0,0.0,0.0,0.0,0.0,0.0,0.0,0.0,0.0,0.0,0.0,0.0,0.0,0.0,0.0,0.0,0.0,0.0,0.0,0.0,0.0,0.0,0.0,0.0,0.0,0.0,0.0,0.0,0.0,0.0,0.0,0.0,0.0,0.0,0.0,0.0,1.396,1.2948,1.2893,1.1906,1.0864,1.1026,1.0835,1.0624,1.0624,1.0929,1.1263,1.1049,1.1149,1.139,1.1683,1.1724,1.1697,1.1697,1.0861,1.0331,1.0797,1.0084,0.9605,1.0085,0.0,1.0739,1.1002,1.1303,1.1677,1.2184,1.2278,1.2305,1.2305,1.2305,1.2305,1.2305,1.2064,1.181,1.1557,1.1543,1.1663,1.1917,1.1924,1.2044,1.2298,1.2305,1.2305,1.2305,1.2305,1.2305,1.2305,1.2305,1.2305,1.2285,1.2037,1.2044,1.2204,1.169,1.1463,1.1423,1.1423,1.1249,1.0995,1.0995,1.1149,1.1329,0.0,0.0,0.0,0.0,0.0,0.0,0.0,0.0,0.0,0.0,0.0,0.0,0.0,0.0,0.0,0.0,0.0,0.0,0.0,0.0,0.0,0.0,0.0,0.0,0.0,0.0,0.0,0.0,0.0,0.0,0.0,0.0,0.0,0.0,0.0,0.0,0.0,0.0,0.0,0.0,0.0,0.0,0.0,0.0,0.0,0.0,0.0,0.0,0.0,0.0,1.4213,1.3357,1.2728,1.2099,1.1493,1.0892,1.0647,1.0624,1.0624,1.0698,1.0755,1.0949,1.0848,1.0788,1.1076,1.0955,0.0,1.0853,1.0677,1.0494,1.0259,1.0104,1.0069,1.0448,1.0591,1.0742,1.1276,1.1603,1.183,0.0,1.2158,1.2305,1.2305,1.2305,1.2305,1.2305,1.2258,1.2204,1.2151,1.2151,1.2171,1.2225,1.2225,1.2251,1.2305,1.2305,1.2305,1.2305,1.2305,1.2305,1.2305,1.2305,1.2305,1.2298,1.2245,1.2118,1.1937,1.1837,1.165,1.1423,1.1423,1.1249,1.0995,1.0995,1.1022,1.1022,0.0,0.0,0.0,0.0,0.0,0.0,0.0,0.0,0.0,0.0,0.0,0.0,0.0,0.0,0.0,0.0,0.0,0.0,0.0,0.0,0.0,0.0,0.0,0.0,0.0,0.0,0.8804,0.8804,0.0,0.0,0.0,1.0965,1.1674,0.0,0.0,0.0,0.0,0.0,0.0,0.0,0.0,0.0,0.0,0.0,0.0,0.0,0.0,0.0,0.0,0.0,1.3885,1.3159,1.2806,1.2263,1.1648,1.0863,1.0624,1.0624,1.0624,1.0624,1.0658,1.0735,1.0548,1.0367,1.0501,0.0,0.0,1.0591,1.0624,1.0561,1.0568,1.0321,0.0,1.0307,1.0327,1.0481,1.0915,1.1229,1.1523,1.183,1.1991,1.2138,1.2285,1.2164,1.2138,1.2291,1.2164,1.2144,1.2291,1.2305,1.2305,1.2305,1.2305,1.2305,1.2305,1.2305,1.2305,1.2305,1.2305,1.2305,1.2305,1.2305,1.2305,1.2291,1.2144,1.2084,1.2084,1.1931,1.1784,1.167,1.1824,1.161,1.1216,1.1216,1.1316,1.1383,0.0,0.0,0.0,0.0,0.0,0.0,0.0,0.0,0.4519,0.4519,0.4519,0.4519,0.4519,0.4519,0.0,0.0,0.0,0.0,0.0,0.0,0.0,0.0,0.0,0.0,0.0,0.0,0.0,0.8804,0.9458,0.0,0.0,0.0,0.0,0.0,1.1566,1.1981,0.0,0.0,0.0,0.0,0.0,1.4697,0.0,0.0,0.0,0.0,0.0,0.0,0.0,0.0,1.3559,1.3032,1.2981,1.241,1.1631,1.0926,1.0711,1.0662,1.0604,1.0624,1.0624,1.0624,1.0294,1.002,1.002,1.002,0.0,1.0327,1.0537,1.0608,1.0775,1.0428,1.0114,0.0,1.0067,1.0147,1.0571,1.0808,1.1162,1.163,1.179,0.0,1.2184,1.2004,1.1991,1.2278,1.2091,1.2058,1.2291,1.2305,1.2305,1.2305,1.2305,1.2305,1.2305,1.2305,1.2305,1.2305,1.2305,1.2305,1.2305,1.2305,1.2305,1.2285,1.2058,1.2091,1.2285,1.2058,1.1924,1.1897,1.2191,1.1944,1.143,1.1496,1.167,1.179,0.0,0.0,0.0,0.0,0.0,0.0,0.0,0.0,0.4519,0.4519,0.4519,0.4519,0.4519,0.4519,0.0,0.0,0.0,0.0,0.0,0.0,0.0,0.0,0.0,0.0,0.0,0.0,0.0,0.8804,0.9458,0.0,0.0,0.0,0.0,0.0,0.0,1.1266,1.1922,0.0,0.0,0.0,0.0,0.0,0.0,0.0,0.0,0.0,0.0,0.0,0.0,0.0,0.0,1.3384,1.3005,1.2346,1.1606,1.1175,0.0,0.0,1.0669,1.0624,1.0624,1.0624,1.014,0.9726,0.9726,0.0,0.9733,0.976,1.0248,1.0488,1.0241,1.0154,1.0114,1.0114,0.0,0.992,1.0544,1.0808,1.1009,1.1069,0.0,0.0,1.1904,1.1884,1.1991,1.2278,1.2278,1.2271,1.2305,1.2305,1.2305,1.2305,1.2305,1.2305,1.2305,1.2305,1.2305,1.2305,1.2305,1.2305,1.2305,1.2305,1.2305,1.2305,1.2271,1.2278,1.2298,1.2271,1.2104,1.1897,1.2191,1.1944,1.1456,1.173,1.1844,1.1824,0.0,0.0,0.0,0.0,0.0,0.0,0.0,0.0,0.4519,0.4519,0.4519,0.4519,0.4519,0.4519,0.0,0.0,0.0,0.0,0.0,0.0,0.0,0.0,0.0,0.0,0.0,0.0,0.8804,0.8804,0.9061,0.0,0.0,0.0,0.0,0.0,0.0,1.0559,1.1216,1.1625,0.0,0.0,0.0,0.0,0.0,0.0,0.0,0.0,0.0,0.0,1.3691,0.0,0.0,0.0,1.2957,1.2698,0.0,0.0,1.1647,1.185,1.1699,1.1882,1.1981,1.173,1.1027,1.0408,1.0293,0.0,0.978,1.0201,1.0456,1.0638,1.0635,1.0354,1.0114,1.0114,0.0,0.0,1.0234,1.0241,1.0401,1.0929,1.1049,1.1289,1.1817,1.171,1.1724,1.2024,1.2204,1.2225,1.2051,1.2204,1.2305,1.2305,1.2305,1.2305,1.2305,1.2305,1.2305,1.2305,1.2305,1.2305,1.2305,1.2305,1.2305,1.2305,1.2305,1.2305,1.2372,1.2879,1.2736,1.221,1.2903,1.2548,1.1683,1.1623,1.1603,1.1557,0.0,0.0,0.0,0.0,0.0,0.0,0.4519,0.4519,0.4519,0.4519,0.4519,0.4519,0.4519,0.4519,0.4519,0.4519,0.0,0.0,0.0,0.0,0.0,0.0,0.0,0.0,0.0,0.0,0.8804,0.8804,0.8804,0.8804,0.0,0.0,0.9061,0.9517,0.0,0.0,0.0,0.0,0.0,0.0,0.0,0.0,0.0,0.0,0.0,0.0,0.0,0.0,0.0,0.0,0.0,0.0,0.0,0.0,0.0,0.0,1.2111,1.2346,1.2225,1.243,1.2562,1.2249,1.1574,1.1002,0.0,0.0,1.0443,1.0739,1.0864,1.0925,1.0893,1.0528,1.0247,0.0,0.0,0.988,1.0087,1.002,1.014,1.0668,1.0708,1.0969,1.167,1.163,1.1643,1.1857,1.1977,1.2031,1.1997,1.2111,1.2178,1.2178,1.2258,1.2345,1.2432,1.2432,1.2478,1.2572,1.2478,1.2432,1.2432,1.2345,1.2305,1.2305,1.2305,1.2445,1.2725,1.3281,1.3258,1.2885,1.3525,1.3242,1.2465,1.1977,1.1888,1.1937,0.0,0.0,0.0,0.0,0.0,0.0,0.0,0.0,0.4519,0.4519,0.4519,0.4519,0.4519,0.4519,0.4519,0.4519,0.0,0.0,0.0,0.0,0.0,0.0,0.0,0.0,0.0,0.0,0.0,0.8804,0.8804,0.8804,0.8804,0.8804,0.8804,0.8804,0.0,0.0,0.0,0.0,0.0,0.0,0.0,0.0,0.0,0.0,0.0,0.0,0.0,0.0,0.0,0.0,0.0,0.0,0.0,0.0,0.0,0.0,1.2307,1.2228,1.1812,1.1735,1.1735,1.1735,1.1521,1.1411,0.0,0.0,1.1777,1.1381,1.154,1.1531,1.0751,1.0624,1.0618,1.0618,1.0307,0.0,1.0114,1.0367,1.0448,1.016,1.0635,1.1102,1.1403,1.1697,1.1864,1.187,1.1597,1.169,1.2265,1.2031,1.187,1.187,1.2151,1.2445,1.2815,1.2815,1.2899,1.32,1.2886,1.2815,1.2808,1.2438,1.2305,1.2305,1.2305,1.2806,1.365,1.326,1.3477,1.4098,1.3966,1.3966,1.3958,1.3042,1.2914,1.312,0.0,0.0,0.0,0.0,0.0,0.0,0.0,0.0,0.4519,0.4519,0.4519,0.4519,0.4519,0.4519,0.4519,0.4519,0.0,0.0,0.0,0.0,0.0,0.0,0.0,0.0,0.0,0.0,0.0,0.0,0.8804,0.8804,0.8804,0.8804,0.8804,0.8804,0.8804,0.891,0.0,0.0,0.0,0.0,0.0,0.0,1.2066,0.0,0.0,0.0,0.0,0.0,0.0,0.0,0.0,0.0,0.0,0.0,0.0,0.0,0.0,0.0,1.2967,1.3136,1.3284,1.3007,1.2536,1.2219,1.2497,0.0,1.1841,1.1677,1.1759,1.1524,1.0744,1.0624,1.0494,1.0294,1.018,0.0,0.0,0.0,0.0,1.0381,1.0762,1.1029,1.1122,1.1583,1.1784,1.1583,1.1663,1.1724,1.1703,1.181,1.2123,1.2533,1.2634,1.2752,1.306,1.3066,1.3113,1.3206,1.2899,1.2822,1.2808,1.2438,1.2305,1.2305,1.2305,1.2806,1.3715,1.3941,1.4211,1.4428,1.4709,1.4629,1.4353,1.3848,1.3765,1.3787,0.0,0.0,0.0,0.0,0.0,0.0,0.0,0.0,0.4519,0.4519,0.4519,0.4519,0.4519,0.4519,0.4519,0.4519,0.0,0.0,0.0,0.0,0.0,0.0,0.0,0.0,0.0,0.0,0.0,0.0,0.0,0.8804,0.8804,0.8804,0.8804,0.8804,0.8804,0.8804,0.0,0.0,0.0,0.0,0.0,0.0,1.0886,0.0,0.0,0.0,0.0,0.0,0.0,0.0,0.0,0.0,0.0,0.0,0.0,0.0,1.3066,1.3271,0.0,1.3467,1.3603,1.334,1.296,0.0,0.0,0.0,0.0,0.0,1.202,1.1524,1.0744,1.0624,1.0501,1.0314,1.0281,1.0247,1.0134,0.0,1.0431,1.1107,1.1639,1.1776,1.1339,1.1824,1.1923,1.1283,1.1536,1.167,1.1597,1.2115,1.2711,1.3327,1.3348,1.3717,1.4343,1.4087,1.4048,1.416,1.3457,1.3026,1.2913,1.2605,1.2412,1.2305,1.2305,1.2806,0.0,1.4146,1.4479,1.4831,1.5215,1.5341,1.5248,1.4603,1.4572,1.4812,0.0,0.0,0.0,0.0,0.0,0.0,0.0,0.0,0.0,0.0,0.0,0.4519,0.4519,0.4519,0.0,0.0,0.0,0.0,0.0,0.0,0.0,0.0,0.0,0.0,0.0,0.0,0.0,0.7723,0.8427,0.8804,0.8804,0.0,0.8752,0.8804,0.8752,0.8752,0.0,0.0,0.0,0.0,0.0,0.0,0.0,0.0,0.0,0.0,0.0,0.0,0.0,0.0,0.0,0.0,0.0,0.0,0.0,0.0,0.0,0.0,0.0,1.2881,1.2881,1.2881,1.2881,0.0,0.0,0.0,0.0,0.0,0.0,0.0,1.0836,1.0667,1.0674,1.0654,1.0591,1.0434,1.0154,1.0665,1.1341,1.2156,1.2925,1.2979,1.195,1.2347,1.2224,1.1141,1.1263,1.1557,1.1857,1.2776,1.3622,1.4261,1.4546,1.5166,1.6261,1.5708,1.5567,1.5696,1.4316,1.3548,1.32,1.2866,1.2565,1.2305,1.2372,1.2952,1.3837,1.3982,1.4541,1.5378,1.5413,1.5977,1.6553,1.5473,1.5542,1.6039,0.0,0.0,0.0,0.0,0.0,0.0,0.0,0.0,0.0,0.0,0.0,0.4519,0.4519,0.4519,0.0,0.0,0.0,0.0,0.0,0.0,0.0,0.0,0.0,0.0,0.0,0.0,0.0,0.7723,0.8427,0.8804,0.8804,0.8209,0.0,0.0,0.8209,0.0,0.0,0.0,0.0,0.0,0.0,0.0,0.0,0.0,0.0,0.0,0.9106,0.9465,0.0,0.0,0.0,0.0,0.0,0.0,0.0,0.0,1.2881,1.2881,1.2881,0.0,1.2881,1.2881,1.2881,1.3018,0.0,0.0,0.0,0.0,0.0,0.0,0.0,0.0,1.145,1.1194,1.0634,1.02,1.0127,1.0967,1.1884,1.2693,1.3009,1.287,1.2333,1.2311,1.2217,1.1942,1.1586,1.1557,1.1857,1.2776,1.3792,1.492,1.6357,1.6901,1.6563,1.6781,1.644,1.5688,1.4881,1.4037,1.3193,1.2652,1.2365,1.2372,1.3098,1.3954,1.4822,1.4915,1.5533,1.6344,1.6062,1.625,1.6694,1.679,1.6927,1.7139,0.0,0.0,0.0,0.0,0.0,0.0,0.0,0.0,0.0,0.0,0.0,0.0,0.0,0.0,0.0,0.0,0.0,0.0,0.0,0.0,0.0,0.0,0.0,0.0,0.0,0.0,0.0,0.0,0.0,0.848,0.0,0.0,0.0,0.0,0.0,0.0,0.0,0.0,0.0,0.0,0.8951,0.0,0.0,0.0,0.0,0.0,0.8804,0.9008,0.0,0.9361,0.9562,1.0064,0.0,0.0,0.0,0.0,1.2881,1.2881,1.2881,1.2881,1.2881,1.2881,1.2881,1.2988,0.0,0.0,0.0,0.0,0.0,0.0,0.0,0.0,0.0,1.1503,1.0735,1.0167,1.0301,1.1052,1.202,1.3145,1.3475,1.3666,1.3813,1.3509,1.3037,1.257,1.2061,1.205,1.2494,1.3749,1.4999,1.6057,1.7852,1.8517,1.7921,1.7468,1.7009,1.6429,1.4955,1.3877,1.3193,1.3168,1.3086,1.3025,1.3954,1.4665,1.5192,1.5498,1.5862,1.6364,1.6336,1.6641,1.7061,1.7295,1.75,1.7705,0.0,0.0,0.0,0.0,0.0,0.0,0.0,0.0,0.0,0.0,0.0,0.0,0.0,0.0,0.0,0.0,0.0,0.0,0.0,0.0,0.0,0.0,0.0,0.0,0.0,0.0,0.0,0.0,0.0,0.0,0.0,0.0,0.854,0.0,0.0,0.0,0.0,0.0,0.9372,0.8891,0.909,0.0,0.0,0.0,0.0,0.0,0.0,0.0,0.0,0.8804,0.8804,0.9008,1.0261,0.0,0.0,0.0,0.0,0.0,1.2881,1.2822,1.2774,1.2881,1.2881,1.2969,0.0,0.0,0.0,0.0,0.0,0.0,0.0,0.0,0.0,0.0,1.0826,1.0438,1.1142,1.1534,1.2318,1.3861,1.4469,1.4943,1.556,1.4921,1.4098,1.3201,1.2586,1.258,1.3349,1.4905,1.6212,1.718,1.8936,1.9746,1.9385,1.8188,1.7552,1.7413,1.5065,1.3888,1.3583,1.4094,1.4228,1.3954,1.495,1.5438,1.5483,1.5931,1.6115,1.6145,1.6632,1.7061,1.7393,1.7461,1.7705,1.8008,0.0,0.0,0.0,0.0,0.0,0.0,0.0,0.0,0.0,0.0,0.0,0.0,0.0,0.0,0.0,0.0,0.0,0.0,0.0,0.0,0.0,0.0,0.0,0.0,0.0,0.0,0.0,0.0,0.0,0.0,0.8752,0.7509,0.7289,0.7895,0.0,0.9183,0.9203,0.9559,0.9486,0.9123,0.9163,0.0,0.0,0.0,0.0,0.0,0.0,0.0,0.0,0.8804,0.8804,0.8956,0.9718,0.0,0.0,0.0,0.0,0.0,1.2881,1.2452,1.2129,1.2725,1.2881,1.29,0.0,0.0,0.0,0.0,0.0,0.0,0.0,1.1386,1.1255,0.0,1.0728,1.1326,1.3763,1.3859,1.4328,1.6024,1.6311,1.6239,1.6049,1.4866,1.4205,1.4247,1.2854,1.2449,1.3591,1.5033,1.6212,1.718,1.8936,1.9883,1.9814,1.9123,1.8549,1.8133,1.6569,1.5599,1.5255,1.5122,1.4999,1.5021,1.6,1.6358,1.6401,1.692,1.7166,1.7166,1.7239,1.7324,1.7432,1.7783,1.7959,1.8008,0.0,0.0,0.0,0.0,0.0,0.0,0.0,0.0,0.0,0.0,0.0,0.0,0.0,0.0,0.0,0.0,0.0,0.0,0.0,0.0,0.0,0.0,0.0,0.0,0.0,0.0,0.0,0.0,0.0,0.7128,0.8209,0.7937,0.8069,0.8555,0.0,0.9392,0.9216,0.9726,0.9566,0.9018,0.0,0.0,0.0,0.0,0.0,0.0,0.0,0.0,0.0,0.0,0.8804,0.891,0.9562,0.0,0.0,0.0,0.0,0.0,1.1792,1.1534,1.1316,1.1692,1.1792,1.1792,1.1792,0.0,0.0,0.0,0.0,0.0,0.0,0.0,1.1193,1.1464,1.1641,1.216,1.3259,1.3304,1.3737,1.5248,1.5404,1.5633,1.6337,1.4832,1.3902,1.4065,1.3307,1.3366,1.445,1.6057,1.7251,1.7915,1.9242,1.9805,1.958,1.8692,1.8335,1.8276,1.6665,1.5782,1.561,1.582,1.593,1.6009,1.6932,1.7364,1.7345,1.7591,1.7715,1.7715,1.7715,1.7715,1.7744,1.7939,1.8008,1.8008,0.0,0.0,0.0,0.0,0.0,0.0,0.0,0.0,0.0,0.0,0.0,0.0,0.0,0.0,0.0,0.0,0.0,0.0,0.0,0.0,0.0,0.0,0.0,0.0,0.0,0.0,0.5923,0.6858,0.6529,0.6799,0.7723,0.8262,0.8757,0.9097,0.0,0.9452,0.9216,0.9793,0.9586,0.8925,0.0,0.0,0.0,0.0,0.0,0.0,0.0,0.0,0.0,0.0,0.0,0.0,0.0,0.0,0.0,1.0415,1.0661,1.0813,1.1015,1.0813,1.0618,1.0762,0.0,1.0813,1.0813,0.0,0.0,0.0,0.0,0.0,0.0,1.0967,1.1176,1.1783,1.2405,1.2744,1.2683,1.2675,1.3181,1.4371,1.4539,1.4959,1.6157,1.4942,1.4027,1.4027,1.4027,1.445,1.5438,1.6954,1.8016,1.8572,1.9365,1.9609,1.9287,1.8368,1.8091,1.8385,1.6715,1.6015,1.6211,1.6702,1.6922,1.6991,1.7716,1.8008,1.8008,1.8008,1.8008,1.8008,1.8008,1.8008,1.8008,1.8008,1.7862,1.7716,0.0,0.0,0.0,0.0,0.0,0.0,0.0,0.0,0.0,0.0,0.0,0.0,0.0,0.0,0.0,0.0,0.0,0.0,0.0,0.0,0.0,0.0,0.0,0.0,0.0,0.5923,0.6195,0.7616,0.6249,0.6303,0.7723,0.7777,0.8168,0.8851,0.0,0.9203,0.9203,0.9579,0.9519,0.9157,0.9176,0.0,0.0,0.0,0.0,0.0,0.0,0.0,0.0,0.0,0.0,0.0,0.0,0.0,0.9814,0.9865,1.0312,1.0965,1.1566,1.0813,1.0012,1.0669,0.0,0.0,1.0813,1.1025,0.0,1.092,0.0,0.0,0.0,1.0553,1.1176,1.1544,1.234,1.3051,1.3558,1.3641,1.3999,1.501,1.5159,1.5176,1.5296,1.5163,1.5092,1.5092,1.5092,1.5517,1.6428,1.6982,1.7648,1.8562,1.9092,1.9316,1.9287,1.8815,1.855,1.8579,1.7423,1.7204,1.7842,1.7881,1.7862,1.7862,1.794,1.8008,1.8008,1.8008,1.8008,1.8008,1.8008,1.8008,1.8008,1.8008,1.7432,1.6853,0.0,0.0,0.0,0.0,0.0,0.0,0.0,0.0,0.0,0.0,0.0,0.0,0.0,0.0,0.0,0.0,0.0,0.0,0.0,0.0,0.0,0.0,0.0,0.5441,0.6588,0.5869,0.576,0.6357,0.576,0.6519,0.8374,0.7937,0.0,0.0,0.0,0.9084,0.8991,0.9285,0.9239,0.8971,0.8971,0.8905,0.0,0.0,0.0,0.0,0.0,0.0,0.0,0.0,0.8804,0.8804,0.0,0.8956,0.9159,0.9159,0.9361,0.9614,0.9865,0.9562,0.9361,1.0012,0.0,0.0,0.0,0.0,0.0,1.0896,1.1299,0.0,0.0,1.1227,1.1589,1.257,1.2608,1.2828,1.3563,1.3673,1.4099,1.5092,1.5234,1.5539,1.6349,1.5652,1.5325,1.5549,1.5857,1.6,1.572,1.7238,1.7863,1.7372,1.836,1.876,1.8496,1.8584,1.8506,1.8242,1.7817,1.7875,1.8389,1.8125,1.8008,1.8008,1.8008,1.8008,1.8008,1.8008,1.8008,1.8008,1.8008,1.8008,1.8008,1.8008,1.7794,1.7432,0.0,0.0,0.0,0.0,0.0,0.0,0.0,0.0,0.0,0.0,0.0,0.0,0.0,0.0,0.0,0.0,0.0,0.0,0.0,0.0,0.0,0.0,0.0,0.5062,0.6204,0.576,0.5706,0.6195,0.5977,0.6848,0.8804,0.0,0.0,0.0,0.0,0.8991,0.8824,0.9018,0.8985,0.8804,0.8804,0.8804,0.0,0.0,0.0,0.0,0.0,0.0,0.0,0.0,0.0,0.0,0.0,0.0,0.0,0.9061,0.8962,0.8857,0.9061,0.9106,0.9256,0.0,0.0,0.0,0.0,0.0,0.0,1.0705,1.1132,1.1543,1.1631,0.0,1.2145,1.286,1.3087,1.331,1.3673,1.3954,1.4458,1.5092,1.5234,1.5405,1.6024,1.5526,1.5333,1.5574,1.6219,1.6428,1.6088,1.7558,1.8014,1.7079,1.7916,1.8301,1.8008,1.8291,1.8359,1.8203,1.8076,1.8154,1.8428,1.8144,1.8008,1.8008,1.8008,1.8008,1.8008,1.8008,1.8008,1.8008,1.8008,1.8008,1.8008,1.8008,1.8008,1.794,0.0,0.0,0.0,0.0,0.0,0.0,0.0,0.0,0.0,0.0,0.0,0.0,0.0,0.0,0.0,0.0,0.0,0.0,0.0,0.0,0.0,0.0,0.0,0.4842,0.5487,0.5538,0.6249,0.7723,0.6966,0.7343,0.8804,0.8049,0.0,0.0,0.0,0.0,0.8804,0.8804,0.8804,0.8804,0.8804,0.8804,0.8804,0.0,0.0,0.0,0.0,0.0,0.0,0.0,0.8804,0.0,0.0,0.0,0.0,0.0,0.9316,0.8956,0.9614,0.9814,0.9969,0.0,0.0,0.0,0.0,0.0,0.0,1.0389,1.0322,1.0516,1.1041,1.2161,1.2816,1.2141,1.3834,1.4871,1.3882,1.4593,1.5234,1.5234,1.5234,1.4807,1.3818,1.4673,1.5234,1.5242,1.6079,1.7001,1.794,1.8008,1.8008,1.8008,1.8008,1.8008,1.8008,1.8018,1.8223,1.8623,1.8213,1.8018,1.8018,1.8008,1.8008,1.8008,1.8008,1.8008,1.8008,1.8008,1.8008,1.8008,1.8008,1.8008,1.8008,1.8008,1.8008,1.8008,0.0,0.0,0.0,0.0,0.0,0.0,0.0,0.0,0.0,0.0,0.0,0.0,0.0,0.0,0.0,0.0,0.0,0.0,0.0,0.0,0.0,0.0,0.0,0.0,0.0,0.0,0.7771,0.7723,0.6966,0.7343,0.0,0.0,0.0,0.8804,0.0,0.0,0.8804,0.8804,0.8804,0.8804,0.8804,0.8804,0.8804,0.0,0.0,0.0,0.0,0.0,0.0,0.0,0.0,0.0,0.0,0.0,0.0,0.9614,0.9666,0.9562,0.9762,1.0167,0.0,0.0,0.0,0.0,0.0,0.0,0.0,0.0,1.3043,1.2833,1.3573,1.3442,1.3331,1.342,1.4131,1.4567,1.429,1.4787,1.5446,1.6079,1.5587,1.5689,1.7035,1.6589,1.6544,1.7549,1.7593,1.7432,1.707,1.7647,1.7716,1.707,1.7647,1.8008,1.8008,1.8301,1.8359,1.8193,1.8369,1.8447,1.8437,1.8144,1.8008,1.8008,1.8008,1.8008,1.8008,1.8008,1.8008,1.8008,1.8008,1.8008,1.8008,1.8008,1.8008,1.794,0.0,0.0,0.0,0.0,0.0,0.0,0.0,0.0,0.0,0.0,0.0,0.0,0.0,0.0,0.0,0.0,0.0,0.0,0.0,0.0,0.0,0.0,0.0,0.0,0.0,0.8049,0.8593,0.0,0.0,0.0,0.0,0.0,0.0,0.8804,0.0,0.8804,0.8804,0.8804,0.8804,0.8804,0.8804,0.8804,0.8804,0.0,0.0,0.0,0.0,0.0,0.0,0.0,0.0,0.0,0.0,0.0,0.0,1.0012,0.9814,0.951,1.0064,0.0,0.0,0.0,0.0,1.3582,1.4218,0.0,0.0,0.0,1.3859,1.3672,1.4008,1.3821,1.3721,1.3984,1.4624,1.5138,1.5291,1.593,1.6507,1.707,1.6655,1.6745,1.7703,1.706,1.6945,1.7703,1.7565,1.7354,1.7148,1.7716,1.7725,1.7139,1.7716,1.8008,1.8008,1.8262,1.8262,1.8018,1.8271,1.8389,1.8379,1.8125,1.8008,1.8008,1.8008,1.8008,1.8008,1.8008,1.8008,1.8008,1.8008,1.8008,1.8008,1.8008,1.8008,1.794,0.0,0.0,0.0,0.0,0.0,0.0,0.0,0.0,0.0,0.0,0.0,0.0,0.0,0.0,0.0,0.0,0.0,0.0,0.0,0.0,0.0,0.0,0.0,0.0,0.0,0.0,0.0,0.0,0.0,0.0,0.0,0.0,0.8804,0.8804,0.0,0.8804,0.8804,0.8804,0.8804,0.8804,0.8804,0.8804,0.8804,0.8804,0.0,0.0,0.0,0.0,0.0,0.0,0.0,0.0,0.0,0.0,1.0012,1.0618,0.9961,0.9368,1.0608,0.0,0.0,0.0,0.0,0.0,1.4844,1.4317,1.3656,1.3254,1.3488,1.3674,1.3305,1.3726,1.4135,1.4199,1.5143,1.6066,1.6542,1.7357,1.7969,1.8008,1.794,1.7569,1.6775,1.6636,1.6636,1.6706,1.6706,1.707,1.794,1.8008,1.8008,1.8008,1.8008,1.8008,1.8008,1.8008,1.8008,1.8008,1.8008,1.8008,1.8008,1.8008,1.8008,1.8008,1.8008,1.8008,1.8008,1.8008,1.8008,1.8008,1.8008,1.8008,1.8018,1.8057,1.8047,1.8018,0.0,0.0,0.0,0.0,0.0,0.0,0.0,0.0,0.0,0.0,0.0,0.0,0.0,0.0,0.0,0.0,0.0,0.0,0.0,0.0,0.0,0.0,0.0,0.0,0.0,0.0,0.0,0.0,0.0,0.0,0.0,0.0,0.0,0.8804,0.0,0.8804,0.8804,0.8804,0.8804,0.8804,0.8804,0.8804,0.8804,0.8804,0.9113,0.0,0.0,0.0,0.0,0.0,0.0,0.0,1.0415,1.0568,1.061,1.0762,1.0965,1.1285,0.0,1.259,0.0,0.0,0.0,1.5273,1.5273,1.5158,1.4917,1.4497,1.4754,1.5003,1.4914,1.4991,1.5107,1.5109,1.567,1.6225,1.6603,1.7164,1.7637,1.7969,1.7354,1.7139,1.7647,1.706,1.6922,1.7647,1.7716,1.7794,1.8008,1.8008,1.8008,1.8008,1.8008,1.8008,1.8008,1.8008,1.8008,1.8008,1.8008,1.8008,1.8008,1.8008,1.8008,1.8008,1.8008,1.8008,1.8008,1.8008,1.8008,1.8008,1.8008,1.8008,1.8047,1.8379,1.8291,1.8057,0.0,0.0,0.0,0.0,0.0,0.0,0.0,0.0,0.0,0.0,0.0,0.0,0.0,0.0,0.0,0.0,0.0,0.0,0.0,0.0,0.0,0.0,0.0,0.0,0.0,0.0,0.0,0.0,0.0,0.0,0.0,0.0,0.0,0.8804,0.0,0.8804,0.8804,0.8804,0.8804,0.8804,0.8804,0.8804,0.8804,0.8804,0.9008,0.9256,0.891,0.0,0.0,0.0,0.0,0.0,0.0,0.0,1.0864,1.1166,1.1316,1.1519,0.0,0.0,0.0,0.0,0.0,1.541,1.541,1.541,1.5352,1.5127,1.5254,1.541,1.541,1.541,1.5478,1.5693,1.5918,1.6221,1.667,1.6924,1.7236,1.7656,1.7283,1.7214,1.792,1.7579,1.7501,1.794,1.8008,1.8008,1.8008,1.8008,1.8008,1.8008,1.8008,1.8008,1.8008,1.8008,1.8008,1.8008,1.8008,1.8008,1.8008,1.8008,1.8008,1.8008,1.8008,1.8008,1.8008,1.8008,1.8008,1.8008,1.8008,1.8135,1.8311,1.833,1.8457,1.8623,0.0,0.0,0.0,0.0,0.0,0.0,0.0,0.0,0.0,0.0,0.0,0.0,0.0,0.0,0.0,0.0,0.0,0.0,0.0,0.0,0.0,0.0,0.0,0.0,0.0,0.0,0.0,0.0,0.0,0.0,0.0,0.0,0.0,0.8804,0.0,0.8804,0.8804,0.8804,0.8804,0.8804,0.8804,0.8804,0.8804,0.8804,0.8857,0.8956,0.8857,0.8857,0.8956,0.8956,0.0,0.0,0.0,0.0,1.1275,1.1665,1.1516,1.1443,0.0,0.0,0.0,0.0,0.0,0.0,1.541,1.541,1.541,1.541,1.541,1.541,1.541,1.541,1.5527,1.5889,1.5947,1.6103,1.6553,1.6621,1.6777,1.7217,1.7275,1.7441,1.7861,1.79,1.793,1.8008,1.8008,1.7978,1.791,1.7969,1.7978,1.79,1.7969,1.8008,1.8008,1.8008,1.8008,1.8008,1.8008,1.8008,1.8008,1.8008,1.8008,1.8008,1.8008,1.8008,1.8008,1.8008,1.8008,1.8008,1.8008,1.8223,1.8506,1.8301,1.8584,1.9043,0.0,0.0,0.0,0.0,0.0,0.0,0.0,0.0,0.0,0.0,0.0,0.0,0.0,0.0,0.0,0.0,0.0,0.0,0.4519,0.0,0.0,0.4519,0.5218,0.5928,0.0,0.0,0.0,0.0,0.0,0.0,0.0,0.0,0.0,0.8804,0.0,0.0,0.8804,0.8804,0.8804,0.8804,0.8804,0.8804,0.8804,0.8804,0.9159,0.9614,0.9008,0.9159,0.9666,0.9666,1.0115,0.0,0.0,0.0,1.251,1.1972,1.2187,1.2753,0.0,0.0,0.0,0.0,1.541,1.541,0.0,0.0,1.541,1.541,1.541,1.541,1.541,1.541,1.543,1.5488,1.5498,1.5654,1.6094,1.6152,1.6318,1.6768,1.6816,1.6992,1.7432,1.7471,1.7617,1.7978,1.8008,1.7852,1.749,1.7812,1.7842,1.748,1.7822,1.8008,1.8008,1.8008,1.8008,1.8008,1.8008,1.8008,1.8008,1.8008,1.8008,1.8008,1.8008,1.8008,1.8008,1.8008,1.8008,1.8008,1.8008,1.8047,1.8174,1.8867,1.8721,1.833,0.0,0.0,0.0,0.0,0.0,0.0,0.0,0.0,0.0,0.0,0.0,0.0,0.0,0.0,0.0,0.4519,0.4519,0.4519,0.4519,0.4519,0.4519,0.4519,0.5164,0.5651,0.5982,0.0,0.0,0.0,0.0,0.0,0.0,0.8804,0.8804,0.0,0.0,0.0,0.0,0.0,0.8804,0.8804,0.8804,0.8804,0.8804,0.8804,0.8956,0.9256,0.9309,0.9562,0.9865,1.021,1.0568,1.0864,1.1266,0.0,0.0,0.0,1.2666,1.2969,1.3389,0.0,0.0,0.0,1.5059,1.5117,1.5361,1.541,1.541,1.541,1.541,1.541,1.541,1.541,1.541,1.541,1.541,1.5478,1.5674,1.5693,1.5859,1.6309,1.6357,1.6533,1.6973,1.7021,1.71,1.7275,1.7295,1.7217,1.7031,1.7197,1.7207,1.7021,1.7432,1.7656,1.7656,1.7891,1.8008,1.8008,1.8008,1.8008,1.8008,1.8008,1.8008,1.8008,1.8008,1.8008,1.8008,1.8008,1.8008,1.8008,1.8008,1.8154,1.8379,1.8516,1.8633,1.8769,0.0,0.0,0.0,0.0,0.0,0.0,0.0,0.0,0.0,0.0,0.0,0.0,0.0,0.0,0.0,0.0,0.4519,0.4519,0.4519,0.4519,0.4519,0.4519,0.5003,0.5324,0.5487,0.0,0.0,0.0,0.0,0.0,0.8804,0.8804,0.8804,0.0,0.8804,0.0,0.0,0.0,0.0,0.8804,0.8804,0.8804,0.8804,0.8804,0.891,0.9106,0.9614,0.9917,1.0115,1.061,1.0914,1.1166,1.1665,1.1922,0.0,0.0,0.0,1.2969,0.0,0.0,0.0,0.0,1.4697,1.4863,0.0,1.5342,1.541,1.541,1.541,1.541,1.541,1.541,1.541,1.541,1.541,1.541,1.541,1.541,1.5527,1.5859,1.5898,1.6074,1.6523,1.6562,1.6611,1.6719,1.6665,1.668,1.6572,1.667,1.668,1.6562,1.6992,1.7275,1.7383,1.7803,1.8008,1.8008,1.8008,1.8008,1.8008,1.8008,1.8008,1.8008,1.8008,1.8008,1.8008,1.8008,1.8008,1.8008,1.8008,1.8203,1.8457,1.8242,1.8506,1.8945,0.0,0.0,0.0,0.0,0.0,0.0,0.0,0.0,0.0,0.0,0.0,0.0,0.0,0.4519,0.4519,0.4519,0.4519,0.4519,0.4519,0.4519,0.4519,0.4519,0.4515,0.0,0.5483,0.0,0.0,0.0,0.0,0.0,0.8804,0.8804,0.8804,0.8804,0.8804,0.8804,0.8804,0.0,0.0,0.0,0.8804,0.8804,0.8804,0.8804,0.9211,0.9762,0.9762,1.0218,1.0762,1.0762,1.1216,1.1765,1.1765,1.2295,1.2832,0.0,0.0,0.0,0.0,0.0,0.0,1.4053,0.0,0.0,0.0,1.5127,1.541,1.541,1.541,1.541,1.541,1.541,1.541,1.541,1.541,1.541,1.541,1.541,1.542,1.5439,1.5449,1.5615,1.6115,1.6154,1.6279,1.6699,1.6665,1.6543,1.6184,1.6504,1.6543,1.6113,1.6533,1.6963,1.7383,1.7803,1.8008,1.8008,1.8008,1.8008,1.8008,1.8008,1.8008,1.8008,1.8008,1.8008,1.8008,1.8008,1.8008,1.8008,1.8008,1.8018,1.8086,1.8467,1.8379,1.8193,0.0,0.0,0.0,0.0,0.0,0.0,0.0,0.0,0.0,0.0,0.0,0.0,0.0,0.4519,0.4519,0.4519,0.4519,0.4519,0.4519,0.4519,0.4519,0.4519,0.4519,0.4625,0.4838,0.0,0.0,0.0,0.0,0.8321,0.8804,0.8804,0.8804,0.8804,0.8804,0.8804,0.8804,0.8804,0.0,0.0,0.0,0.8804,0.8857,0.9263,0.9614,0.9865,1.0269,1.0618,1.0813,1.0813,1.1266,1.1814,1.1814,1.2295,1.2881,1.2881,1.2881,1.291,0.0,0.0,0.0,1.3623,1.3848,1.4111,1.4658,1.4902,1.5088,1.5352,1.541,1.541,1.541,1.541,1.541,1.541,1.541,1.541,1.541,1.541,1.541,1.541,1.541,1.5469,1.5625,1.5644,1.5713,1.5869,1.5889,1.5811,1.5654,1.5801,1.5811,1.5654,1.6074,1.665,1.7373,1.7529,1.7744,1.8008,1.8008,1.8008,1.8008,1.8008,1.8008,1.8008,1.8008,1.8008,1.8008,1.8008,1.8008,1.8008,1.8008,1.8008,1.8027,1.8184,1.8135,1.8057,0.0,0.0,0.0,0.0,0.0,0.0,0.0,0.0,0.0,0.0,0.0,0.0,0.0,0.0,0.4519,0.4519,0.4519,0.4519,0.4519,0.4519,0.4519,0.4519,0.4519,0.4519,0.4519,0.0,0.0,0.0,0.0,0.0,0.0,0.8699,0.8804,0.8804,0.8804,0.8804,0.0,0.0,0.0,0.8804,0.0,0.8804,0.8857,0.9309,0.9614,0.9865,1.0312,1.0618,1.0813,1.1065,1.1408,1.1864,1.208,1.2501,1.2881,1.2881,1.2881,1.2881,1.2881,0.0,0.0,0.0,1.3408,1.3662,1.4228,1.458,1.4863,1.5146,1.5312,1.541,1.541,1.541,1.541,1.541,1.541,1.541,1.541,1.541,1.541,1.541,1.541,1.541,1.541,1.541,1.541,1.541,1.541,1.541,1.541,1.541,1.541,1.541,1.5986,1.6572,1.7158,1.7168,1.7451,1.8008,1.7871,1.7871,1.8008,1.8008,1.8008,1.8008,1.8008,1.8008,1.8008,1.8008,1.8008,1.8008,1.8008,1.8008,1.8008,1.8008,1.8008,1.8008,0.0,0.0,0.0,0.0,0.0,0.0,0.0,0.0,0.0,0.0,0.0,0.0,0.0,0.0,0.0,0.4519,0.4519,0.4519,0.4519,0.4519,0.4519,0.4519,0.4519,0.4519,0.4519,0.0,0.0,0.0,0.0,0.0,0.0,0.0,0.8804,0.8804,0.8804,0.8804,0.8804,0.0,0.8804,0.8804,0.8804,0.8804,0.8804,0.8804,0.9218,0.9829,0.9829,1.0233,1.088,1.1584,1.1774,1.1922,1.2666,1.2881,1.2881,1.2881,1.2881,1.2881,0.0,0.0,0.0,0.0,1.3184,1.3496,1.3506,1.415,1.4756,1.4775,1.5107,1.54,1.541,1.541,1.541,1.541,1.541,1.541,1.541,1.541,1.541,1.541,1.541,1.541,1.541,1.541,1.541,1.541,1.541,1.541,1.541,1.541,1.541,1.541,1.624,1.6699,1.6709,1.6665,1.7148,1.7969,1.7568,1.7598,1.7988,1.7988,1.7998,1.8008,1.8008,1.8008,1.8008,1.8008,1.8008,1.8008,1.8008,1.8008,1.8008,1.8008,1.8008,1.8008,0.0,0.0,0.0,0.0,0.0,0.0,0.0,0.0,0.0,0.0,0.0,0.0,0.0,0.4519,0.4519,0.4519,0.4519,0.4519,0.4519,0.4519,0.4519,0.4519,0.4519,0.4519,0.4519,0.0,0.0,0.0,0.0,0.0,0.0,0.0,0.0,0.0,0.8804,0.8804,0.8804,0.8804,0.0,0.8804,0.8804,0.8804,0.8857,0.9361,0.9813,1.0226,1.0796,1.0796,1.0539,1.1314,1.1336,1.1266,1.251,1.2881,1.2881,1.2881,1.2881,1.2881,1.2881,0.0,0.0,0.0,0.0,0.0,1.3437,1.3691,1.4033,1.4658,1.4873,1.5049,1.5352,1.541,1.541,1.541,1.541,1.541,1.541,1.541,1.541,1.541,1.541,1.541,1.541,1.541,1.541,1.541,1.541,1.541,1.541,1.541,1.541,1.541,1.5644,1.5928,1.625,1.6572,1.6846,1.709,1.7285,1.7451,1.7559,1.7559,1.7725,1.8008,1.8008,1.8008,1.8008,1.8008,1.8008,1.8008,1.8008,1.8008,1.8008,1.8008,1.8008,1.8008,0.0,0.0,0.0,0.0,0.0,0.0,0.0,0.0,0.0,0.0,0.0,0.0,0.0,0.0,0.4519,0.4519,0.4519,0.4519,0.4519,0.4519,0.4519,0.4519,0.4519,0.4625,0.4897,0.0,0.0,0.0,0.0,0.0,0.0,0.0,0.0,0.0,0.0,0.0,0.0,0.0,0.0,0.9211,0.9211,0.9211,0.9225,0.945,0.9882,1.0438,1.0676,1.0584,1.0438,1.1005,1.1083,1.1174,1.2144,1.2452,1.2501,1.2822,1.2881,0.0,0.0,0.0,0.0,1.2881,0.0,0.0,1.3193,1.3379,1.3643,1.415,1.4394,1.4648,1.5078,1.5146,1.5205,1.5381,1.541,1.541,1.541,1.541,1.5478,1.5664,1.5684,1.5684,1.5684,1.5684,1.5605,1.542,1.541,1.541,1.541,1.5586,1.5596,1.542,1.5586,1.5811,1.6125,1.6143,1.6367,1.6675,1.6992,1.7207,1.7393,1.7568,1.7773,1.8008,1.8008,1.8008,1.8008,1.8008,1.8008,1.8008,1.8008,1.8008,1.8008,1.8008,1.8008,1.8008,0.0,0.0,0.0,0.0,0.0,0.0,0.0,0.0,0.0,0.0,0.0,0.0,0.0,0.0,0.0,0.4519,0.4519,0.4519,0.4519,0.4519,0.4519,0.4519,0.4519,0.4787,0.5378,0.0,0.0,0.0,0.0,0.0,0.0,0.0,0.0,0.0,0.0,0.0,0.0,0.0,0.9865,0.9814,0.9865,0.9909,0.9895,0.9547,0.9955,1.0623,1.0179,1.0342,1.0731,1.0816,1.1146,1.1517,1.176,1.1963,1.219,1.2744,1.291,0.0,0.0,0.0,0.0,1.2881,1.2881,0.0,1.2881,1.3174,1.3447,1.3496,1.3799,1.4199,1.4739,1.4818,1.5012,1.5494,1.5545,1.5468,1.541,1.541,1.5557,1.5947,1.5986,1.5986,1.5986,1.5986,1.583,1.5439,1.541,1.541,1.541,1.5781,1.5811,1.542,1.5791,1.5986,1.5986,1.5654,1.5859,1.6592,1.6626,1.6934,1.7324,1.7744,1.7969,1.8008,1.8008,1.8008,1.8008,1.8008,1.8008,1.8008,1.8008,1.8008,1.8008,1.8008,1.8008,1.8008,-0.0,0.0,0.0,0.0,0.0,0.0,0.0,0.0,0.0,0.0,0.0,0.0,0.0,0.0,0.0,0.0,0.4519,0.4519,0.4519,0.4519,0.4519,0.4519,0.4519,0.457,0.4677,0.5218,0.0,0.0,0.0,0.0,0.0,0.0,0.0,0.0,0.0,0.0,0.0,0.0,1.0312,0.9865,1.0364,1.0618,1.0659,1.0963,1.1269,1.1678,1.1946,1.2092,1.211,1.1752,1.2083,1.2518,1.2289,1.2859,1.3532,1.3076,1.3125,1.3311,1.2969,1.2881,1.2881,1.2881,1.2881,0.0,1.2881,1.2939,1.3096,1.3437,1.3574,1.3915,1.4881,1.5058,1.5352,1.6375,1.6353,1.6046,1.5468,1.541,1.5439,1.5527,1.5537,1.5537,1.5537,1.5537,1.5498,1.542,1.541,1.541,1.541,1.5498,1.5498,1.541,1.5498,1.5537,1.5537,1.5801,1.585,1.5674,1.6334,1.6777,1.6875,1.7305,1.7686,1.8008,1.8008,1.8008,1.8008,1.8008,1.8008,1.8008,1.8008,1.8008,1.8008,1.8008,1.8008,1.8008,-0.0,0.0,0.0,0.0,0.0,0.0,0.0,0.0,0.0,0.0,0.0,0.0,0.0,0.0,0.0,0.0,0.0,0.4519,0.4519,0.4519,0.4625,0.5003,0.5003,0.5328,0.6091,0.6416,0.6956,0.0,0.0,0.0,0.0,0.0,0.0,0.0,0.0,0.0,0.0,0.0,1.0415,0.9865,1.0914,1.1116,1.0854,1.1226,1.1527,1.1734,1.2051,1.2315,1.2481,1.2091,1.2189,1.2431,1.2636,1.2956,1.3313,1.321,1.334,1.3418,1.2998,1.2881,1.2881,1.2881,1.2881,0.0,0.0,1.2881,1.2998,1.3418,1.334,1.349,1.4435,1.4676,1.5016,1.5794,1.6321,1.6383,1.5758,1.5716,1.5732,1.5732,1.5732,1.5732,1.5732,1.5937,1.5977,1.5752,1.5537,1.541,1.541,1.5615,1.5635,1.542,1.5625,1.5635,1.541,1.5625,1.5625,1.542,1.6309,1.6665,1.6694,1.7402,1.7812,1.8008,1.8008,1.8008,1.8008,1.8008,1.8008,1.8008,1.8008,1.8008,1.8008,1.8008,1.8008,1.8008,-0.0,0.0,0.0,0.0,0.0,0.0,0.0,0.0,0.0,0.0,0.0,0.0,0.0,0.0,0.0,0.0,0.0,0.4519,0.4519,0.4519,0.4787,0.5487,0.5487,0.614,0.745,0.7616,0.7996,0.0,0.0,0.0,0.0,0.0,0.0,0.0,0.0,0.0,0.0,0.0,1.0312,0.9917,1.1266,1.1466,1.1057,1.154,1.179,1.1894,1.21,1.2264,1.2364,1.2276,1.2239,1.2321,1.2796,1.2913,1.3013,1.3304,1.3496,1.3516,1.3018,1.2881,1.2881,1.2881,1.2881,1.2881,0.0,0.0,0.0,1.3418,1.3174,1.3194,1.4133,1.4307,1.4552,1.5337,1.6227,1.6673,1.6283,1.6395,1.6467,1.6237,1.6178,1.6207,1.6287,1.6713,1.6845,1.6568,1.6158,1.5821,1.5642,1.6028,1.5947,1.543,1.584,1.585,1.542,1.541,1.5459,1.5547,1.6348,1.6777,1.6885,1.7656,1.8008,1.8008,1.8008,1.8008,1.8008,1.8008,1.8008,1.8008,1.8008,1.8008,1.8008,1.8008,1.8008,1.8008,-0.0,-0.0,0.0,0.0,0.0,0.0,0.0,0.0,0.0,0.0,0.0,0.0,0.4519,0.4519,0.4519,0.0,0.4519,0.4519,0.4519,0.4519,0.4787,0.5487,0.5487,0.5869,0.6696,0.7343,0.7723,0.783,0.0,0.0,0.0,0.0,0.0,0.0,0.8804,0.0,0.0,0.0,0.9865,0.9917,1.1242,1.1733,1.181,1.2855,1.324,1.334,1.37,1.3229,1.2423,1.2724,1.3099,1.3268,1.2636,1.3357,1.4305,1.3281,1.3477,1.3887,1.3096,1.2881,1.2881,1.2881,1.2881,1.2881,1.2881,0.0,1.2998,1.3418,0.0,1.3333,1.4707,0.0,0.0,1.6553,1.6837,1.683,1.6982,1.7605,1.7709,1.6851,1.6584,1.6618,1.7033,1.754,1.7977,1.8198,1.7927,1.7301,1.642,1.6557,1.6269,1.5439,1.584,1.585,1.542,1.541,1.5605,1.6056,1.6494,1.6934,1.7324,1.7793,1.8008,1.8008,1.8008,1.8008,1.8008,1.8008,1.8008,1.8008,1.8008,1.8008,1.8008,1.8008,1.8008,1.8008,-0.0,-0.0,0.0,0.0,0.0,0.0,0.0,0.0,0.0,0.0,0.0,0.0,0.4519,0.4519,0.4519,0.4519,0.4519,0.4519,0.4519,0.4519,0.0,0.6091,0.6145,0.6691,0.783,0.8156,0.8321,0.8321,0.8646,0.0,0.0,0.0,0.0,0.0,0.8804,0.0,0.8857,0.951,0.9562,0.9361,1.1074,1.1575,1.1384,1.265,1.3145,1.3143,1.32,1.3127,1.3159,1.3783,1.3798,1.361,1.3987,1.4064,1.3994,1.3691,1.3682,1.3643,1.3047,1.3057,1.3184,1.2939,1.3066,1.3184,1.2939,1.2881,1.2998,1.3418,0.0,0.0,0.0,0.0,0.0,0.0,1.6143,1.6709,1.7047,1.8013,1.8242,1.695,1.7005,1.7331,1.7821,1.8119,1.8328,1.8406,1.8353,1.8123,1.7707,1.7207,1.7059,1.7179,1.6901,1.6719,1.6698,1.6255,1.6128,1.6331,1.6376,1.6572,1.7021,1.7451,1.7783,1.8008,1.8008,1.8008,1.8008,1.8008,1.8008,1.8008,1.8008,1.8008,1.8008,1.8008,1.8008,1.8008,-0.0,0.0,0.0,0.0,0.0,0.0,0.0,0.0,0.4522,0.4519,0.4519,0.4519,0.4519,0.4519,0.4519,0.4519,0.4519,0.4519,0.4519,0.4519,0.5062,0.6258,0.648,0.7182,0.848,0.8699,0.8804,0.8804,0.0,0.0,0.0,0.0,0.0,0.0,0.0,0.8804,0.8857,0.9309,0.9465,0.9458,1.0965,1.1466,1.1484,1.252,1.2881,1.2871,1.266,1.2991,1.3603,1.4228,1.4102,1.3838,1.4766,1.4502,1.3896,1.4029,1.4004,1.374,1.3203,1.3271,1.3408,1.2988,1.3105,1.3262,1.2949,1.2881,1.2998,1.3418,1.3174,0.0,0.0,0.0,1.3745,1.4328,0.0,1.6066,1.6546,1.7687,1.8181,1.7479,1.7832,1.8259,1.8623,1.8851,1.8931,1.8963,1.8965,1.8931,1.8805,1.8112,1.7947,1.8452,1.7653,1.7359,1.7578,1.6866,1.6555,1.6681,1.6495,1.6483,1.6748,1.7187,1.7549,1.7842,1.7959,1.8008,1.8008,1.8008,1.8008,1.8008,1.8008,1.8008,1.8008,1.8008,1.8008,1.8008,-0.0,-0.0,0.0,0.0,0.0,0.0,0.0,0.448,0.4473,0.4519,0.4519,0.4519,0.4519,0.4519,0.4519,0.4519,0.4519,0.4519,0.4519,0.4519,0.4787,0.5487,0.6204,0.6966,0.7723,0.8427,0.8804,0.8804,0.0,0.0,0.0,0.0,0.0,0.0,0.8804,0.8804,0.8804,0.8804,0.9562,1.0762,1.0813,1.1642,1.2832,1.2881,1.2881,1.2881,1.29,1.3164,1.3516,1.3535,1.3799,1.4068,1.4107,1.4434,1.4658,1.4248,1.4424,1.4561,1.3721,1.3496,1.3408,1.2988,1.2891,1.29,1.2881,1.2881,1.2998,1.3418,1.3174,1.3135,1.3912,1.3437,1.3243,1.4229,1.4549,0.0,0.0,1.6339,1.7554,1.8759,1.9202,1.9376,1.9523,1.9918,2.0286,2.0594,2.0326,1.9989,1.9614,1.9113,1.8748,1.8532,1.7653,1.7359,1.7578,1.6866,1.6723,1.7172,1.7183,1.7022,1.6748,1.7187,1.7393,1.7432,1.7832,1.8008,1.8008,1.8008,1.8008,1.8008,1.8008,1.8008,1.8008,1.8008,1.8008,1.8008,-0.0,0.0,0.0,0.0,0.0,0.0336,0.1339,0.3239,0.4477,0.4473,0.4522,0.4519,0.4519,0.4519,0.4519,0.4519,0.4519,0.4519,0.4519,0.4519,0.4787,0.5487,0.576,0.6199,0.6966,0.767,0.8049,0.8049,0.854,0.0,0.0,0.0,0.0,0.0,0.0,0.8804,0.8804,0.8804,0.9061,0.951,0.9961,1.0973,1.2178,1.2178,1.2501,1.2881,1.2881,1.2969,1.3174,1.374,1.3828,1.3867,1.4707,1.4687,1.4385,1.4521,1.4463,1.4287,1.4004,1.4131,1.418,1.3477,1.3506,1.3633,1.3359,1.3076,1.2998,1.3418,1.3174,1.2969,1.3252,1.3076,1.3204,1.4049,1.4358,1.4877,0.0,1.6946,1.7737,1.8208,1.9096,1.9695,1.9707,2.0212,2.0419,2.0137,2.0387,2.0446,2.0328,1.9345,1.9101,1.9922,1.8783,1.846,1.9044,1.8328,1.8041,1.8212,1.7712,1.7301,1.7012,1.7165,1.7161,1.6973,1.796,1.8404,1.8424,1.8721,1.8844,1.8787,1.8202,1.8008,1.8008,1.8008,1.8008,1.8008,-0.0,0.0,0.0,-0.0,-0.0,-0.0,-0.0,0.1673,0.3294,0.4373,0.4477,0.4525,0.4525,0.4519,0.4519,0.4519,0.4519,0.4519,0.4519,0.4519,0.4677,0.5109,0.5378,0.5873,0.6588,0.7343,0.783,0.8103,0.8586,0.8804,0.0,0.0,0.0,0.0,0.0,0.8804,0.8804,0.8804,0.8956,0.9211,0.9614,1.0618,1.1765,1.1566,1.2039,1.2881,1.2881,1.2881,1.3008,1.3848,1.3955,1.3926,1.5059,1.5029,1.4648,1.4922,1.4805,1.4561,1.4404,1.457,1.4619,1.3906,1.3936,1.397,1.3603,1.3301,1.3184,1.3447,1.3174,1.2969,1.3271,1.3203,1.333,1.397,1.419,1.4614,0.0,1.6718,1.7461,1.7326,1.8605,1.9522,1.9522,2.0024,2.0213,1.9823,2.015,2.0451,2.0706,1.9679,1.9576,2.0652,1.9388,1.9032,1.9798,1.9097,1.8715,1.8715,1.8232,1.7745,1.7338,1.7509,1.7459,1.7287,1.8279,1.8719,1.8678,1.8743,1.8741,1.8687,1.7869,1.7559,1.7598,1.79,1.8008,1.8008,-0.0,-0.0,-0.0,-0.0,-0.0,-0.0,-0.0,-0.0,0.1005,0.3878,0.4383,0.4432,0.449,0.448,0.4525,0.4519,0.4525,0.4529,0.4529,0.4529,0.4529,0.4529,0.5167,0.5814,0.6534,0.7306,0.8062,0.8752,0.8818,0.0,0.0,0.0,0.0,0.0,0.8804,0.0,0.8804,0.8857,0.9211,0.9814,0.9762,1.0559,1.1665,1.1065,1.1692,1.2881,1.2881,1.2891,1.3037,1.3857,1.4097,1.4262,1.5146,1.541,1.541,1.541,1.541,1.5322,1.4922,1.4814,1.4717,1.4277,1.4107,1.4009,1.3662,1.3555,1.3545,1.3564,1.3232,1.3184,1.3984,1.3809,1.3682,1.4092,1.4136,1.4136,1.4116,1.5669,1.6621,1.6193,1.7757,1.8921,1.897,1.9497,1.9798,1.9798,1.9798,2.0037,2.0589,2.01,2.0049,2.0655,1.9429,1.9097,1.9798,1.9097,1.8768,1.8768,1.8768,1.8394,1.7644,1.8126,1.8282,1.8315,1.8725,1.8937,1.8877,1.8198,1.7913,1.7801,1.7024,1.6748,1.6865,1.7676,1.7978,1.7978,-0.0,-0.0,-0.0,-0.0,-0.0,-0.0,-0.0,-0.0,0.0282,0.104,0.2604,0.3823,0.4413,0.4579,0.4585,0.4529,0.4565,0.4633,0.4633,0.4633,0.4633,0.4633,0.5179,0.5597,0.576,0.7296,0.8026,0.799,0.8747,0.0,0.8804,0.0,0.0,0.0,0.0,0.8804,0.8857,0.9309,0.9666,0.9762,0.9263,0.9865,1.1065,1.0864,1.1692,1.2881,1.2881,1.3076,1.3428,1.3902,1.4346,1.4707,1.5244,1.541,1.541,1.541,1.541,1.5391,1.5283,1.5254,1.5146,1.4727,1.4619,1.459,1.4482,1.4209,1.4062,1.4385,1.4111,1.3877,1.4038,1.4,1.4111,1.4551,1.4883,1.4971,1.4658,1.5413,1.5839,1.5435,1.6562,1.78,1.8871,1.9497,1.9798,1.9798,1.9798,1.9874,2.0012,1.9874,1.9874,2.0024,1.9718,1.9592,1.9798,1.9592,1.9527,1.9527,1.9527,1.915,1.8447,1.8522,1.832,1.7846,1.8917,1.9432,1.941,1.9541,1.9279,1.8693,1.7863,1.7413,1.7246,1.7461,1.7539,1.7588,-0.0,-0.0,-0.0,-0.0,-0.0,-0.0,-0.0,-0.0,-0.0,-0.0,0.1055,0.2638,0.4656,0.4824,0.4699,0.467,0.4741,0.4792,0.4792,0.4792,0.4876,0.515,0.5446,0.5903,0.647,0.7477,0.8087,0.8329,0.8808,0.9031,0.8991,0.0,0.0,0.0,0.0,0.8804,0.8857,0.951,0.9614,0.9361,0.9256,0.9666,0.0,1.0669,1.1475,1.2452,1.2774,1.3154,1.3574,1.3941,1.4424,1.4863,1.5283,1.541,1.541,1.541,1.541,1.541,1.541,1.541,1.5352,1.5117,1.5059,1.501,1.4824,1.46,1.4492,1.4736,1.4434,1.4194,1.4619,1.4541,1.4561,1.499,1.5254,1.5264,1.4844,1.532,1.5454,1.4892,1.5951,1.718,1.8166,1.8707,1.9062,1.9294,1.938,1.956,1.9798,1.9798,1.9798,1.9798,1.9572,1.9572,1.9798,1.9572,1.9572,1.9798,1.9798,1.9467,1.8833,1.9052,1.8819,1.8272,1.9274,1.9678,1.969,1.9586,1.9315,1.8805,1.7659,1.7133,1.6969,1.6855,1.7051,1.7451,-0.0,-0.0,-0.0,-0.0,-0.0,-0.0,-0.0,-0.0,-0.0,-0.0,0.0178,0.1545,0.4726,0.4891,0.4877,0.4894,0.4925,0.4938,0.4921,0.4938,0.5175,0.5644,0.5842,0.6473,0.7509,0.7705,0.8154,0.901,0.8856,0.8862,0.0,0.0,0.0,0.0,0.0,0.0,0.8956,0.9465,0.9361,0.8956,0.9465,0.971,0.9865,1.0466,1.1166,1.1864,1.251,1.3134,1.3643,1.3951,1.4463,1.4932,1.5293,1.541,1.541,1.541,1.541,1.541,1.541,1.541,1.541,1.541,1.541,1.5312,1.4951,1.4863,1.4863,1.4863,1.4561,1.4476,1.5273,1.5117,1.498,1.5352,1.541,1.5264,1.4844,1.5315,1.5337,1.4449,1.5665,0.0,1.6872,1.7541,1.8227,1.8785,1.9017,1.9296,1.9673,1.9761,1.9773,1.9698,1.9258,1.9246,1.9698,1.9183,1.9183,1.9698,1.9698,1.9497,1.9096,1.9597,1.956,1.9108,1.961,1.9798,1.9747,1.9097,1.8768,1.8555,1.709,1.6524,1.6571,1.6218,1.6553,1.7275,-0.0,-0.0,-0.0,-0.0,-0.0,-0.0,-0.0,-0.0,-0.0,-0.0,0.1329,0.2465,0.3105,0.4322,0.4937,0.4752,0.4952,0.5043,0.4925,0.503,0.5092,0.5065,0.6142,0.6748,0.681,0.7654,0.8114,0.8149,0.8441,0.8441,0.0,0.0,0.0,0.0,0.0,0.0,0.9614,0.9159,0.9211,0.9562,0.9159,0.9316,0.9814,0.9909,1.0712,1.1814,1.1972,1.2874,1.398,1.4058,1.4648,1.5312,1.5391,1.541,1.541,1.541,1.541,1.541,1.541,1.541,1.541,1.541,1.541,1.5391,1.5322,1.5303,1.5303,1.5303,1.5234,1.5234,1.5381,1.5352,1.5322,1.54,1.541,1.5264,1.4844,1.5192,1.515,1.4271,1.4735,1.5039,1.4682,1.7014,1.8831,1.9567,1.9659,1.9522,1.9183,1.9572,1.961,1.9171,1.9033,1.907,1.9171,1.8618,1.8631,1.9171,1.9171,1.9334,1.9673,1.9761,1.9748,1.9673,1.9761,1.9798,1.9798,1.9643,1.9254,1.8555,1.709,1.6723,1.7019,1.6327,1.6223,1.6357,-0.0,-0.0,-0.0,-0.0,-0.0,-0.0,-0.0,-0.0,-0.0,-0.0,0.2386,0.4043,0.3854,0.4717,0.5169,0.4938,0.5121,0.522,0.5152,0.5213,0.5339,0.5468,0.6083,0.6468,0.6593,0.7132,0.7415,0.7591,0.8115,0.8126,0.772,0.8895,0.0,0.0,0.0,0.9187,0.9482,0.9379,0.9316,0.9263,0.9316,0.9316,0.9309,0.9666,1.0415,1.1316,1.1665,1.2679,1.3848,1.4009,1.4707,1.5371,1.5156,1.5088,1.5088,1.5088,1.5088,1.5127,1.5352,1.541,1.541,1.541,1.541,1.541,1.541,1.541,1.541,1.541,1.541,1.541,1.541,1.541,1.541,1.541,1.541,1.5342,1.5137,1.5283,1.5176,1.4551,1.4853,1.5101,1.5026,1.6558,1.769,1.7903,1.8598,1.8869,1.8618,1.9359,1.956,1.8995,1.8983,1.8983,1.8983,1.848,1.8342,1.8606,1.8606,1.8581,1.8568,1.9145,1.9246,1.9007,1.956,1.9798,1.9798,1.9798,1.9579,1.915,1.7633,1.7231,1.7266,1.6127,1.5723,1.582,-0.0,-0.0,-0.0,-0.0,-0.0,-0.0,-0.0,-0.0,0.0267,0.1045,0.3245,0.4766,0.4991,0.5213,0.527,0.5142,0.5274,0.5415,0.5315,0.5345,0.5485,0.5771,0.5932,0.611,0.6376,0.6367,0.6551,0.6983,0.7679,0.7746,0.7249,0.8944,0.9343,0.8567,0.8996,0.915,0.9132,0.9468,0.9263,0.8857,0.9361,0.9256,0.8857,0.9361,1.0012,1.0661,1.1366,1.2236,1.3176,1.3782,1.4512,1.5078,1.4746,1.4707,1.4785,1.4785,1.4844,1.499,1.5322,1.541,1.541,1.541,1.541,1.541,1.541,1.541,1.541,1.541,1.541,1.5439,1.5527,1.5478,1.541,1.541,1.541,1.5381,1.5293,1.5283,1.5117,1.4697,1.4863,1.5048,1.5235,1.5717,1.6009,1.5824,1.7277,1.8174,1.8204,1.912,1.9447,1.8995,1.892,1.8858,1.8983,1.8242,1.7903,1.8028,1.8028,1.7865,1.7589,1.8455,1.8618,1.8254,1.9095,1.9522,1.9648,1.9761,1.9798,1.9695,1.834,1.7841,1.7677,1.6358,1.5748,1.5742,-0.0,-0.0,-0.0,-0.0,-0.0,-0.0,-0.0,-0.0,0.1212,0.4439,0.3472,0.3245,0.5124,0.5226,0.5148,0.5131,0.5274,0.5301,0.5162,0.5284,0.5291,0.4992,0.5634,0.5877,0.5605,0.5597,0.5699,0.5966,0.7008,0.7052,0.6198,0.886,0.9734,0.9112,0.9196,0.9092,0.8844,0.8871,0.8857,0.8811,0.8857,0.8857,0.8811,0.8857,0.9316,0.9961,1.0661,1.1259,1.1904,1.3114,1.3877,1.4248,1.4209,1.4463,1.4785,1.4785,1.5049,1.5361,1.54,1.541,1.541,1.541,1.541,1.541,1.541,1.541,1.541,1.541,1.541,1.5527,1.5988,1.5684,1.541,1.541,1.541,1.5283,1.4902,1.4844,1.4678,1.4248,1.3896,1.3567,1.3195,1.4051,1.4608,1.4563,1.6665,1.803,1.8182,1.8781,1.9033,1.8983,1.8543,1.853,1.902,1.7463,1.6936,1.7451,1.7451,1.7689,1.8129,1.8242,1.8254,1.8216,1.8317,1.8643,1.9083,1.961,1.9798,1.9695,1.8927,1.8608,1.8501,1.7677,1.6978,1.6389,-0.0,-0.0,-0.0,-0.0,-0.0,-0.0,-0.0,0.1832,0.3368,0.3763,0.3995,0.4418,0.5114,0.5176,0.5098,0.5009,0.506,0.507,0.5006,0.5064,0.5003,0.4792,0.507,0.5135,0.4901,0.4893,0.4979,0.5147,0.6724,0.707,0.6278,0.8882,0.99,0.9499,0.9263,0.9117,0.9058,0.8878,0.8804,0.8804,0.8804,0.8804,0.8804,0.8804,0.9211,0.9865,1.0568,1.1158,1.1855,1.2817,1.3317,1.3537,1.3671,1.3877,1.4072,1.4316,1.4512,1.4756,1.5273,1.541,1.541,1.541,1.541,1.541,1.541,1.541,1.541,1.541,1.541,1.5469,1.5644,1.5742,1.5723,1.5459,1.5635,1.5654,1.5215,1.5156,1.5,1.458,1.4375,1.4102,1.3672,1.4215,1.4826,1.5279,1.6917,1.7766,1.7557,1.8462,1.9171,1.9484,1.8656,1.8468,1.897,1.7702,1.6974,1.6861,1.6861,1.6974,1.72,1.7551,1.8078,1.8694,1.8694,1.8995,1.9459,1.9032,1.9221,1.9709,1.863,1.8166,1.8015,1.7688,1.6856,1.5921,-0.0,-0.0,-0.0,-0.0,-0.0,0.0342,0.1447,0.3748,0.4928,0.3687,0.4637,0.5328,0.5095,0.5034,0.503,0.4928,0.4918,0.4918,0.4918,0.4918,0.485,0.4697,0.4691,0.4619,0.4522,0.4519,0.4626,0.4962,0.6571,0.7106,0.6585,0.8655,0.9584,0.9546,0.9332,0.9137,0.9044,0.8891,0.8804,0.8804,0.8804,0.8804,0.8804,0.8804,0.9106,0.9614,1.0269,1.0813,1.1366,1.2246,1.2637,1.2794,1.3205,1.3408,1.3564,1.3857,1.4131,1.4453,1.5059,1.5312,1.541,1.541,1.541,1.541,1.541,1.541,1.541,1.541,1.541,1.5449,1.5576,1.5752,1.5771,1.5459,1.5674,1.5723,1.5293,1.5225,1.5068,1.4639,1.4482,1.4238,1.3809,1.415,1.4612,1.5182,1.6384,1.7035,1.6837,1.7992,1.887,1.9292,1.8571,1.8468,1.897,1.7765,1.6923,1.6522,1.6522,1.6522,1.6491,1.6936,1.7551,1.8244,1.8468,1.8744,1.9058,1.8631,1.8894,1.9496,1.8727,1.8236,1.7895,1.7895,1.6968,1.5806,-0.0,-0.0,-0.0,-0.0,-0.0,0.1204,0.4806,0.5395,0.5403,0.5382,0.5379,0.5315,0.5148,0.5006,0.4921,0.4918,0.4918,0.4918,0.4918,0.4918,0.485,0.4697,0.4691,0.4619,0.4522,0.4519,0.4842,0.5492,0.6585,0.7033,0.6919,0.7952,0.8698,0.919,0.9183,0.9024,0.8811,0.8804,0.8804,0.8804,0.8804,0.8804,0.8804,0.8804,0.8811,0.891,0.9562,0.9814,1.0012,1.1366,1.1823,1.1931,1.2676,1.3174,1.3506,1.3516,1.4121,1.4775,1.4785,1.5098,1.541,1.541,1.541,1.541,1.541,1.541,1.541,1.541,1.541,1.5537,1.6037,1.5703,1.542,1.541,1.542,1.5273,1.4853,1.4795,1.4629,1.4136,1.3779,1.3359,1.2939,1.3271,1.3525,1.3525,1.4594,1.5504,1.6177,1.7303,1.7993,1.813,1.8178,1.8468,1.897,1.7363,1.6522,1.6522,1.6522,1.6522,1.6522,1.6522,1.6534,1.6572,1.7149,1.74,1.7501,1.8581,1.8983,1.9033,1.9597,1.9307,1.8715,1.8715,1.7743,1.6492,-0.0,-0.0,0.0876,0.3767,0.431,0.4101,0.3622,0.4688,0.5576,0.5393,0.5372,0.5308,0.5148,0.5003,0.4918,0.4918,0.4728,0.4609,0.4609,0.4609,0.4585,0.4594,0.4591,0.4567,0.4519,0.4519,0.4842,0.5487,0.658,0.7599,0.8503,0.8814,0.8935,0.8945,0.8945,0.8891,0.8804,0.8804,0.8804,0.8804,0.8804,0.8804,0.8804,0.8804,0.8804,0.891,0.9562,0.9814,0.9909,1.0813,1.1416,1.1814,1.208,1.2596,1.3135,1.3418,1.3701,1.4043,1.4629,1.4883,1.5049,1.5342,1.541,1.541,1.541,1.541,1.541,1.541,1.541,1.5547,1.6037,1.5947,1.5859,1.5859,1.5859,1.5703,1.5273,1.4971,1.4629,1.4136,1.376,1.334,1.292,1.3262,1.3623,1.3916,1.481,1.5379,1.5526,1.6765,1.7852,1.8622,1.8005,1.8091,1.897,1.7363,1.6522,1.6522,1.6522,1.6522,1.6491,1.6923,1.7099,1.7112,1.73,1.7601,1.794,1.7915,1.8129,1.8432,1.8179,1.7831,1.7395,1.7512,1.6797,1.5806,-0.0,0.1254,0.3229,0.5813,0.6173,0.5607,0.4055,0.4818,0.5555,0.5386,0.5432,0.5325,0.5226,0.5087,0.4955,0.4843,0.4606,0.4519,0.4519,0.4519,0.4519,0.4519,0.4519,0.4519,0.4519,0.4519,0.4952,0.5923,0.7164,0.819,0.9024,0.9024,0.8978,0.8804,0.8804,0.8804,0.8804,0.8804,0.8804,0.8804,0.8804,0.8804,0.8804,0.8804,0.8804,0.8857,0.9256,0.9562,0.9865,1.0261,1.1065,1.1814,1.1814,1.2295,1.293,1.3193,1.3379,1.3623,1.416,1.4541,1.4844,1.5107,1.5293,1.541,1.541,1.541,1.541,1.541,1.541,1.5498,1.5762,1.582,1.582,1.582,1.582,1.5664,1.5234,1.4951,1.4629,1.4136,1.376,1.3408,1.3145,1.3213,1.3379,1.3643,1.4307,1.4671,1.4563,1.628,1.7345,1.7496,1.7351,1.7503,1.8031,1.7003,1.6522,1.6522,1.6522,1.6522,1.6522,1.6886,1.7049,1.7049,1.7049,1.725,1.7564,1.7438,1.7439,1.7515,1.7508,1.7088,1.647,1.6534,1.597,1.5213,0.0454,0.348,0.6087,0.6247,0.6006,0.5798,0.5689,0.552,0.5396,0.5432,0.5428,0.5428,0.5428,0.5223,0.502,0.4745,0.4572,0.4529,0.4519,0.4519,0.4519,0.4519,0.4519,0.4519,0.4519,0.4519,0.5171,0.6588,0.8103,0.8804,0.8804,0.8804,0.8804,0.8804,0.8804,0.8804,0.8804,0.8804,0.8804,0.8804,0.8804,0.8804,0.8804,0.8804,0.8804,0.8804,0.8804,0.9211,0.971,0.971,1.061,1.1665,1.1715,1.2236,1.2822,1.2881,1.3164,1.3467,1.3496,1.4092,1.4707,1.4766,1.5098,1.541,1.541,1.541,1.541,1.541,1.541,1.542,1.5449,1.543,1.542,1.5449,1.543,1.5273,1.4883,1.4805,1.4639,1.4175,1.3809,1.3545,1.3506,1.3154,1.293,1.293,1.334,1.3594,1.3594,1.5838,1.6534,1.5226,1.6409,1.686,1.6419,1.6465,1.6522,1.6522,1.6522,1.6522,1.6522,1.6522,1.6522,1.6522,1.6522,1.6522,1.6559,1.7137,1.6995,1.6513,1.7381,1.7013,1.5881,1.5806,1.5359,1.4717,0.4806,0.4325,0.4387,0.6051,0.6227,0.6095,0.5847,0.5749,0.562,0.5459,0.5428,0.5428,0.5428,0.5223,0.5101,0.5033,0.4789,0.4585,0.4525,0.4519,0.4519,0.4519,0.4519,0.4519,0.4519,0.4519,0.5171,0.6588,0.8103,0.8804,0.8804,0.8804,0.8804,0.8804,0.8804,0.8804,0.8804,0.8804,0.8804,0.8804,0.8804,0.8804,0.8804,0.8804,0.8804,0.8804,0.8804,0.891,0.9061,0.9061,0.9562,1.0364,1.0864,1.1516,1.2187,1.2715,1.2949,1.3096,1.3418,1.3652,1.3965,1.4619,1.5098,1.541,1.541,1.541,1.541,1.541,1.541,1.5508,1.585,1.5635,1.5518,1.5859,1.5625,1.5381,1.5273,1.498,1.4746,1.4648,1.4248,1.3857,1.3535,1.3418,1.3359,1.3359,1.4053,1.4482,1.4482,1.5654,1.6029,1.5226,1.6067,1.6491,1.6407,1.6465,1.6522,1.6522,1.6522,1.6522,1.6522,1.6522,1.6522,1.6522,1.6522,1.6522,1.6559,1.7137,1.7023,1.6453,1.6173,1.6058,1.5829,1.4522,1.437,1.4717,0.63,0.5375,0.4929,0.6119,0.6217,0.6105,0.5932,0.5789,0.5647,0.5488,0.5406,0.5428,0.5428,0.5287,0.5206,0.5135,0.4925,0.4728,0.4575,0.4565,0.4535,0.4522,0.4519,0.4519,0.4519,0.4519,0.5171,0.6588,0.8103,0.8804,0.8804,0.8804,0.8804,0.8804,0.8804,0.8804,0.8804,0.8804,0.8804,0.8804,0.8804,0.8804,0.8804,0.8804,0.8804,0.8804,0.8804,0.8804,0.8804,0.8804,0.9263,0.9917,1.0568,1.1266,1.1922,1.2666,1.2881,1.293,1.3164,1.3359,1.3711,1.457,1.5098,1.541,1.541,1.541,1.541,1.541,1.541,1.5488,1.5723,1.5566,1.5488,1.5723,1.5566,1.5342,1.5146,1.4932,1.4785,1.4785,1.4404,1.4121,1.4092,1.374,1.3506,1.3506,1.4111,1.4492,1.4492,1.5117,1.5535,1.5532,1.5959,1.6278,1.6419,1.6465,1.6522,1.6522,1.6522,1.6522,1.6522,1.6522,1.6522,1.6522,1.6522,1.6522,1.6491,1.6571,1.6244,1.5614,1.5188,1.4956,1.4788,1.4059,1.4092,1.4453,0.6322,0.6298,0.6274,0.6274,0.6159,0.6057,0.6034,0.5796,0.5613,0.5593,0.5457,0.5428,0.5428,0.5428,0.5308,0.5176,0.5033,0.4877,0.4701,0.467,0.4599,0.4522,0.4519,0.4519,0.4519,0.4625,0.5281,0.6588,0.7943,0.8699,0.8804,0.8804,0.8804,0.8804,0.8804,0.8804,0.8804,0.8804,0.8804,0.8804,0.8804,0.8804,0.8804,0.8804,0.8804,0.8804,0.8804,0.8804,0.8804,0.8804,0.9159,0.9762,1.0415,1.1116,1.1774,1.251,1.2822,1.2881,1.2881,1.3232,1.3779,1.4502,1.5049,1.541,1.541,1.541,1.541,1.541,1.541,1.541,1.541,1.541,1.543,1.5498,1.5459,1.5312,1.5019,1.4922,1.4883,1.4883,1.4551,1.4424,1.4658,1.4023,1.3574,1.3516,1.3896,1.4107,1.4175,1.4648,1.5255,1.5995,1.5812,1.5905,1.63,1.6429,1.6522,1.6522,1.6522,1.6559,1.6647,1.6559,1.6572,1.6647,1.6559,1.6466,1.6337,1.582,1.5231,1.4651,1.443,1.4012,1.3698,1.3906,1.4029,1.4077,0.6288,0.6274,0.6264,0.6264,0.6244,0.6179,0.6051,0.5881,0.5725,0.5606,0.5457,0.5428,0.5428,0.5428,0.5418,0.5328,0.5186,0.4982,0.4707,0.4568,0.4543,0.4519,0.4519,0.4519,0.4519,0.5054,0.5764,0.6588,0.7456,0.8209,0.8804,0.8804,0.8804,0.8804,0.8804,0.8804,0.8804,0.8804,0.8804,0.8804,0.8804,0.8804,0.8804,0.8804,0.8804,0.8804,0.8804,0.8804,0.8804,0.8804,0.8857,0.9061,0.9762,1.0415,1.1065,1.1774,1.2403,1.2881,1.2881,1.3447,1.4009,1.4145,1.4824,1.541,1.541,1.541,1.541,1.541,1.541,1.541,1.541,1.541,1.5527,1.5908,1.5654,1.5518,1.582,1.5547,1.5312,1.5312,1.5254,1.4951,1.4243,1.4111,1.3887,1.3535,1.3896,1.4297,1.4668,1.5088,1.5648,1.6377,1.5258,1.4993,1.5706,1.6231,1.6522,1.6522,1.6522,1.6773,1.7237,1.6735,1.6785,1.7212,1.6735,1.6194,1.572,1.5632,1.5231,1.4663,1.4078,1.4018,1.4223,1.3769,1.3828,1.4077,0.6152,0.6078,0.604,0.6122,0.6067,0.6044,0.6139,0.5888,0.5691,0.5701,0.5504,0.5428,0.5428,0.5428,0.5428,0.5428,0.5152,0.4958,0.4823,0.467,0.4548,0.4522,0.4519,0.4519,0.4519,0.5164,0.5651,0.5982,0.6745,0.7509,0.8209,0.8209,0.8427,0.8804,0.8804,0.8804,0.8804,0.8804,0.8804,0.8804,0.8804,0.8804,0.8804,0.8804,0.8804,0.8804,0.8804,0.8804,0.8804,0.8804,0.8804,0.891,0.9562,1.0261,1.0914,1.1616,1.2344,1.2881,1.2881,1.333,1.3848,1.4029,1.4609,1.5195,1.5654,1.5586,1.5478,1.5713,1.5576,1.541,1.541,1.541,1.5478,1.5684,1.5537,1.5488,1.5684,1.5537,1.541,1.541,1.541,1.5254,1.4863,1.4619,1.4404,1.4209,1.4375,1.457,1.4775,1.5186,1.5584,1.5921,1.5584,1.5594,1.5948,1.6021,1.6194,1.6522,1.6522,1.666,1.6911,1.6635,1.666,1.6898,1.6262,1.5864,1.5531,1.4505,1.4157,1.4143,1.312,1.3214,1.3912,1.3864,1.4121,1.4482,0.5989,0.5888,0.5837,0.5956,0.5878,0.5881,0.6118,0.5833,0.563,0.5739,0.5525,0.5428,0.5428,0.5428,0.5415,0.5311,0.507,0.4904,0.4867,0.4721,0.4585,0.4522,0.4519,0.4519,0.4519,0.5003,0.5324,0.5487,0.6091,0.6799,0.7723,0.7723,0.8103,0.8804,0.8804,0.8804,0.8804,0.8804,0.8804,0.8804,0.8804,0.8804,0.8804,0.8804,0.8804,0.8804,0.8804,0.8804,0.8804,0.8804,0.8804,0.891,0.9562,1.0261,1.0914,1.1616,1.2344,1.2881,1.2881,1.3184,1.3613,1.398,1.4463,1.498,1.5742,1.5654,1.5508,1.584,1.5644,1.541,1.541,1.541,1.5449,1.5547,1.5478,1.5488,1.5684,1.5547,1.5449,1.5557,1.5469,1.5371,1.5273,1.4971,1.4785,1.4785,1.4785,1.4824,1.4922,1.5234,1.541,1.541,1.5743,1.5903,1.5843,1.5544,1.5688,1.6281,1.6151,1.6312,1.671,1.6256,1.6225,1.6423,1.5691,1.5232,1.4948,1.3481,1.3076,1.3234,1.2177,1.228,1.303,1.3537,1.3866,1.4194,0.582,0.581,0.5803,0.5817,0.581,0.581,0.583,0.5694,0.5593,0.5603,0.5464,0.5428,0.5428,0.5428,0.5304,0.5162,0.5006,0.486,0.4718,0.4565,0.4529,0.4519,0.4519,0.4519,0.4519,0.4574,0.4897,0.5487,0.5542,0.6303,0.7723,0.7723,0.8103,0.8804,0.8804,0.8804,0.8804,0.8804,0.8804,0.8804,0.8804,0.8804,0.8804,0.8804,0.8804,0.8804,0.8804,0.8804,0.8804,0.8804,0.8804,0.891,0.9562,1.0261,1.0914,1.1616,1.2344,1.2881,1.2881,1.3184,1.3613,1.398,1.4463,1.4902,1.5352,1.543,1.542,1.5449,1.543,1.541,1.541,1.541,1.5537,1.5947,1.5674,1.5693,1.6523,1.5928,1.5557,1.6027,1.5654,1.5254,1.4873,1.4805,1.4785,1.4785,1.4785,1.4951,1.5342,1.5391,1.541,1.541,1.529,1.4944,1.4549,1.4711,1.5062,1.5676,1.5107,1.5692,1.73,1.5611,1.5406,1.6335,1.5257,1.4253,1.339,1.3239,1.265,1.1867,1.1757,1.163,1.1556,1.2289,1.2339,1.2315,0.5671,0.5593,0.5559,0.5654,0.5511,0.545,0.564,0.5389,0.5206,0.5294,0.5254,0.5182,0.5098,0.5165,0.5159,0.5013,0.4863,0.4752,0.4694,0.4548,0.4519,0.4519,0.4519,0.4519,0.4519,0.4519,0.4625,0.4897,0.4897,0.5382,0.6357,0.6799,0.7396,0.8156,0.8593,0.8804,0.8804,0.8804,0.8804,0.8804,0.8804,0.8804,0.8804,0.8804,0.8804,0.8804,0.8804,0.8804,0.8804,0.8804,0.8804,0.8857,0.9113,0.9917,1.1015,1.2147,1.2666,1.2881,1.2881,1.3184,1.3613,1.398,1.4463,1.4961,1.5654,1.5605,1.5488,1.5762,1.5596,1.541,1.541,1.541,1.5469,1.5635,1.5752,1.5937,1.6269,1.6025,1.5879,1.6105,1.5684,1.5352,1.5186,1.5176,1.5176,1.5176,1.5176,1.5244,1.54,1.541,1.5293,1.5029,1.4929,1.4986,1.5216,1.5023,1.5121,1.5416,1.5193,1.5324,1.5682,1.5017,1.4937,1.5291,1.4046,1.3399,1.3084,1.1904,1.151,1.1671,1.123,1.1462,1.2036,1.2315,1.2463,1.2655,0.5389,0.5294,0.5254,0.5362,0.5206,0.5135,0.5345,0.5118,0.4955,0.505,0.5064,0.5026,0.4928,0.5006,0.5006,0.486,0.4752,0.467,0.4623,0.4577,0.4519,0.4519,0.4519,0.4519,0.4519,0.4519,0.4519,0.4519,0.4519,0.4842,0.5542,0.6258,0.702,0.7723,0.848,0.8804,0.8804,0.8804,0.8804,0.8804,0.8804,0.8804,0.8804,0.8804,0.8804,0.8804,0.8804,0.8804,0.8804,0.8804,0.8804,0.8857,0.9061,1.0012,1.1316,1.2246,1.2725,1.2881,1.2881,1.3184,1.3613,1.398,1.4355,1.4805,1.5664,1.5625,1.5498,1.5791,1.5615,1.541,1.541,1.541,1.541,1.541,1.5664,1.5957,1.623,1.6152,1.6174,1.626,1.5889,1.5557,1.542,1.541,1.541,1.541,1.541,1.541,1.541,1.5283,1.5078,1.4795,1.4785,1.4998,1.543,1.4991,1.4966,1.5219,1.492,1.4779,1.4875,1.4359,1.4247,1.4329,1.3062,1.2513,1.2477,1.0931,1.0604,1.1012,1.0572,1.0885,1.1569,1.1678,1.1856,1.2095,0.4948,0.4918,0.4918,0.4918,0.4918,0.4918,0.4918,0.4914,0.4914,0.4914,0.4918,0.4918,0.4914,0.4918,0.4857,0.4704,0.4687,0.4623,0.4529,0.4519,0.4519,0.4519,0.4519,0.4519,0.4519,0.4519,0.4519,0.4519,0.4519,0.4842,0.5487,0.6253,0.6966,0.7723,0.848,0.8804,0.8804,0.8804,0.8804,0.8804,0.8804,0.8804,0.8804,0.8804,0.8804,0.8804,0.8804,0.8804,0.8804,0.8804,0.8804,0.891,0.9562,1.0712,1.1814,1.1814,1.2344,1.2881,1.2881,1.3184,1.3603,1.397,1.4077,1.4301,1.5215,1.541,1.541,1.541,1.541,1.541,1.541,1.541,1.541,1.541,1.541,1.5723,1.6539,1.6338,1.623,1.668,1.6328,1.5889,1.5459,1.541,1.541,1.541,1.541,1.541,1.541,1.501,1.4785,1.4775,1.4785,1.4785,1.4775,1.4355,1.446,1.5081,1.4021,1.4133,1.5211,1.3634,1.319,1.3721,1.2355,1.1583,1.126,1.0578,1.0072,0.9686,0.9686,0.9686,0.9719,1.0007,1.0114,1.0275,0.4948,0.4918,0.4918,0.4918,0.483,0.4758,0.4758,0.4667,0.4599,0.4599,0.4694,0.4718,0.4609,0.4694,0.4697,0.4545,0.4587,0.4567,0.4522,0.4519,0.4519,0.4519,0.4519,0.4519,0.4519,0.4519,0.4519,0.4519,0.4519,0.4625,0.4842,0.6041,0.6696,0.6966,0.8262,0.8804,0.8804,0.8804,0.8804,0.8804,0.8804,0.8804,0.8804,0.8804,0.8804,0.8804,0.8804,0.8804,0.8804,0.8804,0.8804,0.891,0.9562,1.0415,1.1216,1.1665,1.2344,1.2881,1.2881,1.2969,1.3174,1.3584,1.415,1.4658,1.4912,1.5205,1.541,1.541,1.541,1.541,1.541,1.541,1.541,1.541,1.5664,1.5957,1.6221,1.6213,1.6113,1.625,1.5869,1.5557,1.542,1.541,1.5293,1.5,1.4971,1.4971,1.4971,1.4853,1.4512,1.3906,1.4473,1.4273,1.319,1.4417,1.4704,1.4063,1.3728,1.3268,1.277,1.2096,1.1878,1.1997,1.0877,1.0457,1.0524,0.9831,0.9574,0.9686,0.9686,0.9686,0.9719,1.0007,1.0114,1.016,0.4779,0.4738,0.4738,0.4738,0.4663,0.4602,0.4602,0.4577,0.4519,0.4519,0.4545,0.4565,0.4529,0.4545,0.4562,0.4525,0.4519,0.4519,0.4519,0.4519,0.4519,0.4519,0.4519,0.4519,0.4519,0.4519,0.4519,0.4519,0.4519,0.4519,0.4515,0.5937,0.6588,0.6642,0.8156,0.8804,0.8804,0.8804,0.8804,0.8804,0.8804,0.8804,0.8804,0.8804,0.8804,0.8804,0.8804,0.8804,0.8804,0.8804,0.8804,0.891,0.9562,1.0261,1.0914,1.1616,1.2344,1.2881,1.2881,1.2881,1.2939,1.3193,1.3769,1.4365,1.4707,1.498,1.5215,1.5381,1.5283,1.5215,1.5381,1.5273,1.5215,1.5381,1.5635,1.5869,1.6096,1.6125,1.6125,1.6125,1.5684,1.5352,1.5176,1.501,1.4795,1.4551,1.4521,1.4521,1.4521,1.4138,1.366,1.3105,1.344,1.3204,1.2298,1.3593,1.392,1.3226,1.3002,1.2513,1.1767,1.1469,1.1231,1.1031,1.0156,0.9933,1.0059,0.9329,0.9172,0.9339,0.9339,0.9406,0.9546,0.984,1.002,1.016,0.4545,0.4539,0.4532,0.4519,0.4519,0.4519,0.4519,0.4519,0.4519,0.4519,0.4519,0.4519,0.4519,0.4519,0.4519,0.4519,0.4519,0.4519,0.4519,0.4519,0.4519,0.4519,0.4519,0.4519,0.4519,0.4519,0.4519,0.4519,0.4519,0.4519,0.4515,0.5878,0.6534,0.6642,0.8049,0.8752,0.8804,0.8804,0.8804,0.8804,0.8804,0.8804,0.8804,0.8804,0.8804,0.8804,0.8804,0.8804,0.8804,0.8804,0.8804,0.891,0.951,1.021,1.0914,1.1516,1.2295,1.2881,1.2881,1.2881,1.2891,1.293,1.3193,1.3662,1.4482,1.4697,1.4834,1.5215,1.499,1.4853,1.5283,1.5039,1.4922,1.5342,1.541,1.5547,1.5947,1.6066,1.5986,1.6017,1.5596,1.5186,1.471,1.4218,1.3985,1.4077,1.4024,1.397,1.397,1.3053,1.2474,1.2402,1.2074,1.1855,1.1734,1.2266,1.2489,1.2513,1.2069,1.1832,1.1704,1.1309,1.0954,1.0608,0.9976,0.971,0.9666,0.9061,0.8804,0.8804,0.8804,0.8971,0.9183,0.9566,0.9846,1.012,0.4701,0.4643,0.4602,0.4539,0.4519,0.4519,0.4519,0.4519,0.4519,0.4519,0.4519,0.4519,0.4519,0.4519,0.4519,0.4519,0.4519,0.4519,0.4519,0.4519,0.4519,0.4519,0.4519,0.4519,0.4519,0.4519,0.4519,0.4519,0.4519,0.4519,0.4515,0.5328,0.6036,0.6642,0.7557,0.8262,0.8804,0.8804,0.8804,0.8804,0.8804,0.8804,0.8804,0.8804,0.8804,0.8804,0.8804,0.8804,0.8804,0.8804,0.8804,0.8804,0.8956,0.9814,1.0813,1.0965,1.1891,1.2881,1.2881,1.2881,1.2959,1.3291,1.3193,1.3154,1.3662,1.4043,1.4297,1.433,1.4282,1.4404,1.4844,1.4844,1.4922,1.5342,1.541,1.5449,1.5537,1.5557,1.543,1.5107,1.498,1.4579,1.3534,1.3074,1.3193,1.4058,1.353,1.3141,1.3141,1.269,1.2145,1.1604,1.2066,1.1736,1.0631,1.1276,1.1705,1.1966,1.1621,1.1115,1.0471,1.017,0.9855,0.9554,0.9157,0.9008,0.9008,0.8857,0.8804,0.8804,0.8804,0.8844,0.8965,0.9492,0.9726,0.9794,0.4748,0.4691,0.4643,0.4543,0.4519,0.4519,0.4519,0.4519,0.4519,0.4519,0.4519,0.4519,0.4519,0.4519,0.4519,0.4519,0.4519,0.4519,0.4519,0.4519,0.4519,0.4519,0.4519,0.4519,0.4519,0.4519,0.4519,0.4519,0.4519,0.4519,0.4519,0.5164,0.5873,0.6642,0.7343,0.8103,0.8804,0.8804,0.8804,0.8804,0.8804,0.8804,0.8804,0.8804,0.8804,0.8804,0.8804,0.8804,0.8804,0.8804,0.8804,0.8857,0.9159,0.9762,1.0466,1.1065,1.1783,1.2452,1.2822,1.2881,1.293,1.3154,1.3047,1.3047,1.3662,1.3818,1.3945,1.4365,1.4277,1.4326,1.4961,1.4922,1.4922,1.5342,1.541,1.541,1.541,1.5234,1.5029,1.4814,1.4424,1.3729,1.2595,1.2007,1.2024,1.2964,1.2467,1.226,1.2592,1.1954,1.1404,1.1036,1.077,1.0519,1.0222,1.0157,1.0465,1.1219,1.0756,1.0307,0.99,0.9606,0.9312,0.8971,0.8491,0.8262,0.8262,0.7889,0.7723,0.7723,0.7723,0.7723,0.7842,0.8826,0.9557,1.0019,0.4745,0.4691,0.4643,0.4543,0.4519,0.4519,0.4519,0.4519,0.4519,0.4519,0.4519,0.4519,0.4519,0.4519,0.4519,0.4519,0.4519,0.4519,0.4519,0.4519,0.4519,0.4519,0.4519,0.4519,0.4519,0.4519,0.4519,0.4519,0.4519,0.4519,0.4519,0.5164,0.5873,0.6642,0.7343,0.8103,0.8804,0.8804,0.8804,0.8804,0.8804,0.8804,0.8804,0.8804,0.8804,0.8804,0.8804,0.8804,0.8804,0.8804,0.8804,0.891,0.9465,0.9718,1.0064,1.1266,1.1715,1.1972,1.2715,1.2881,1.29,1.2969,1.293,1.3105,1.3945,1.3809,1.3711,1.4424,1.4336,1.4375,1.5156,1.5019,1.4922,1.5342,1.541,1.541,1.541,1.5049,1.4756,1.4687,1.3695,1.2669,1.1692,1.1015,1.0939,1.1663,1.14,1.1436,1.2049,1.1182,1.0596,1.0357,0.9392,0.9156,0.9675,0.8971,0.9226,1.0358,0.9827,0.9609,0.9673,0.9379,0.9078,0.8752,0.8049,0.7723,0.767,0.6912,0.6588,0.6588,0.6588,0.6608,0.6809,0.8132,0.9474,1.0498,0.4724,0.4691,0.4643,0.4543,0.4519,0.4519,0.4519,0.4519,0.4519,0.4519,0.4519,0.4519,0.4519,0.4519,0.4519,0.4519,0.4519,0.4519,0.4519,0.4519,0.4519,0.4519,0.4519,0.4519,0.4519,0.4519,0.4519,0.4519,0.4519,0.4519,0.4519,0.5164,0.5873,0.6642,0.7343,0.8103,0.8804,0.8804,0.8804,0.8804,0.8804,0.8804,0.8804,0.8804,0.8804,0.8804,0.8804,0.8804,0.8804,0.8804,0.8804,0.8804,0.891,0.9309,0.9969,1.0712,1.1366,1.1972,1.2715,1.2881,1.2969,1.333,1.3154,1.3105,1.3945,1.3809,1.3545,1.3662,1.3926,1.4287,1.4775,1.4824,1.4922,1.5342,1.541,1.541,1.541,1.5049,1.4648,1.4268,1.2391,1.1124,1.0973,1.032,1.0335,1.132,1.0973,1.0902,1.1246,1.0873,1.0122,0.9114,0.9199,0.8788,0.7876,0.8006,0.8581,0.946,0.908,0.9184,0.9673,0.9379,0.9078,0.8752,0.8049,0.7723,0.767,0.6912,0.6588,0.6588,0.6588,0.6704,0.7028,0.8317,0.9569,1.0498,0.4721,0.4691,0.4643,0.4543,0.4519,0.4519,0.4519,0.4519,0.4519,0.4519,0.4519,0.4519,0.4519,0.4519,0.4519,0.4519,0.4519,0.4519,0.4519,0.4519,0.4519,0.4519,0.4519,0.4519,0.4519,0.4519,0.4519,0.4519,0.4519,0.4519,0.4519,0.5164,0.5873,0.6642,0.7343,0.8103,0.8804,0.8804,0.8804,0.8804,0.8804,0.8804,0.8804,0.8804,0.8804,0.8804,0.8804,0.8804,0.8804,0.8804,0.8804,0.8804,0.8804,0.9008,0.9465,1.0517,1.1015,1.1475,1.2618,1.2881,1.2988,1.3408,1.3369,1.3389,1.3941,1.418,1.4219,1.4219,1.4375,1.4629,1.5059,1.5137,1.5195,1.5381,1.541,1.541,1.541,1.4844,1.3999,1.2945,1.1626,1.0813,1.0813,1.021,1.0202,1.1227,1.094,1.082,1.1086,1.0753,1.0368,0.985,0.9006,0.8564,0.8524,0.7718,0.7962,0.9268,0.8992,0.9095,0.9673,0.9379,0.8799,0.8156,0.7396,0.6853,0.6411,0.5714,0.5445,0.5445,0.5445,0.6054,0.712,0.7801,0.9004,1.0272]},{"header":{"parameterUnit":"m.s-1","parameterCategory":1,"la1":30.6,"la2":28.766,"lo1":-90.7593,"lo2":-88.6598,"dy":0.0162,"dx":0.0183,"nx":116,"ny":114,"refTime":"2023-07-16T12:00:00:Z","depth":0,"parameterNumber":3,"parameterNumberName":"V-component_of_WINDS"},"data":[0.0,0.0,0.0,0.0,0.0,0.0,0.0,0.0,0.0,0.0,0.0,0.0,0.0,0.0,0.0,0.0,0.0,0.0,0.0,0.0,0.0,0.0,0.0,0.0,0.0,0.0,0.0,0.0,0.0,0.0,0.0,0.0,0.0,0.0,0.0,0.0,0.0,0.0,0.0,0.0,0.0,0.0,0.0,0.0,0.0,0.0,0.0,0.0,0.0,0.0,0.0,0.0,0.0,0.0,0.0,0.0,0.0,0.0,0.0,0.0,0.0,0.0,0.0,0.0,0.0,0.0,0.0,0.0,0.0,0.0,0.0,0.0,0.0,0.0,0.0,0.0,0.0,0.0,0.0,0.0,0.0,0.0,0.0,0.0,0.0,0.0,0.0,0.0,0.0,0.0,0.0,0.0,0.0,0.0,0.0,0.0,0.0,0.0,0.0,0.0,0.0,0.0,0.0,0.0,0.0,0.0,0.0,0.0,0.0,0.0,0.0,0.0,0.0,0.0,0.0,0.0,0.0,0.0,0.0,0.0,0.0,0.0,0.0,0.0,0.0,0.0,0.0,0.0,0.0,0.0,0.0,0.0,0.0,0.0,0.0,0.0,0.0,0.0,0.0,0.0,0.0,0.0,0.0,0.0,0.0,0.0,0.0,0.0,0.0,0.0,0.0,0.0,0.0,0.0,0.0,0.0,0.0,0.0,0.0,0.0,0.0,0.0,0.0,0.0,0.0,0.0,0.0,0.0,0.0,0.0,0.0,0.0,0.0,0.0,0.0,0.0,0.0,0.0,0.0,0.0,0.0,0.0,0.0,0.0,0.0,0.0,0.0,0.0,0.0,0.0,0.0,0.0,0.0,0.0,0.0,0.0,0.0,0.0,0.0,0.0,0.0,0.0,0.0,0.0,0.0,0.0,0.0,0.0,0.0,0.0,0.0,0.0,0.0,0.0,0.0,0.0,0.0,0.0,0.0,0.0,0.0,0.0,0.0,0.0,0.0,0.0,0.0,0.0,0.0,0.0,0.0,0.0,0.0,0.0,0.0,0.0,0.0,0.0,0.0,0.0,0.0,0.0,0.0,0.0,0.0,0.0,0.0,0.0,0.0,0.0,0.0,0.0,0.0,0.0,0.0,0.0,0.0,0.0,0.0,0.0,0.0,0.0,0.0,0.0,0.0,0.0,0.0,0.0,0.0,0.0,0.0,0.0,0.0,0.0,0.0,0.0,0.0,0.0,0.0,0.0,0.0,0.0,0.0,0.0,0.0,0.0,0.0,0.0,0.0,0.0,0.0,0.0,0.0,0.0,0.0,0.0,0.0,0.0,0.0,0.0,0.0,0.0,0.0,0.0,0.0,0.0,0.0,0.0,0.0,0.0,0.0,0.0,0.0,0.0,0.0,0.0,0.0,0.0,0.0,0.0,0.0,0.0,0.0,0.0,0.0,0.0,0.0,0.0,0.0,0.0,0.0,0.0,0.0,0.0,0.0,0.0,0.0,0.0,0.0,0.0,0.0,0.0,0.0,0.0,0.0,0.0,0.0,0.0,0.0,0.0,0.0,0.0,0.0,0.0,0.0,0.0,0.0,0.0,0.0,0.0,0.0,0.0,0.0,0.0,0.0,0.0,0.0,0.0,0.0,0.0,0.0,0.0,0.0,0.0,0.0,0.0,0.0,0.0,0.0,0.0,0.0,0.0,0.0,0.0,0.0,0.0,0.0,0.0,0.0,0.0,0.0,0.0,0.0,0.0,0.0,0.0,0.0,0.0,0.0,0.0,0.0,0.0,0.0,0.0,0.0,0.0,0.0,0.0,0.0,0.0,0.0,0.0,0.0,0.0,0.0,0.0,0.0,0.0,0.0,0.0,0.0,0.0,0.0,0.0,0.0,0.0,0.0,0.0,0.0,0.0,0.0,0.0,0.0,0.0,0.0,0.0,0.0,0.0,0.0,0.0,0.0,0.0,0.0,0.0,0.0,0.0,0.0,0.0,0.0,0.0,0.0,0.0,0.0,0.0,0.0,0.0,0.0,0.0,0.0,0.0,0.0,0.0,0.0,0.0,0.0,0.0,0.0,0.0,0.0,0.0,0.0,0.0,0.0,0.0,0.0,0.0,0.0,0.0,0.0,0.0,0.0,0.0,0.0,0.0,0.0,0.0,0.0,0.0,0.0,0.0,0.0,0.0,0.0,0.0,0.0,0.0,0.0,0.0,0.0,0.0,0.0,0.0,0.0,0.0,0.0,0.0,0.0,0.0,0.0,0.0,0.0,0.0,0.0,0.0,0.0,0.0,0.0,0.0,0.0,0.0,0.0,0.0,0.0,0.0,0.0,0.0,0.0,0.0,0.0,0.0,0.0,0.0,0.0,0.0,0.0,0.0,0.0,0.0,0.0,0.0,0.0,0.0,0.0,0.0,0.0,0.0,0.0,0.0,0.0,0.0,0.0,0.0,0.0,0.0,0.0,0.0,0.0,0.0,0.0,0.0,0.0,0.0,0.0,0.0,0.0,0.0,0.0,0.0,0.0,0.0,0.0,0.0,0.0,0.0,0.0,0.0,0.0,0.0,0.0,0.0,0.0,0.0,0.0,0.0,0.0,0.0,0.0,0.0,0.0,0.0,0.0,0.0,0.0,0.0,0.0,0.0,0.0,0.0,0.0,0.0,0.0,0.0,0.0,0.0,0.0,0.0,0.0,0.0,0.0,0.0,0.0,0.0,0.0,0.0,0.0,0.0,0.0,0.0,0.0,0.0,0.0,0.0,0.0,0.0,0.0,0.0,0.0,0.0,0.0,0.0,0.0,0.0,0.0,0.0,0.0,0.0,0.0,0.0,0.0,0.0,0.0,0.0,0.0,0.0,0.0,0.0,0.0,0.0,0.0,0.0,0.0,0.0,0.0,0.0,0.0,0.0,0.0,0.0,0.0,0.0,0.0,0.0,0.0,0.0,0.0,0.0,0.0,0.0,0.0,0.0,0.0,0.0,0.0,0.0,0.0,0.0,0.0,0.0,0.0,0.0,0.0,0.0,0.0,0.0,0.0,0.0,0.0,0.0,0.0,0.0,0.0,0.0,0.0,0.0,0.0,0.0,0.0,0.0,0.0,0.0,0.0,0.0,0.0,0.0,0.0,0.0,0.0,0.0,0.0,0.0,0.0,0.0,0.0,0.0,0.0,0.0,0.0,0.0,0.0,0.0,0.0,0.0,0.0,0.0,0.0,0.0,0.0,0.0,0.0,0.0,0.0,0.0,0.0,0.0,0.0,0.0,0.0,0.0,0.0,0.0,0.0,0.0,0.0,0.0,0.0,0.0,0.0,0.0,0.0,0.0,0.0,0.0,0.0,0.0,0.0,0.0,0.0,0.0,0.0,0.0,0.0,0.0,0.0,0.0,0.0,0.0,0.0,0.0,0.0,0.0,0.0,0.0,0.0,0.0,0.0,0.0,0.0,0.0,0.0,0.0,0.0,0.0,0.0,0.0,0.0,0.0,0.0,0.0,0.0,0.0,0.0,0.0,0.0,0.0,0.0,0.0,0.0,0.0,0.0,0.0,0.0,0.0,0.0,0.0,0.0,0.0,0.0,0.0,0.0,0.0,0.0,0.0,0.0,0.0,0.0,0.0,0.0,0.0,0.0,0.0,0.0,0.0,0.0,0.0,0.0,0.0,0.0,0.0,0.0,0.0,0.0,0.0,0.0,0.0,0.0,0.0,0.0,0.0,0.0,0.0,0.0,0.0,0.0,0.0,0.0,0.0,0.0,0.0,0.0,0.0,0.0,0.0,0.0,0.0,0.0,0.0,0.0,0.0,0.0,0.0,0.0,0.0,0.0,0.0,0.0,0.0,0.0,0.0,0.0,0.0,0.0,0.0,0.0,0.0,0.0,0.0,0.0,0.0,0.0,0.0,0.0,0.0,0.0,0.0,0.0,0.0,0.0,0.0,0.0,0.0,0.0,0.0,0.0,0.0,0.0,0.0,0.0,0.0,0.0,0.0,0.0,0.0,0.0,0.0,0.0,0.0,0.0,0.0,0.0,0.0,0.0,0.0,0.0,0.0,0.0,0.0,0.0,0.0,0.0,0.0,0.0,0.0,0.0,0.0,0.0,0.0,0.0,0.0,0.0,0.0,0.0,0.0,0.0,0.0,0.0,0.0,0.0,0.0,0.0,0.0,0.0,0.0,0.0,0.0,0.0,0.0,0.0,0.0,0.0,0.0,0.0,0.0,0.0,0.0,0.0,0.0,0.0,0.0,0.0,0.0,0.0,0.0,0.0,0.0,0.0,0.0,0.0,0.0,0.0,0.0,0.0,0.0,0.0,0.0,0.0,0.0,0.0,0.0,0.0,0.0,0.0,0.0,0.0,0.0,0.0,0.0,0.0,0.0,0.0,0.0,0.0,0.0,0.0,0.0,0.0,0.0,0.0,0.0,0.0,0.0,0.0,0.0,0.0,0.0,0.0,0.0,0.0,0.0,0.0,0.0,0.0,0.0,0.0,0.0,0.0,0.0,0.0,0.0,0.0,0.0,0.0,0.0,0.0,0.0,0.0,0.0,0.0,0.0,0.0,0.0,0.0,0.0,0.0,0.0,0.0,0.0,0.0,0.0,0.0,0.0,0.0,0.0,0.0,0.0,0.0,0.0,0.0,0.0,0.0,0.0,0.0,0.0,0.0,0.0,0.0,0.0,0.0,0.0,0.0,0.0,0.0,0.0,0.0,0.0,0.0,0.0,0.0,0.0,0.0,0.0,0.0,0.0,0.0,0.0,0.0,0.0,0.0,0.0,0.0,0.0,0.0,0.0,0.0,0.0,0.0,0.0,0.0,0.0,0.0,0.0,0.0,0.0,0.0,0.0,0.0,0.0,0.0,0.0,0.0,0.0,0.0,0.0,0.0,0.0,0.0,0.0,0.0,0.0,0.0,0.0,0.0,0.0,0.0,0.0,0.0,0.0,0.0,0.0,0.0,0.0,0.0,0.0,0.0,0.0,0.0,0.0,0.0,0.0,0.0,0.0,0.0,0.0,0.0,0.0,0.0,0.0,0.0,0.0,0.0,0.0,0.0,0.0,0.0,0.0,0.0,0.0,0.0,0.0,0.0,0.0,0.0,0.0,0.0,0.0,0.0,0.0,0.0,0.0,0.0,0.0,0.0,0.0,0.0,0.0,0.0,0.0,0.0,0.0,0.0,0.0,0.0,0.0,0.0,0.0,0.0,0.0,0.0,0.0,0.0,0.0,0.0,0.0,0.0,0.0,0.0,0.0,0.0,0.0,0.0,0.0,0.0,0.0,0.0,0.0,0.0,0.0,0.0,0.0,0.0,0.0,0.0,0.0,0.0,0.0,0.0,0.0,0.0,0.0,0.0,0.0,0.0,0.0,0.0,0.0,0.0,0.0,0.0,0.0,0.0,0.0,0.0,0.0,0.0,0.0,0.0,0.0,0.0,0.0,0.0,0.0,0.0,0.0,0.0,0.0,0.0,0.0,0.0,0.0,0.0,0.0,0.0,0.0,0.0,0.0,0.0,0.0,0.0,0.0,0.0,0.0,0.0,0.0,0.0,0.0,0.0,0.0,0.0,0.0,0.0,0.0,0.0,0.0,0.0,0.0,0.0,0.0,0.0,0.0,0.0,0.0,0.0,0.0,0.0,0.0,0.0,0.0,0.0,0.0,0.0,0.0,0.0,0.0,0.0,0.0,0.0,0.0,0.0,0.0,0.0,0.0,0.0,0.0,0.0,0.0,0.0,0.0,0.0,0.0,0.0,0.0,0.0,0.0,0.0,0.0,0.0,0.0,0.0,0.0,0.0,0.0,0.0,0.0,0.0,0.0,0.0,0.0,0.0,0.0,0.0,0.0,0.0,0.0,0.0,0.0,0.0,0.0,0.0,0.0,0.0,0.0,0.0,0.0,0.0,0.0,0.0,0.0,0.0,0.0,0.0,0.0,0.0,0.0,0.0,0.0,0.0,0.0,0.0,0.0,0.0,0.0,0.0,0.0,0.0,0.0,0.0,0.0,0.0,0.0,0.0,0.0,0.0,0.0,0.0,0.0,0.0,0.0,0.0,0.0,0.0,0.0,0.0,0.0,0.0,0.0,0.0,0.0,0.0,0.0,0.0,0.0,-2.1991,-2.2168,0.0,0.0,0.0,0.0,0.0,0.0,0.0,0.0,0.0,0.0,0.0,0.0,0.0,0.0,0.0,0.0,0.0,0.0,0.0,0.0,0.0,0.0,0.0,0.0,0.0,0.0,0.0,0.0,0.0,0.0,0.0,0.0,0.0,0.0,0.0,0.0,0.0,0.0,0.0,0.0,0.0,0.0,0.0,0.0,0.0,0.0,0.0,0.0,0.0,0.0,0.0,0.0,0.0,0.0,0.0,0.0,0.0,0.0,0.0,0.0,0.0,0.0,0.0,0.0,0.0,0.0,0.0,0.0,0.0,0.0,0.0,0.0,0.0,0.0,0.0,0.0,0.0,0.0,0.0,0.0,0.0,0.0,0.0,0.0,0.0,0.0,0.0,0.0,0.0,0.0,0.0,0.0,0.0,0.0,0.0,0.0,0.0,0.0,0.0,0.0,0.0,0.0,0.0,0.0,0.0,0.0,0.0,0.0,0.0,0.0,0.0,0.0,0.0,0.0,-2.3448,-2.3269,0.0,0.0,0.0,0.0,0.0,0.0,0.0,0.0,0.0,0.0,0.0,0.0,0.0,0.0,0.0,0.0,0.0,0.0,0.0,0.0,0.0,0.0,0.0,0.0,0.0,0.0,0.0,0.0,0.0,0.0,0.0,0.0,0.0,0.0,0.0,0.0,0.0,0.0,0.0,0.0,0.0,0.0,0.0,0.0,0.0,0.0,0.0,0.0,0.0,0.0,0.0,0.0,0.0,0.0,0.0,0.0,0.0,0.0,0.0,0.0,0.0,0.0,0.0,0.0,0.0,0.0,0.0,0.0,0.0,0.0,0.0,0.0,0.0,0.0,0.0,0.0,0.0,0.0,0.0,0.0,0.0,0.0,0.0,0.0,0.0,0.0,0.0,0.0,0.0,0.0,0.0,0.0,0.0,0.0,0.0,0.0,0.0,0.0,0.0,0.0,0.0,0.0,0.0,0.0,0.0,0.0,0.0,0.0,-2.4993,-2.5046,-2.5065,-2.5224,-2.5303,-2.5274,-2.5019,-2.4556,-2.4052,-2.4598,0.0,0.0,0.0,0.0,0.0,0.0,0.0,0.0,0.0,0.0,0.0,0.0,0.0,0.0,0.0,0.0,0.0,0.0,0.0,0.0,0.0,0.0,0.0,0.0,0.0,0.0,0.0,0.0,0.0,0.0,0.0,0.0,0.0,0.0,0.0,0.0,0.0,0.0,-2.4937,-2.3601,-2.3793,-2.5303,0.0,0.0,0.0,0.0,0.0,0.0,0.0,0.0,0.0,0.0,0.0,0.0,0.0,0.0,0.0,0.0,0.0,0.0,0.0,0.0,0.0,0.0,0.0,0.0,0.0,0.0,0.0,0.0,0.0,0.0,0.0,0.0,0.0,0.0,0.0,0.0,0.0,0.0,0.0,0.0,0.0,0.0,0.0,0.0,-2.3577,-2.4456,0.0,0.0,0.0,0.0,0.0,0.0,0.0,0.0,0.0,0.0,0.0,0.0,0.0,-2.3544,-2.3332,-2.4436,-2.4974,-2.4974,-2.5163,-2.5264,-2.5264,-2.5303,-2.5303,-2.5303,-2.5253,0.0,-2.4846,-2.4948,0.0,0.0,0.0,0.0,0.0,0.0,0.0,0.0,0.0,0.0,0.0,0.0,0.0,0.0,0.0,0.0,0.0,0.0,0.0,0.0,0.0,0.0,0.0,0.0,0.0,0.0,0.0,0.0,0.0,0.0,0.0,0.0,0.0,0.0,0.0,0.0,0.0,0.0,-2.3889,-2.3639,-2.3908,-2.4639,-2.5101,-2.5303,-2.5303,-2.5303,0.0,0.0,0.0,0.0,0.0,0.0,0.0,0.0,0.0,0.0,0.0,0.0,0.0,0.0,0.0,0.0,0.0,0.0,0.0,0.0,0.0,0.0,0.0,0.0,0.0,0.0,0.0,0.0,0.0,0.0,0.0,0.0,0.0,0.0,0.0,0.0,0.0,0.0,0.0,-2.356,-2.3966,-2.3967,-2.4448,-2.476,0.0,0.0,0.0,0.0,0.0,0.0,0.0,0.0,0.0,-2.1958,-2.3505,-2.4169,-2.3842,-2.472,-2.5163,-2.5163,-2.5264,-2.5303,-2.5303,-2.5303,-2.5303,-2.5303,-2.5303,-2.5253,-2.5163,-2.5163,-2.49,-2.4538,0.0,0.0,0.0,0.0,-2.4623,-2.4233,0.0,0.0,0.0,0.0,0.0,0.0,0.0,0.0,0.0,0.0,0.0,0.0,0.0,0.0,0.0,-2.5303,0.0,0.0,0.0,0.0,0.0,0.0,0.0,0.0,0.0,0.0,0.0,0.0,0.0,0.0,0.0,0.0,-2.4206,-2.4428,-2.5024,-2.5303,-2.5303,-2.5303,-2.5303,0.0,0.0,0.0,0.0,0.0,0.0,0.0,0.0,0.0,0.0,0.0,0.0,0.0,0.0,0.0,0.0,0.0,0.0,0.0,0.0,0.0,0.0,0.0,0.0,0.0,0.0,0.0,0.0,0.0,0.0,0.0,0.0,0.0,0.0,0.0,0.0,0.0,0.0,-2.3886,-2.4123,-2.3772,-2.4436,-2.4896,0.0,0.0,0.0,0.0,0.0,0.0,-2.2419,-2.3385,-2.3655,-2.2995,-2.4342,-2.4864,-2.4409,-2.5005,-2.5303,-2.5303,-2.5253,-2.5224,-2.5214,-2.5182,-2.516,-2.516,-2.516,-2.5182,-2.5224,-2.5274,-2.5303,-2.5303,-2.5303,-2.5214,-2.5088,-2.5088,-2.5005,-2.4936,0.0,0.0,0.0,0.0,0.0,0.0,0.0,0.0,0.0,0.0,0.0,0.0,0.0,0.0,-2.5303,-2.5303,-2.5303,-2.5303,0.0,0.0,0.0,0.0,0.0,0.0,0.0,0.0,0.0,0.0,0.0,0.0,0.0,0.0,0.0,0.0,-2.5284,-2.5303,-2.5303,-2.5303,-2.5303,-2.5303,0.0,0.0,0.0,0.0,0.0,0.0,0.0,0.0,0.0,0.0,0.0,0.0,0.0,0.0,0.0,0.0,0.0,0.0,0.0,0.0,0.0,0.0,0.0,0.0,0.0,0.0,0.0,0.0,0.0,0.0,0.0,0.0,0.0,0.0,0.0,0.0,0.0,0.0,0.0,-2.4809,-2.5133,0.0,0.0,0.0,0.0,-2.3585,-2.4379,-2.4236,-2.2664,-2.4253,-2.4851,-2.4043,-2.4841,-2.5264,-2.5245,-2.5284,-2.5303,-2.5303,-2.5099,-2.5022,-2.501,-2.4883,-2.4832,-2.4832,-2.4832,-2.491,-2.5034,-2.5214,-2.5303,-2.5303,-2.5303,-2.5284,-2.5274,-2.5274,-2.5274,-2.5283,0.0,0.0,0.0,0.0,0.0,0.0,0.0,0.0,0.0,0.0,0.0,0.0,0.0,-2.5303,-2.5303,-2.5303,-2.5303,-2.5303,-2.5303,0.0,0.0,0.0,0.0,0.0,0.0,0.0,0.0,0.0,0.0,0.0,0.0,0.0,0.0,0.0,0.0,0.0,-2.5303,-2.5303,-2.5303,-2.5303,-2.5303,-2.5303,0.0,0.0,0.0,0.0,0.0,0.0,0.0,0.0,0.0,0.0,0.0,0.0,0.0,0.0,0.0,0.0,0.0,0.0,0.0,0.0,0.0,0.0,0.0,0.0,0.0,0.0,0.0,0.0,0.0,0.0,0.0,0.0,0.0,0.0,0.0,0.0,0.0,-2.496,-2.5173,0.0,-2.5203,-2.5184,-2.5048,-2.4698,-2.4979,-2.4935,-2.4369,-2.4956,-2.5168,-2.4889,-2.5149,-2.5243,-2.5099,-2.5099,-2.5053,-2.4994,-2.4986,-2.501,-2.501,-2.5084,-2.5126,-2.5126,-2.5126,-2.5149,-2.5203,-2.5264,-2.5303,-2.5303,-2.5303,-2.5303,-2.5274,-2.5152,-2.5099,-2.5088,0.0,0.0,0.0,0.0,0.0,0.0,0.0,0.0,0.0,0.0,0.0,-2.5303,-2.5303,-2.5303,-2.5303,-2.5303,-2.5303,-2.5303,-2.5303,0.0,0.0,0.0,0.0,0.0,0.0,0.0,0.0,0.0,0.0,0.0,0.0,0.0,0.0,0.0,0.0,0.0,0.0,0.0,-2.5512,-2.5322,-2.5521,-2.5666,-2.5659,0.0,0.0,0.0,0.0,0.0,0.0,0.0,0.0,0.0,0.0,0.0,0.0,0.0,0.0,0.0,0.0,0.0,0.0,0.0,0.0,0.0,0.0,0.0,0.0,0.0,0.0,0.0,0.0,0.0,0.0,0.0,0.0,0.0,0.0,-2.4917,-2.501,-2.501,-2.5173,-2.5303,-2.5303,-2.5303,-2.5303,-2.5303,-2.5303,-2.5418,-2.5707,-2.5457,-2.5418,-2.5726,-2.5437,-2.5243,-2.5099,-2.5034,-2.4949,-2.4883,-2.4831,-2.4831,-2.4831,-2.5175,-2.5183,-2.4949,-2.5221,-2.5222,-2.5024,-2.5024,-2.5061,-2.5138,-2.5253,-2.5303,-2.5274,-2.5152,-2.5099,-2.5077,0.0,0.0,0.0,0.0,0.0,0.0,0.0,0.0,0.0,0.0,-2.5303,-2.5303,-2.5303,-2.5303,-2.5303,-2.5303,-2.5303,-2.5303,-2.5303,-2.5303,0.0,0.0,0.0,0.0,0.0,0.0,0.0,0.0,0.0,0.0,0.0,0.0,0.0,0.0,0.0,0.0,0.0,0.0,0.0,-2.5417,-2.6008,-2.6419,-2.6544,0.0,0.0,0.0,0.0,0.0,0.0,0.0,0.0,0.0,0.0,0.0,0.0,0.0,0.0,0.0,0.0,0.0,0.0,0.0,0.0,0.0,0.0,0.0,0.0,0.0,0.0,0.0,0.0,0.0,0.0,0.0,0.0,0.0,-2.4861,-2.493,-2.501,-2.501,-2.5173,-2.5303,-2.5303,-2.5322,-2.5341,-2.5341,-2.536,-2.5755,-2.6601,-2.5851,-2.5774,-2.6621,-2.5803,-2.5351,-2.5312,-2.5126,-2.5005,-2.4967,-2.4648,-2.4495,-2.4569,-2.5152,-2.5018,-2.4337,-2.5092,-2.5097,-2.4549,-2.4512,-2.4623,-2.4832,-2.5149,-2.5274,-2.5274,-2.5293,-2.5264,-2.5243,0.0,0.0,0.0,0.0,0.0,0.0,0.0,0.0,0.0,0.0,-2.5303,-2.5303,-2.5303,-2.5303,-2.5303,-2.5303,-2.5303,-2.5303,-2.5303,0.0,0.0,0.0,0.0,0.0,0.0,0.0,0.0,0.0,0.0,0.0,0.0,0.0,0.0,0.0,0.0,0.0,0.0,0.0,0.0,0.0,-2.729,-2.7492,-2.7525,0.0,0.0,0.0,0.0,0.0,0.0,0.0,0.0,0.0,0.0,0.0,0.0,0.0,0.0,0.0,0.0,0.0,0.0,0.0,0.0,0.0,0.0,0.0,0.0,0.0,0.0,0.0,0.0,0.0,0.0,0.0,-2.5163,-2.5264,-2.519,-2.5192,-2.5214,-2.5214,-2.5264,-2.5303,-2.5303,-2.587,-2.6236,-2.6236,-2.6832,-2.7294,-2.7525,-2.7313,-2.7294,-2.7544,-2.7125,-2.6543,-2.5815,-2.5612,-2.5138,-2.4425,-2.4459,-2.4811,-2.5371,-2.5699,-2.6014,-2.635,-2.5976,-2.5745,-2.5531,-2.496,-2.4746,-2.4804,-2.4896,-2.4942,-2.491,-2.4771,-2.462,-2.4568,0.0,0.0,0.0,0.0,0.0,0.0,0.0,0.0,0.0,0.0,-2.5303,-2.5303,-2.5303,-2.5303,-2.5303,-2.5303,-2.5303,-2.5303,-2.5303,0.0,0.0,0.0,0.0,0.0,0.0,0.0,0.0,0.0,0.0,0.0,0.0,0.0,0.0,0.0,0.0,0.0,0.0,0.0,0.0,0.0,-2.8436,-2.8439,-2.8057,-2.7733,-2.7722,-2.7861,-2.7765,-2.7631,-2.7458,-2.7101,0.0,0.0,0.0,0.0,0.0,0.0,0.0,0.0,0.0,0.0,0.0,0.0,0.0,0.0,0.0,0.0,0.0,0.0,0.0,0.0,0.0,0.0,0.0,0.0,-2.5224,-2.5398,-2.5642,-2.5761,-2.5707,-2.5341,-2.5947,-2.6255,-2.589,-2.664,-2.714,-2.714,-2.7601,-2.8044,-2.8371,-2.7988,-2.7903,-2.8279,-2.7684,-2.7089,-2.651,-2.5961,-2.5579,-2.5318,-2.469,-2.4968,-2.6078,-2.6191,-2.6506,-2.6916,-2.645,-2.6058,-2.5685,-2.4881,-2.4561,-2.4578,0.0,0.0,0.0,0.0,-2.4825,-2.4538,0.0,0.0,0.0,0.0,0.0,0.0,0.0,0.0,0.0,0.0,0.0,-2.5303,-2.5303,-2.5303,-2.5303,-2.5303,-2.5303,-2.5303,0.0,0.0,0.0,0.0,0.0,0.0,0.0,0.0,0.0,0.0,0.0,0.0,0.0,0.0,0.0,0.0,0.0,0.0,0.0,0.0,0.0,0.0,-2.9359,-2.9226,-2.847,-2.774,-2.7909,-2.8454,-2.7922,-2.7733,-2.7699,-2.7632,0.0,0.0,0.0,0.0,0.0,0.0,0.0,0.0,0.0,0.0,0.0,0.0,0.0,0.0,0.0,0.0,0.0,0.0,0.0,0.0,0.0,0.0,0.0,0.0,-2.5437,-2.5666,-2.6289,-2.6657,-2.6553,-2.5648,-2.6937,-2.7601,-2.6813,-2.7514,-2.8003,-2.8003,-2.8057,-2.8411,-2.9133,-2.8261,0.0,0.0,0.0,-2.7405,-2.7311,-2.6393,-2.6247,-2.6841,-2.5243,-2.5273,-2.6741,-2.6741,-2.6778,-2.6869,-2.6778,-2.6282,-2.5476,-2.4667,-2.4337,-2.4376,-2.4741,-2.4862,-2.4975,-2.5866,-2.564,-2.4964,0.0,0.0,0.0,0.0,0.0,0.0,0.0,0.0,0.0,-2.5303,-2.5303,-2.5303,-2.5303,-2.5303,-2.5303,-2.5303,-2.5303,-2.5303,0.0,0.0,0.0,0.0,0.0,0.0,0.0,0.0,0.0,0.0,0.0,0.0,0.0,0.0,0.0,0.0,0.0,0.0,0.0,0.0,0.0,0.0,0.0,-2.9458,-2.9432,-2.9281,-2.9213,-2.9213,-2.9264,-2.9172,-2.8952,-2.8414,-2.8156,-2.7925,-2.7236,0.0,0.0,0.0,0.0,0.0,0.0,0.0,0.0,0.0,0.0,0.0,0.0,0.0,0.0,0.0,0.0,0.0,0.0,0.0,0.0,-2.6226,-2.6351,-2.6629,-2.7462,-2.8168,-2.823,-2.7205,-2.7562,-2.7832,-2.7659,-2.8236,-2.8637,-2.8637,-2.9072,-2.9415,-2.9585,-2.9385,-2.9349,-2.9519,-2.9176,-2.8633,-2.7942,-2.7557,-2.7135,-2.6638,-2.6303,0.0,-2.7567,-2.7567,-2.7915,-2.848,-2.7842,-2.7108,-2.6319,-2.5493,-2.5182,-2.5182,-2.5243,-2.5281,-2.5466,-2.6923,-2.6517,-2.5503,0.0,0.0,0.0,0.0,0.0,0.0,0.0,0.0,0.0,0.0,-2.5303,-2.5303,-2.5303,-2.5303,-2.5303,-2.5303,-2.5214,0.0,0.0,0.0,0.0,0.0,0.0,0.0,0.0,0.0,0.0,0.0,0.0,0.0,0.0,0.0,0.0,0.0,0.0,0.0,0.0,0.0,0.0,0.0,0.0,-3.0454,-3.0453,-2.9653,-2.9291,-2.9225,-2.9474,-2.9493,-2.9358,-2.9008,-2.8668,-2.8305,-2.7826,-2.7167,-2.6591,0.0,0.0,0.0,0.0,0.0,0.0,0.0,0.0,0.0,0.0,0.0,0.0,0.0,0.0,-2.6601,-2.6601,0.0,-2.6736,-2.7178,-2.7582,-2.7964,-2.8306,-2.9536,-2.9733,-2.791,-2.8557,-2.8933,-2.8389,-2.8987,-2.936,-2.9254,-2.9519,-2.9696,-2.9696,-2.9607,-2.9533,-2.9533,-2.9312,-2.9,-2.8556,-2.8058,-2.7805,-2.7783,-2.6979,-2.7236,-2.8393,-2.797,-2.8246,-2.8957,-2.8154,-2.7567,-2.7145,-2.6319,-2.5988,-2.6043,-2.6429,-2.6355,-2.6153,-2.7346,-2.7034,-2.6172,0.0,0.0,0.0,0.0,0.0,0.0,0.0,0.0,0.0,0.0,0.0,-2.5303,-2.5303,-2.5303,-2.5303,0.0,0.0,0.0,0.0,0.0,0.0,0.0,0.0,0.0,0.0,0.0,0.0,0.0,0.0,0.0,0.0,0.0,0.0,0.0,0.0,0.0,0.0,0.0,0.0,0.0,0.0,-3.1531,-3.1237,-2.9787,-2.9214,-2.9242,-2.9302,-2.933,-2.9349,-2.9516,-2.9191,-2.8727,-2.8572,-2.8072,-2.7528,-2.7359,-2.7225,0.0,0.0,0.0,0.0,0.0,0.0,0.0,0.0,0.0,-2.7937,-2.7435,-2.7909,-2.839,-2.839,-2.839,-2.8448,-2.8602,-2.9179,-2.9605,-2.9601,-3.0951,-3.1179,-2.9121,-3.0009,-3.0471,-2.9608,-2.9867,-3.0059,-2.9888,-2.9682,-2.957,-2.957,-2.9395,-2.933,-2.933,-2.9112,-2.9067,-2.9214,-2.8448,-2.8448,-2.9237,-2.7769,-2.7769,-2.8975,-2.8338,-2.8393,-2.8957,-2.8154,-2.7787,-2.775,-2.7108,-2.6833,-2.6906,-2.7714,-2.7732,-2.7365,-2.7842,-2.753,-2.6961,0.0,0.0,0.0,0.0,0.0,0.0,0.0,0.0,0.0,0.0,0.0,0.0,0.0,0.0,0.0,0.0,0.0,0.0,0.0,0.0,0.0,0.0,0.0,0.0,0.0,0.0,0.0,0.0,0.0,0.0,0.0,0.0,0.0,0.0,0.0,0.0,0.0,0.0,0.0,0.0,0.0,-3.2045,-3.1292,-3.0411,-3.0081,-2.9971,-2.9278,-2.9044,-2.9154,-2.9871,-3.006,-2.9991,-2.9963,-2.943,-2.8644,-2.7948,0.0,-2.6898,-2.672,-2.6782,-2.7475,-2.9888,-2.9451,-2.9063,0.0,0.0,-2.9863,-2.9951,-3.0052,-3.0121,-3.0121,-3.0121,-3.0371,-3.116,-3.1352,-3.1648,-3.2346,-3.2628,-3.266,-3.2372,-3.2302,-3.2206,-3.2095,-3.1148,-3.0518,-3.0516,-2.9632,-2.9089,-2.9089,-2.9044,-2.9044,-2.9044,-2.9017,-2.9347,-3.0063,-2.9274,-2.9274,-3.0063,-2.914,-2.881,-2.8994,-2.8902,-2.8902,-2.8957,-2.8154,-2.7787,-2.7787,-2.7695,-2.7658,-2.775,-2.8558,-2.9255,-2.9732,-2.9108,-2.8374,-2.7769,0.0,0.0,0.0,0.0,0.0,0.0,0.0,0.0,0.0,0.0,0.0,0.0,0.0,0.0,0.0,0.0,0.0,0.0,0.0,0.0,0.0,0.0,0.0,0.0,0.0,0.0,0.0,0.0,0.0,0.0,0.0,0.0,0.0,0.0,0.0,0.0,0.0,0.0,0.0,0.0,0.0,-3.3513,-3.2706,-3.1898,-3.1311,-3.0668,-2.8925,-2.8613,0.0,0.0,-2.9108,-2.9512,-2.9512,-2.8962,-2.8338,-2.8466,-2.7981,0.0,-2.7901,-2.8736,-2.9813,-3.1099,-3.1768,-3.2183,-3.245,-3.289,-3.2979,-3.2051,-3.266,-3.3359,-3.3359,-3.2949,-3.2737,-3.3103,-3.3141,-3.3103,-3.291,-3.3776,-3.4045,-3.3026,-3.357,-3.357,-3.2443,-3.1709,-3.1039,-3.042,-3.0391,-3.0191,-2.9732,-2.9714,-2.9714,-2.9714,-2.9714,-2.9861,-3.021,-3.0338,-3.0338,-3.021,-2.9861,-2.9457,-2.8994,-2.8994,-2.8994,-2.8975,-2.865,-2.8503,-2.8503,-2.8503,-2.8503,-2.8539,-2.8865,-2.9195,-2.9531,-2.9659,-2.9494,-2.9237,0.0,0.0,0.0,0.0,0.0,0.0,0.0,0.0,0.0,0.0,0.0,0.0,0.0,0.0,0.0,0.0,0.0,0.0,0.0,0.0,0.0,0.0,0.0,0.0,0.0,0.0,0.0,0.0,0.0,0.0,0.0,0.0,0.0,0.0,0.0,0.0,0.0,0.0,0.0,0.0,-3.5459,-3.4871,-3.399,-3.2742,-3.1847,-3.1027,-2.914,-2.8705,0.0,0.0,-2.8705,-2.8994,-2.8994,-2.8448,-2.7915,-2.8503,-2.8411,-2.8319,-2.9127,-3.0338,-3.1544,-3.2186,-3.3639,-3.4708,-3.3941,-3.4945,-3.5724,-3.4551,-3.5315,-3.6199,-3.6199,-3.5661,-3.5161,-3.493,-3.4831,-3.4496,-3.3618,-3.4534,-3.481,-3.3551,-3.4063,-3.4037,-3.286,-3.2371,-3.1774,-3.0931,-3.1201,-3.1146,-3.0558,-3.032,-3.0301,-3.0522,-3.032,-3.0411,-3.087,-3.1219,-3.1219,-3.087,-3.0411,-3.0008,-2.9659,-2.9659,-2.9659,-2.9659,-2.9659,-2.9549,-2.9347,-2.9347,-2.9195,-2.8994,-2.8994,-2.9122,-2.9402,-2.9989,-3.021,-3.0228,0.0,0.0,0.0,0.0,0.0,0.0,0.0,0.0,0.0,0.0,0.0,0.0,0.0,0.0,0.0,0.0,0.0,0.0,0.0,0.0,0.0,0.0,0.0,0.0,0.0,0.0,0.0,0.0,0.0,0.0,0.0,0.0,0.0,0.0,0.0,0.0,0.0,0.0,0.0,0.0,-3.656,-3.5752,-3.4697,-3.2339,-3.1224,-3.083,-3.0307,0.0,0.0,0.0,-2.9622,-2.8994,-2.8994,-2.8448,0.0,-2.7824,-2.8374,-2.9145,-2.9953,-3.076,-3.177,-3.3356,-3.4611,-3.5731,-3.6726,-3.7223,-3.7504,-3.779,-3.7892,-3.7911,-3.7911,-3.7892,-3.7603,-3.6757,-3.64,-3.5942,-3.5143,-3.4851,-3.4695,-3.4639,-3.3714,-3.3347,-3.4069,-3.3436,-3.2831,-3.2566,-3.1825,-3.1384,-3.1347,-3.0613,-3.0558,-3.1329,-3.0613,-3.0962,-3.2522,-3.177,-3.177,-3.2522,-3.0962,-3.0595,-3.1329,-3.1329,-3.1329,-3.1329,-3.1329,-3.087,-3.0173,-3.0173,-2.9714,-2.8994,-2.8994,-2.9494,-3.0173,-3.0191,-3.021,-3.032,0.0,0.0,0.0,0.0,0.0,0.0,0.0,0.0,0.0,0.0,0.0,0.0,0.0,0.0,0.0,0.0,0.0,0.0,0.0,0.0,0.0,0.0,0.0,0.0,0.0,0.0,0.0,0.0,0.0,0.0,0.0,0.0,0.0,0.0,0.0,0.0,0.0,0.0,0.0,0.0,-3.6615,-3.6119,-3.5504,-3.2274,-3.1003,-3.0721,0.0,0.0,0.0,0.0,0.0,-2.7816,-2.7858,-2.747,-2.6998,-2.6998,-2.8338,-2.9751,-2.9494,-3.0779,-3.2449,-3.3532,-3.5073,-3.6385,-3.6745,-3.8083,-3.909,-3.8628,-3.8246,-3.8007,-3.8007,-3.6942,-3.5985,-3.5698,-3.5416,-3.5135,-3.487,-3.4773,-3.4505,-3.3919,-3.4009,-3.3936,-3.345,-3.3,-3.2679,-3.2614,-3.2834,-3.2761,-3.2228,-3.1953,-3.1678,-3.1403,-3.1659,-3.1806,-3.1806,-3.2577,-3.2852,-3.2596,-3.1513,-3.1127,-3.1384,-3.1384,-3.1384,-3.1384,-3.1384,-3.0944,-3.021,-3.021,-2.9576,-2.8633,-2.8905,-2.9004,-2.9112,-2.9917,-3.021,-3.0246,0.0,0.0,0.0,0.0,0.0,0.0,0.0,0.0,0.0,0.0,0.0,0.0,0.0,0.0,0.0,0.0,0.0,0.0,0.0,0.0,0.0,0.0,0.0,0.0,0.0,0.0,0.0,0.0,0.0,0.0,0.0,0.0,0.0,0.0,0.0,0.0,0.0,0.0,0.0,0.0,-3.518,-3.4629,-3.4071,-3.1299,-3.0173,0.0,0.0,0.0,0.0,0.0,0.0,-2.6552,-2.6332,-2.6149,-2.6042,-2.6334,-2.799,-2.9732,-2.9494,-3.1201,-3.3146,-3.3678,-3.519,-3.6652,-3.7035,-3.8249,-3.9188,-3.8762,-3.821,-3.7696,-3.734,-3.6088,-3.4878,-3.4217,-3.3885,-3.3707,-3.3667,-3.3583,-3.3534,-3.3527,-3.3773,-3.378,-3.3321,-3.2863,-3.2614,-3.2614,-3.3091,-3.3018,-3.221,-3.1898,-3.177,-3.1825,-3.2045,-3.2192,-3.2247,-3.3275,-3.3403,-3.2614,-3.2375,-3.21,-3.1843,-3.2118,-3.2247,-3.2247,-3.2247,-3.1806,-3.1035,-3.0742,-2.9996,-2.9039,-2.9015,-2.8839,-2.8712,-2.9496,-2.9953,-3.0246,0.0,0.0,0.0,0.0,0.0,0.0,0.0,0.0,0.0,0.0,0.0,0.0,0.0,0.0,0.0,0.0,0.0,0.0,0.0,0.0,0.0,0.0,0.0,0.0,0.0,0.0,0.0,0.0,0.0,0.0,0.0,0.0,0.0,0.0,0.0,0.0,0.0,0.0,0.0,0.0,-3.2508,0.0,-3.0846,-2.9508,0.0,0.0,0.0,0.0,0.0,0.0,0.0,-2.5358,-2.4708,-2.4766,-2.5226,-2.5958,-2.7547,-2.9237,-2.9953,-3.1861,-3.3697,-3.3733,-3.4963,-3.6454,-3.7511,-3.7757,-3.786,-3.8173,-3.7715,-3.6939,0.0,-3.5286,-3.4291,-3.256,-3.2087,-3.1936,-3.1912,-3.1676,-3.2082,-3.3623,-3.3128,-3.2963,-3.3733,-3.3109,-3.2651,-3.2614,-3.2651,-3.2339,-3.1549,-3.0797,-3.1072,-3.2559,-3.1898,-3.2228,-3.3715,-3.377,-3.3421,-3.2687,-3.344,-3.3403,-3.2706,-3.3458,-3.3807,-3.3807,-3.3807,-3.333,-3.2485,-3.1715,-3.0889,-3.0039,-2.9287,-2.8994,-2.8952,-2.8994,-2.9494,-3.0246,0.0,0.0,0.0,0.0,0.0,0.0,0.0,0.0,0.0,0.0,0.0,0.0,0.0,0.0,0.0,0.0,0.0,0.0,0.0,0.0,0.0,0.0,0.0,0.0,0.0,0.0,0.0,0.0,0.0,0.0,0.0,0.0,0.0,0.0,0.0,0.0,0.0,0.0,0.0,0.0,0.0,-3.188,-3.192,0.0,0.0,0.0,0.0,0.0,0.0,0.0,0.0,0.0,-2.5564,-2.6513,-2.7495,-2.7387,-2.8585,-2.9824,-2.942,-3.0632,-3.2155,-3.2761,-3.3678,-3.4679,-3.5533,-3.5929,-3.6136,-3.6208,-3.4823,-3.3468,-3.3223,-3.2391,-3.1783,-3.1907,-3.2201,-3.2637,-3.3202,-3.3217,-3.333,-3.3752,0.0,-3.3568,-3.377,-3.3605,-3.3256,-3.2669,-3.3164,-3.3403,-3.3201,-3.2999,-3.2797,-3.2614,-3.2981,-3.3109,-3.2926,-3.3495,-3.3697,-3.3495,-3.3697,-3.3697,-3.3495,-3.3715,-3.3807,-3.3807,-3.3807,-3.2999,-3.1678,-3.1476,-3.0392,-2.888,-2.8978,-2.8815,-2.859,-2.8905,-2.9122,-2.9347,0.0,0.0,0.0,0.0,0.0,0.0,0.0,0.0,0.0,0.0,0.0,0.0,0.0,0.0,0.0,0.0,0.0,0.0,0.0,0.0,0.0,0.0,0.0,0.0,0.0,0.0,0.0,0.0,0.0,0.0,0.0,0.0,0.0,0.0,0.0,0.0,0.0,0.0,0.0,0.0,0.0,0.0,0.0,0.0,0.0,0.0,0.0,0.0,0.0,0.0,0.0,-2.5174,-2.5543,-2.6455,-2.7423,-2.7541,0.0,-2.9586,-2.9104,-3.0173,-3.1421,-3.1531,-3.2155,-3.2963,-3.3743,-3.4076,-3.4235,-3.4235,-3.3056,-3.1878,-3.14,-3.0646,-3.0079,0.0,0.0,0.0,-3.2118,-3.2522,-3.2999,0.0,-3.3807,0.0,-3.3807,-3.3807,-3.3605,-3.3164,-3.322,-3.3128,-3.2761,-3.2742,-3.2706,-3.2614,-3.3054,-3.3238,-3.3128,-3.3568,-3.3807,-3.3807,-3.3807,-3.3807,-3.3807,-3.3807,-3.3807,-3.377,-3.344,-3.2963,-3.2394,-3.1678,-3.0734,-2.9744,-2.9972,-2.9686,-2.9234,-2.9441,-2.9751,-3.0008,0.0,0.0,0.0,0.0,0.0,0.0,0.0,0.0,0.0,0.0,0.0,0.0,0.0,0.0,0.0,0.0,0.0,0.0,0.0,0.0,0.0,0.0,0.0,0.0,0.0,0.0,0.0,0.0,0.0,0.0,0.0,0.0,0.0,0.0,0.0,0.0,0.0,0.0,0.0,0.0,0.0,0.0,0.0,0.0,0.0,0.0,0.0,0.0,0.0,0.0,-2.5446,-2.5275,-2.5303,-2.5825,-2.6555,-2.729,-2.8226,-2.8994,-2.8994,-3.0026,-3.0944,-3.0356,-3.0632,-3.1292,-3.21,-3.221,-3.2137,-3.2137,-3.1769,-3.1102,-3.0073,-2.9496,-2.8915,-2.8088,0.0,-2.9305,-3.0228,-3.1054,-3.2082,-3.3476,-3.3733,-3.3807,-3.3807,-3.3807,-3.3807,-3.3807,-3.3146,-3.2449,-3.1751,-3.1715,-3.2045,-3.2742,-3.2761,-3.3091,-3.3788,-3.3807,-3.3807,-3.3807,-3.3807,-3.3807,-3.3807,-3.3807,-3.3807,-3.3752,-3.3073,-3.3091,-3.3532,-3.2118,-3.1494,-3.1384,-3.1384,-3.0907,-3.021,-3.021,-3.0632,-3.1127,0.0,0.0,0.0,0.0,0.0,0.0,0.0,0.0,0.0,0.0,0.0,0.0,0.0,0.0,0.0,0.0,0.0,0.0,0.0,0.0,0.0,0.0,0.0,0.0,0.0,0.0,0.0,0.0,0.0,0.0,0.0,0.0,0.0,0.0,0.0,0.0,0.0,0.0,0.0,0.0,0.0,0.0,0.0,0.0,0.0,0.0,0.0,0.0,0.0,0.0,-2.5774,-2.6075,-2.6388,-2.7174,-2.8092,-2.856,-2.886,-2.8994,-2.8994,-2.9195,-2.9549,-3.0081,-2.9806,-2.9641,-3.043,-3.0099,0.0,-2.9617,-2.9536,-2.9228,-2.8378,-2.8143,-2.8239,-2.8705,-2.8902,-2.9512,-3.098,-3.188,-3.2504,0.0,-3.3403,-3.3807,-3.3807,-3.3807,-3.3807,-3.3807,-3.3678,-3.3532,-3.3385,-3.3385,-3.344,-3.3587,-3.3587,-3.366,-3.3807,-3.3807,-3.3807,-3.3807,-3.3807,-3.3807,-3.3807,-3.3807,-3.3807,-3.3788,-3.3642,-3.3293,-3.2797,-3.2522,-3.2008,-3.1384,-3.1384,-3.0907,-3.021,-3.021,-3.0283,-3.0283,0.0,0.0,0.0,0.0,0.0,0.0,0.0,0.0,0.0,0.0,0.0,0.0,0.0,0.0,0.0,0.0,0.0,0.0,0.0,0.0,0.0,0.0,0.0,0.0,0.0,0.0,-2.419,-2.419,0.0,0.0,0.0,-2.3117,-2.2789,0.0,0.0,0.0,0.0,0.0,0.0,0.0,0.0,0.0,0.0,0.0,0.0,0.0,0.0,0.0,0.0,0.0,-2.5309,-2.5825,-2.7,-2.787,-2.8471,-2.8863,-2.8994,-2.8994,-2.8994,-2.8994,-2.9085,-2.9494,-2.898,-2.8484,-2.8851,0.0,0.0,-2.8902,-2.8994,-2.9017,-2.9035,-2.8356,0.0,-2.8319,-2.8374,-2.8796,-2.9989,-3.0852,-3.1659,-3.2504,-3.2944,-3.3348,-3.3752,-3.3421,-3.3348,-3.377,-3.3421,-3.3366,-3.377,-3.3807,-3.3807,-3.3807,-3.3807,-3.3807,-3.3807,-3.3807,-3.3807,-3.3807,-3.3807,-3.3807,-3.3807,-3.3807,-3.3807,-3.377,-3.3366,-3.3201,-3.3201,-3.2779,-3.2375,-3.2063,-3.2485,-3.1898,-3.0815,-3.0815,-3.1091,-3.1274,0.0,0.0,0.0,0.0,0.0,0.0,0.0,0.0,-2.5303,-2.5303,-2.5303,-2.5303,-2.5303,-2.5303,0.0,0.0,0.0,0.0,0.0,0.0,0.0,0.0,0.0,0.0,0.0,0.0,0.0,-2.419,-2.3858,0.0,0.0,0.0,0.0,0.0,-2.2822,-2.2652,0.0,0.0,0.0,0.0,0.0,-2.5456,0.0,0.0,0.0,0.0,0.0,0.0,0.0,0.0,-2.4462,-2.5034,-2.6764,-2.7549,-2.7908,-2.8463,-2.8649,-2.8709,-2.8938,-2.8994,-2.8994,-2.8994,-2.8282,-2.753,-2.753,-2.753,0.0,-2.8374,-2.8755,-2.9145,-2.9604,-2.865,-2.7787,0.0,-2.7658,-2.7879,-2.8847,-2.9696,-3.0668,-3.1953,-3.2394,0.0,-3.3476,-3.2981,-3.2944,-3.3733,-3.322,-3.3128,-3.377,-3.3807,-3.3807,-3.3807,-3.3807,-3.3807,-3.3807,-3.3807,-3.3807,-3.3807,-3.3807,-3.3807,-3.3807,-3.3807,-3.3807,-3.3752,-3.3128,-3.322,-3.3752,-3.3128,-3.2761,-3.2687,-3.3495,-3.2816,-3.1403,-3.1586,-3.2063,-3.2394,0.0,0.0,0.0,0.0,0.0,0.0,0.0,0.0,-2.5303,-2.5303,-2.5303,-2.5303,-2.5303,-2.5303,0.0,0.0,0.0,0.0,0.0,0.0,0.0,0.0,0.0,0.0,0.0,0.0,0.0,-2.419,-2.3858,0.0,0.0,0.0,0.0,0.0,0.0,-2.2972,-2.266,0.0,0.0,0.0,0.0,0.0,0.0,0.0,0.0,0.0,0.0,0.0,0.0,0.0,0.0,-2.3777,-2.4982,-2.5596,-2.6068,-2.7145,0.0,0.0,-2.8727,-2.8994,-2.8994,-2.8994,-2.786,-2.6722,-2.6722,0.0,-2.6741,-2.6814,-2.7967,-2.8815,-2.8136,-2.7897,-2.7787,-2.7787,0.0,-2.7255,-2.8773,-2.9696,-3.0246,-3.0411,0.0,0.0,-3.2706,-3.2651,-3.2944,-3.3733,-3.3733,-3.3715,-3.3807,-3.3807,-3.3807,-3.3807,-3.3807,-3.3807,-3.3807,-3.3807,-3.3807,-3.3807,-3.3807,-3.3807,-3.3807,-3.3807,-3.3807,-3.3807,-3.3715,-3.3733,-3.3788,-3.3715,-3.3256,-3.2687,-3.3495,-3.2816,-3.1476,-3.2228,-3.254,-3.2485,0.0,0.0,0.0,0.0,0.0,0.0,0.0,0.0,-2.5303,-2.5303,-2.5303,-2.5303,-2.5303,-2.5303,0.0,0.0,0.0,0.0,0.0,0.0,0.0,0.0,0.0,0.0,0.0,0.0,-2.419,-2.419,-2.4074,0.0,0.0,0.0,0.0,0.0,0.0,-2.3305,-2.2996,-2.2815,0.0,0.0,0.0,0.0,0.0,0.0,0.0,0.0,0.0,0.0,-2.3714,0.0,0.0,0.0,-2.3255,-2.3509,0.0,0.0,-2.6627,-2.7092,-2.7561,-2.7993,-2.8226,-2.7803,-2.6953,-2.6254,-2.6299,0.0,-2.6869,-2.7838,-2.8535,-2.903,-2.9219,-2.8448,-2.7787,-2.7787,0.0,0.0,-2.8117,-2.8136,-2.8576,-3.0026,-3.0356,-3.1017,-3.2467,-3.2173,-3.221,-3.3036,-3.3532,-3.3587,-3.3109,-3.3532,-3.3807,-3.3807,-3.3807,-3.3807,-3.3807,-3.3807,-3.3807,-3.3807,-3.3807,-3.3807,-3.3807,-3.3807,-3.3807,-3.3807,-3.3807,-3.3807,-3.3762,-3.355,-3.3396,-3.3321,-3.3395,-3.2903,-3.21,-3.1935,-3.188,-3.1751,0.0,0.0,0.0,0.0,0.0,0.0,-2.5303,-2.5303,-2.5303,-2.5303,-2.5303,-2.5303,-2.5303,-2.5303,-2.5303,-2.5303,0.0,0.0,0.0,0.0,0.0,0.0,0.0,0.0,0.0,0.0,-2.419,-2.419,-2.419,-2.419,0.0,0.0,-2.4074,-2.3855,0.0,0.0,0.0,0.0,0.0,0.0,0.0,0.0,0.0,0.0,0.0,0.0,0.0,0.0,0.0,0.0,0.0,0.0,0.0,0.0,0.0,0.0,-2.5535,-2.6029,-2.6366,-2.6809,-2.7093,-2.657,-2.5997,-2.5608,0.0,0.0,-2.6681,-2.8158,-2.8675,-2.9028,-2.9727,-2.8925,-2.8154,0.0,0.0,-2.7145,-2.7714,-2.753,-2.786,-2.931,-2.942,-3.0136,-3.2063,-3.1953,-3.199,-3.2577,-3.2908,-3.3054,-3.2963,-3.3275,-3.3458,-3.3458,-3.3678,-3.3917,-3.4156,-3.4156,-3.4284,-3.4541,-3.4284,-3.4156,-3.4156,-3.3917,-3.3807,-3.3807,-3.3807,-3.3734,-3.3588,-3.3078,-3.2814,-3.271,-3.2451,-3.2166,-3.1847,-3.1407,-3.1378,-3.1506,0.0,0.0,0.0,0.0,0.0,0.0,0.0,0.0,-2.5303,-2.5303,-2.5303,-2.5303,-2.5303,-2.5303,-2.5303,-2.5303,0.0,0.0,0.0,0.0,0.0,0.0,0.0,0.0,0.0,0.0,0.0,-2.419,-2.419,-2.419,-2.419,-2.419,-2.419,-2.419,0.0,0.0,0.0,0.0,0.0,0.0,0.0,0.0,0.0,0.0,0.0,0.0,0.0,0.0,0.0,0.0,0.0,0.0,0.0,0.0,0.0,0.0,-2.4023,-2.426,-2.5331,-2.5603,-2.5603,-2.5603,-2.4992,-2.4612,0.0,0.0,-2.5841,-2.6975,-2.7861,-2.854,-2.8947,-2.8994,-2.8975,-2.8975,-2.8319,0.0,-2.7787,-2.8484,-2.8705,-2.7915,-2.9219,-3.0503,-3.1329,-3.2137,-3.2596,-3.2614,-3.1861,-3.2118,-3.3697,-3.3054,-3.2614,-3.2614,-3.3385,-3.4192,-3.4972,-3.4972,-3.544,-3.6266,-3.5404,-3.4972,-3.4954,-3.4174,-3.3807,-3.3807,-3.3807,-3.3578,-3.316,-3.2412,-3.1368,-3.0234,-3.0295,-3.0295,-3.0277,-3.0725,-3.1372,-3.2068,0.0,0.0,0.0,0.0,0.0,0.0,0.0,0.0,-2.5303,-2.5303,-2.5303,-2.5303,-2.5303,-2.5303,-2.5303,-2.5303,0.0,0.0,0.0,0.0,0.0,0.0,0.0,0.0,0.0,0.0,0.0,0.0,-2.419,-2.419,-2.419,-2.419,-2.419,-2.419,-2.419,-2.4151,0.0,0.0,0.0,0.0,0.0,0.0,-2.4603,0.0,0.0,0.0,0.0,0.0,0.0,0.0,0.0,0.0,0.0,0.0,0.0,0.0,0.0,0.0,-2.4007,-2.4448,-2.4723,-2.4207,-2.4081,-2.4243,-2.5065,0.0,-2.5984,-2.7677,-2.8214,-2.8522,-2.8929,-2.8994,-2.8833,-2.8282,-2.797,0.0,0.0,0.0,0.0,-2.8521,-2.9567,-3.0301,-3.0558,-3.1825,-3.2375,-3.1825,-3.2045,-3.221,-3.2155,-3.2449,-3.3083,-3.4202,-3.4477,-3.5037,-3.5881,-3.5899,-3.6028,-3.6285,-3.544,-3.499,-3.4954,-3.4174,-3.3807,-3.3807,-3.3807,-3.3578,-3.3112,-3.2061,-3.1364,-3.0942,-3.0159,-3.0328,-3.0956,-3.0564,-3.0558,-3.0784,0.0,0.0,0.0,0.0,0.0,0.0,0.0,0.0,-2.5303,-2.5303,-2.5303,-2.5303,-2.5303,-2.5303,-2.5303,-2.5303,0.0,0.0,0.0,0.0,0.0,0.0,0.0,0.0,0.0,0.0,0.0,0.0,0.0,-2.419,-2.419,-2.419,-2.419,-2.419,-2.419,-2.419,0.0,0.0,0.0,0.0,0.0,0.0,-2.4165,0.0,0.0,0.0,0.0,0.0,0.0,0.0,0.0,0.0,0.0,0.0,0.0,0.0,-2.2632,-2.2987,0.0,-2.3325,-2.3562,-2.3105,-2.3142,0.0,0.0,0.0,0.0,0.0,-2.8316,-2.8522,-2.8929,-2.8994,-2.8851,-2.8338,-2.8246,-2.8154,-2.7842,0.0,-2.8274,-2.9126,-2.9548,-2.9704,-2.9539,-3.1005,-3.1678,-3.0999,-3.1696,-3.2063,-3.1861,-3.219,-3.3113,-3.4717,-3.4772,-3.5048,-3.5724,-3.6224,-3.6596,-3.6887,-3.6234,-3.5789,-3.5477,-3.4633,-3.41,-3.3807,-3.3807,-3.3578,0.0,-3.1586,-3.0875,-3.0577,-2.9072,-2.9314,-3.0415,-2.9776,-2.9878,-3.0369,0.0,0.0,0.0,0.0,0.0,0.0,0.0,0.0,0.0,0.0,0.0,-2.5303,-2.5303,-2.5303,0.0,0.0,0.0,0.0,0.0,0.0,0.0,0.0,0.0,0.0,0.0,0.0,0.0,-2.4495,-2.4303,-2.419,-2.419,0.0,-2.4209,-2.419,-2.4209,-2.4209,0.0,0.0,0.0,0.0,0.0,0.0,0.0,0.0,0.0,0.0,0.0,0.0,0.0,0.0,0.0,0.0,0.0,0.0,0.0,0.0,0.0,0.0,0.0,-2.231,-2.231,-2.231,-2.231,0.0,0.0,0.0,0.0,0.0,0.0,0.0,-2.879,-2.8915,-2.8934,-2.8879,-2.8902,-2.8668,-2.7897,-2.9104,-2.9935,-2.9529,-2.9201,-2.8813,-2.8324,-2.9809,-3.064,-3.0198,-3.0944,-3.1751,-3.2577,-3.2228,-3.2685,-3.4217,-3.4267,-3.4467,-3.4872,-3.6127,-3.7122,-3.7893,-3.7539,-3.6971,-3.6266,-3.5349,-3.4523,-3.3807,-3.3762,-3.3522,-3.2997,-3.1039,-2.998,-2.9383,-2.7521,-2.7672,-2.8963,-2.8647,-2.9385,-3.0647,0.0,0.0,0.0,0.0,0.0,0.0,0.0,0.0,0.0,0.0,0.0,-2.5303,-2.5303,-2.5303,0.0,0.0,0.0,0.0,0.0,0.0,0.0,0.0,0.0,0.0,0.0,0.0,0.0,-2.4495,-2.4303,-2.419,-2.419,-2.4357,0.0,0.0,-2.4357,0.0,0.0,0.0,0.0,0.0,0.0,0.0,0.0,0.0,0.0,0.0,-2.4036,-2.3876,0.0,0.0,0.0,0.0,0.0,0.0,0.0,0.0,-2.231,-2.231,-2.231,0.0,-2.231,-2.231,-2.231,-2.2547,0.0,0.0,0.0,0.0,0.0,0.0,0.0,0.0,-2.8341,-2.7707,-2.7885,-2.8026,-2.7824,-2.8385,-2.8691,-2.8342,-2.822,-2.7918,-2.7219,-2.8829,-2.9863,-2.9743,-3.0782,-3.1751,-3.2577,-3.2228,-3.2295,-3.293,-3.3723,-3.4653,-3.5722,-3.6611,-3.7363,-3.7875,-3.6602,-3.6097,-3.6248,-3.4761,-3.3972,-3.3762,-3.3465,-3.3075,-3.2524,-3.058,-2.9523,-2.9036,-2.7961,-2.8146,-2.9062,-2.9525,-2.9918,-3.0292,0.0,0.0,0.0,0.0,0.0,0.0,0.0,0.0,0.0,0.0,0.0,0.0,0.0,0.0,0.0,0.0,0.0,0.0,0.0,0.0,0.0,0.0,0.0,0.0,0.0,0.0,0.0,0.0,0.0,-2.4284,0.0,0.0,0.0,0.0,0.0,0.0,0.0,0.0,0.0,0.0,-2.4593,0.0,0.0,0.0,0.0,0.0,-2.419,-2.4094,0.0,-2.3917,-2.3816,-2.3566,0.0,0.0,0.0,0.0,-2.231,-2.231,-2.231,-2.231,-2.231,-2.231,-2.231,-2.2496,0.0,0.0,0.0,0.0,0.0,0.0,0.0,0.0,0.0,-2.777,-2.7783,-2.7934,-2.8301,-2.8058,-2.7976,-2.8351,-2.7936,-2.7712,-2.801,-2.9473,-3.0345,-3.0161,-3.1626,-3.2444,-3.2338,-3.2589,-3.2722,-3.2739,-3.3753,-3.4461,-3.4797,-3.6418,-3.7323,-3.756,-3.6783,-3.6389,-3.6248,-3.4757,-3.3868,-3.3494,-3.3075,-3.2745,-3.2396,-3.0748,-2.9989,-2.9674,-2.8727,-2.8822,-2.955,-2.9956,-3.0311,-3.0666,0.0,0.0,0.0,0.0,0.0,0.0,0.0,0.0,0.0,0.0,0.0,0.0,0.0,0.0,0.0,0.0,0.0,0.0,0.0,0.0,0.0,0.0,0.0,0.0,0.0,0.0,0.0,0.0,0.0,0.0,0.0,0.0,-2.4284,0.0,0.0,0.0,0.0,0.0,-2.575,-2.4428,-2.5146,0.0,0.0,0.0,0.0,0.0,0.0,0.0,0.0,-2.419,-2.419,-2.4094,-2.3459,0.0,0.0,0.0,0.0,0.0,-2.231,-2.2321,-2.2349,-2.231,-2.231,-2.2462,0.0,0.0,0.0,0.0,0.0,0.0,0.0,0.0,0.0,0.0,-2.802,-2.8292,-2.9217,-2.837,-2.7996,-2.8898,-2.8094,-2.7956,-2.911,-3.0425,-3.1115,-3.0912,-3.2575,-3.3205,-3.2227,-3.3087,-3.3424,-3.3003,-3.3987,-3.4201,-3.3575,-3.5889,-3.7006,-3.692,-3.7054,-3.6656,-3.5853,-3.4666,-3.3723,-3.3075,-3.2616,-3.2366,-3.2279,-3.1098,-3.0629,-3.0525,-2.9547,-2.955,-3.0125,-3.0243,-3.0666,-3.119,0.0,0.0,0.0,0.0,0.0,0.0,0.0,0.0,0.0,0.0,0.0,0.0,0.0,0.0,0.0,0.0,0.0,0.0,0.0,0.0,0.0,0.0,0.0,0.0,0.0,0.0,0.0,0.0,0.0,0.0,-2.4209,-2.4561,-2.4607,-2.4481,0.0,-2.5403,-2.5458,-2.6264,-2.6062,-2.5237,-2.5348,0.0,0.0,0.0,0.0,0.0,0.0,0.0,0.0,-2.419,-2.419,-2.4113,-2.3753,0.0,0.0,0.0,0.0,0.0,-2.231,-2.2463,-2.2573,-2.2377,-2.231,-2.2344,0.0,0.0,0.0,0.0,0.0,0.0,0.0,-2.6186,-2.7006,0.0,-2.7765,-2.9314,-3.0731,-3.0237,-2.954,-2.9058,-2.883,-2.8557,-2.8081,-2.9493,-3.0637,-3.1262,-3.2218,-3.2858,-3.3015,-3.3372,-3.3424,-3.3003,-3.3987,-3.4438,-3.432,-3.5776,-3.6209,-3.5588,-3.5331,-3.4831,-3.4064,-3.3182,-3.2722,-3.2583,-3.2092,-3.1933,-3.1845,-3.0683,-3.0187,-3.0187,-3.001,-3.0006,-3.0192,-3.0801,-3.1106,-3.119,0.0,0.0,0.0,0.0,0.0,0.0,0.0,0.0,0.0,0.0,0.0,0.0,0.0,0.0,0.0,0.0,0.0,0.0,0.0,0.0,0.0,0.0,0.0,0.0,0.0,0.0,0.0,0.0,0.0,-2.4654,-2.4357,-2.4426,-2.465,-2.5023,0.0,-2.5805,-2.5495,-2.6722,-2.6282,-2.4777,0.0,0.0,0.0,0.0,0.0,0.0,0.0,0.0,0.0,0.0,-2.419,-2.4151,-2.3816,0.0,0.0,0.0,0.0,0.0,-2.2773,-2.2883,-2.2947,-2.2824,-2.2773,-2.2773,-2.2773,0.0,0.0,0.0,0.0,0.0,0.0,0.0,-2.6693,-2.7173,-2.8811,-3.0097,-3.0313,-3.0058,-2.9798,-2.9605,-2.959,-2.9713,-2.9933,-3.1097,-3.1972,-3.2348,-3.273,-3.2875,-3.284,-3.3477,-3.3494,-3.2655,-3.3837,-3.4303,-3.3914,-3.4788,-3.522,-3.5295,-3.455,-3.4039,-3.3667,-3.2616,-3.2127,-3.2109,-3.1677,-3.1487,-3.1452,-3.0934,-3.0683,-3.0683,-3.0683,-3.0683,-3.0734,-3.1072,-3.119,-3.119,0.0,0.0,0.0,0.0,0.0,0.0,0.0,0.0,0.0,0.0,0.0,0.0,0.0,0.0,0.0,0.0,0.0,0.0,0.0,0.0,0.0,0.0,0.0,0.0,0.0,0.0,-2.4911,-2.4731,-2.4799,-2.4727,-2.4495,-2.4339,-2.456,-2.5164,0.0,-2.597,-2.5495,-2.6906,-2.6337,-2.452,0.0,0.0,0.0,0.0,0.0,0.0,0.0,0.0,0.0,0.0,0.0,0.0,0.0,0.0,0.0,-2.3392,-2.3259,-2.3189,-2.3093,-2.3189,-2.33,-2.3212,0.0,-2.3189,-2.3189,0.0,0.0,0.0,0.0,0.0,0.0,-2.6153,-2.6489,-2.8098,-2.9764,-3.0766,-3.0431,-3.0413,-3.0496,-3.0645,-3.0653,-3.1014,-3.1882,-3.2598,-3.3045,-3.3045,-3.3045,-3.284,-3.2366,-3.3273,-3.3355,-3.233,-3.3541,-3.3964,-3.3406,-3.3654,-3.4024,-3.4576,-3.3895,-3.3389,-3.3055,-3.2085,-3.166,-3.1623,-3.1312,-3.119,-3.119,-3.119,-3.119,-3.119,-3.119,-3.119,-3.119,-3.119,-3.1252,-3.1312,0.0,0.0,0.0,0.0,0.0,0.0,0.0,0.0,0.0,0.0,0.0,0.0,0.0,0.0,0.0,0.0,0.0,0.0,0.0,0.0,0.0,0.0,0.0,0.0,0.0,-2.4911,-2.4845,-2.4528,-2.4831,-2.4818,-2.4495,-2.4478,-2.4412,-2.4318,0.0,-2.5458,-2.5458,-2.6319,-2.6153,-2.5329,-2.5384,0.0,0.0,0.0,0.0,0.0,0.0,0.0,0.0,0.0,0.0,0.0,0.0,0.0,-2.3692,-2.3671,-2.3437,-2.3117,-2.2822,-2.3189,-2.3588,-2.3277,0.0,0.0,-2.3189,-2.3779,0.0,-2.3419,0.0,0.0,0.0,-2.5013,-2.6489,-2.8218,-2.9791,-3.1315,-3.2733,-3.2931,-3.278,-3.2373,-3.2325,-3.236,-3.2433,-3.2517,-3.255,-3.255,-3.255,-3.235,-3.1897,-3.2622,-3.2844,-3.2313,-3.3068,-3.3457,-3.3406,-3.2754,-3.2456,-3.2507,-3.2942,-3.2527,-3.1375,-3.1286,-3.1252,-3.1252,-3.123,-3.119,-3.119,-3.119,-3.119,-3.119,-3.119,-3.119,-3.119,-3.119,-3.1449,-3.1696,0.0,0.0,0.0,0.0,0.0,0.0,0.0,0.0,0.0,0.0,0.0,0.0,0.0,0.0,0.0,0.0,0.0,0.0,0.0,0.0,0.0,0.0,0.0,-2.5061,-2.4804,-2.4924,-2.4949,-2.4804,-2.4949,-2.4762,-2.4321,-2.4426,0.0,0.0,0.0,-2.5127,-2.4704,-2.5511,-2.5383,-2.4649,-2.4649,-2.4465,0.0,0.0,0.0,0.0,0.0,0.0,0.0,0.0,-2.419,-2.419,0.0,-2.4113,-2.4016,-2.4016,-2.3917,-2.3795,-2.3671,-2.3816,-2.3917,-2.3588,0.0,0.0,0.0,0.0,0.0,-2.3366,-2.4793,0.0,0.0,-2.7272,-2.9232,-2.8909,-3.1011,-3.2774,-3.3153,-3.3214,-3.3014,-3.255,-3.2484,-3.2578,-3.2791,-3.2632,-3.2679,-3.3156,-3.2511,-3.2092,-3.223,-3.2421,-3.2393,-3.1994,-3.2451,-3.2493,-3.2036,-3.2188,-3.2053,-3.1596,-3.1815,-3.1918,-3.185,-3.1393,-3.119,-3.119,-3.119,-3.119,-3.119,-3.119,-3.119,-3.119,-3.119,-3.119,-3.119,-3.119,-3.1291,-3.1449,0.0,0.0,0.0,0.0,0.0,0.0,0.0,0.0,0.0,0.0,0.0,0.0,0.0,0.0,0.0,0.0,0.0,0.0,0.0,0.0,0.0,0.0,0.0,-2.516,-2.4883,-2.4949,-2.4962,-2.4845,-2.4898,-2.4693,-2.419,0.0,0.0,0.0,0.0,-2.4704,-2.4245,-2.4777,-2.4685,-2.419,-2.419,-2.419,0.0,0.0,0.0,0.0,0.0,0.0,0.0,0.0,0.0,0.0,0.0,0.0,0.0,-2.4074,-2.4132,-2.417,-2.4074,-2.4036,-2.3958,0.0,0.0,0.0,0.0,0.0,0.0,-2.3904,-2.4568,-2.5476,-2.5971,0.0,-3.0061,-2.94,-3.1596,-3.3361,-3.3214,-3.3075,-3.2858,-3.255,-3.2484,-3.2663,-3.3038,-3.2735,-3.2696,-3.3209,-3.2354,-3.1897,-3.2092,-3.2004,-3.1839,-3.162,-3.1827,-3.1698,-3.119,-3.1681,-3.1799,-3.1529,-3.1309,-3.1444,-3.1918,-3.1427,-3.119,-3.119,-3.119,-3.119,-3.119,-3.119,-3.119,-3.119,-3.119,-3.119,-3.119,-3.119,-3.119,-3.123,0.0,0.0,0.0,0.0,0.0,0.0,0.0,0.0,0.0,0.0,0.0,0.0,0.0,0.0,0.0,0.0,0.0,0.0,0.0,0.0,0.0,0.0,0.0,-2.5203,-2.501,-2.4979,-2.4831,-2.4495,-2.47,-2.4591,-2.419,-2.441,0.0,0.0,0.0,0.0,-2.419,-2.419,-2.419,-2.419,-2.419,-2.419,-2.419,0.0,0.0,0.0,0.0,0.0,0.0,0.0,-2.419,0.0,0.0,0.0,0.0,0.0,-2.3955,-2.4113,-2.3795,-2.3692,-2.3628,0.0,0.0,0.0,0.0,0.0,0.0,-2.5082,-2.4919,-2.5389,-2.6989,-2.7638,-2.8287,-2.9493,-3.1255,-3.2631,-3.3105,-3.2777,-3.2484,-3.2484,-3.2484,-3.2681,-3.3154,-3.2763,-3.2484,-3.2502,-3.2074,-3.164,-3.123,-3.119,-3.119,-3.119,-3.119,-3.119,-3.119,-3.1207,-3.1562,-3.2256,-3.1546,-3.1207,-3.1207,-3.119,-3.119,-3.119,-3.119,-3.119,-3.119,-3.119,-3.119,-3.119,-3.119,-3.119,-3.119,-3.119,-3.119,-3.119,0.0,0.0,0.0,0.0,0.0,0.0,0.0,0.0,0.0,0.0,0.0,0.0,0.0,0.0,0.0,0.0,0.0,0.0,0.0,0.0,0.0,0.0,0.0,0.0,0.0,0.0,-2.4459,-2.4495,-2.47,-2.4591,0.0,0.0,0.0,-2.419,0.0,0.0,-2.419,-2.419,-2.419,-2.419,-2.419,-2.419,-2.419,0.0,0.0,0.0,0.0,0.0,0.0,0.0,0.0,0.0,0.0,0.0,0.0,-2.3795,-2.3774,-2.3816,-2.3714,-2.3522,0.0,0.0,0.0,0.0,0.0,0.0,0.0,0.0,-2.5599,-2.588,-2.6073,-2.7561,-2.8588,-2.8135,-3.0132,-3.1781,-3.1907,-3.2261,-3.2384,-3.2074,-3.2316,-3.2527,-3.255,-3.2209,-3.2123,-3.232,-3.1739,-3.1449,-3.1603,-3.1351,-3.1312,-3.1603,-3.1351,-3.119,-3.119,-3.1698,-3.1799,-3.1512,-3.1816,-3.1952,-3.1935,-3.1427,-3.119,-3.119,-3.119,-3.119,-3.119,-3.119,-3.119,-3.119,-3.119,-3.119,-3.119,-3.119,-3.119,-3.123,0.0,0.0,0.0,0.0,0.0,0.0,0.0,0.0,0.0,0.0,0.0,0.0,0.0,0.0,0.0,0.0,0.0,0.0,0.0,0.0,0.0,0.0,0.0,0.0,0.0,-2.441,-2.4266,0.0,0.0,0.0,0.0,0.0,0.0,-2.419,0.0,-2.419,-2.419,-2.419,-2.419,-2.419,-2.419,-2.419,-2.419,0.0,0.0,0.0,0.0,0.0,0.0,0.0,0.0,0.0,0.0,0.0,0.0,-2.3588,-2.3692,-2.3837,-2.3566,0.0,0.0,0.0,0.0,-2.4628,-2.4876,0.0,0.0,0.0,-2.6342,-2.6264,-2.6485,-2.7569,-2.8446,-2.8513,-2.9983,-3.121,-3.1526,-3.1777,-3.1878,-3.1603,-3.1823,-3.1996,-3.2102,-3.1918,-3.1869,-3.2102,-3.1688,-3.147,-3.1582,-3.1312,-3.1329,-3.1565,-3.1312,-3.119,-3.119,-3.163,-3.163,-3.1207,-3.1647,-3.185,-3.1833,-3.1393,-3.119,-3.119,-3.119,-3.119,-3.119,-3.119,-3.119,-3.119,-3.119,-3.119,-3.119,-3.119,-3.119,-3.123,0.0,0.0,0.0,0.0,0.0,0.0,0.0,0.0,0.0,0.0,0.0,0.0,0.0,0.0,0.0,0.0,0.0,0.0,0.0,0.0,0.0,0.0,0.0,0.0,0.0,0.0,0.0,0.0,0.0,0.0,0.0,0.0,-2.419,-2.419,0.0,-2.419,-2.419,-2.419,-2.419,-2.419,-2.419,-2.419,-2.419,-2.419,0.0,0.0,0.0,0.0,0.0,0.0,0.0,0.0,0.0,0.0,-2.3588,-2.33,-2.361,-2.3935,-2.3412,0.0,0.0,0.0,0.0,0.0,-2.571,-2.5962,-2.6514,-2.7478,-2.6906,-2.6549,-2.7584,-2.753,-2.7892,-2.9603,-3.0206,-3.0698,-3.1441,-3.1312,-3.1123,-3.119,-3.123,-3.1372,-3.1716,-3.1789,-3.1789,-3.1752,-3.1752,-3.1603,-3.123,-3.119,-3.119,-3.119,-3.119,-3.119,-3.119,-3.119,-3.119,-3.119,-3.119,-3.119,-3.119,-3.119,-3.119,-3.119,-3.119,-3.119,-3.119,-3.119,-3.119,-3.119,-3.119,-3.119,-3.1207,-3.1275,-3.1258,-3.1207,0.0,0.0,0.0,0.0,0.0,0.0,0.0,0.0,0.0,0.0,0.0,0.0,0.0,0.0,0.0,0.0,0.0,0.0,0.0,0.0,0.0,0.0,0.0,0.0,0.0,0.0,0.0,0.0,0.0,0.0,0.0,0.0,0.0,-2.419,0.0,-2.419,-2.419,-2.419,-2.419,-2.419,-2.419,-2.419,-2.419,-2.419,-2.4054,0.0,0.0,0.0,0.0,0.0,0.0,0.0,-2.3392,-2.3323,-2.3282,-2.3212,-2.3117,-2.3137,0.0,-2.3677,0.0,0.0,0.0,-2.6454,-2.6454,-2.6521,-2.65,-2.6153,-2.6345,-2.6653,-2.6905,-2.6906,-2.6976,-2.7399,-2.7981,-2.8677,-2.9496,-3.0031,-3.0548,-3.1123,-3.147,-3.1565,-3.1351,-3.1585,-3.166,-3.1351,-3.1312,-3.1291,-3.119,-3.119,-3.119,-3.119,-3.119,-3.119,-3.119,-3.119,-3.119,-3.119,-3.119,-3.119,-3.119,-3.119,-3.119,-3.119,-3.119,-3.119,-3.119,-3.119,-3.119,-3.119,-3.119,-3.119,-3.1258,-3.1833,-3.1681,-3.1275,0.0,0.0,0.0,0.0,0.0,0.0,0.0,0.0,0.0,0.0,0.0,0.0,0.0,0.0,0.0,0.0,0.0,0.0,0.0,0.0,0.0,0.0,0.0,0.0,0.0,0.0,0.0,0.0,0.0,0.0,0.0,0.0,0.0,-2.419,0.0,-2.419,-2.419,-2.419,-2.419,-2.419,-2.419,-2.419,-2.419,-2.419,-2.4094,-2.3958,-2.4151,0.0,0.0,0.0,0.0,0.0,0.0,0.0,-2.3165,-2.3021,-2.2947,-2.2977,0.0,0.0,0.0,0.0,0.0,-2.6691,-2.6691,-2.6691,-2.659,-2.6201,-2.642,-2.6691,-2.6691,-2.6691,-2.681,-2.7182,-2.7571,-2.8095,-2.8873,-2.9313,-2.9854,-3.0581,-3.0861,-3.1056,-3.1196,-3.1389,-3.1411,-3.123,-3.119,-3.119,-3.119,-3.119,-3.119,-3.119,-3.119,-3.119,-3.119,-3.119,-3.119,-3.119,-3.119,-3.119,-3.119,-3.119,-3.119,-3.119,-3.119,-3.119,-3.119,-3.119,-3.119,-3.119,-3.119,-3.141,-3.1715,-3.1749,-3.1968,-3.2256,0.0,0.0,0.0,0.0,0.0,0.0,0.0,0.0,0.0,0.0,0.0,0.0,0.0,0.0,0.0,0.0,0.0,0.0,0.0,0.0,0.0,0.0,0.0,0.0,0.0,0.0,0.0,0.0,0.0,0.0,0.0,0.0,0.0,-2.419,0.0,-2.419,-2.419,-2.419,-2.419,-2.419,-2.419,-2.419,-2.419,-2.419,-2.417,-2.4113,-2.417,-2.417,-2.4113,-2.4113,0.0,0.0,0.0,0.0,-2.2989,-2.2772,-2.2848,-2.295,0.0,0.0,0.0,0.0,0.0,0.0,-2.6691,-2.6691,-2.6691,-2.6691,-2.6691,-2.6691,-2.6691,-2.6691,-2.6894,-2.752,-2.7621,-2.7892,-2.867,-2.8789,-2.9059,-2.982,-2.9922,-3.0209,-3.0937,-3.1004,-3.1055,-3.119,-3.119,-3.114,-3.1021,-3.1123,-3.114,-3.1004,-3.1123,-3.119,-3.119,-3.119,-3.119,-3.119,-3.119,-3.119,-3.119,-3.119,-3.119,-3.119,-3.119,-3.119,-3.119,-3.119,-3.119,-3.119,-3.119,-3.1562,-3.2053,-3.1698,-3.2188,-3.2983,0.0,0.0,0.0,0.0,0.0,0.0,0.0,0.0,0.0,0.0,0.0,0.0,0.0,0.0,0.0,0.0,0.0,0.0,-2.5303,0.0,0.0,-2.5303,-2.5088,-2.493,0.0,0.0,0.0,0.0,0.0,0.0,0.0,0.0,0.0,-2.419,0.0,0.0,-2.419,-2.419,-2.419,-2.419,-2.419,-2.419,-2.419,-2.419,-2.4016,-2.3795,-2.4094,-2.4016,-2.3774,-2.3774,-2.3544,0.0,0.0,0.0,-2.2453,-2.2634,-2.2563,-2.2541,0.0,0.0,0.0,0.0,-2.6691,-2.6691,0.0,0.0,-2.6691,-2.6691,-2.6691,-2.6691,-2.6691,-2.6691,-2.6725,-2.6826,-2.6843,-2.7114,-2.7875,-2.7977,-2.8264,-2.9042,-2.9127,-2.9431,-3.0192,-3.026,-3.0514,-3.114,-3.119,-3.092,-3.0294,-3.0852,-3.0903,-3.0277,-3.0869,-3.119,-3.119,-3.119,-3.119,-3.119,-3.119,-3.119,-3.119,-3.119,-3.119,-3.119,-3.119,-3.119,-3.119,-3.119,-3.119,-3.119,-3.119,-3.1258,-3.1478,-3.2679,-3.2425,-3.1749,0.0,0.0,0.0,0.0,0.0,0.0,0.0,0.0,0.0,0.0,0.0,0.0,0.0,0.0,0.0,-2.5303,-2.5303,-2.5303,-2.5303,-2.5303,-2.5303,-2.5303,-2.5099,-2.4974,-2.4917,0.0,0.0,0.0,0.0,0.0,0.0,-2.419,-2.419,0.0,0.0,0.0,0.0,0.0,-2.419,-2.419,-2.419,-2.419,-2.419,-2.419,-2.4113,-2.3958,-2.3937,-2.3816,-2.3671,-2.3482,-2.3323,-2.3165,-2.2972,0.0,0.0,0.0,-2.2388,-2.2462,-2.319,0.0,0.0,0.0,-2.6082,-2.6184,-2.6607,-2.6691,-2.6691,-2.6691,-2.6691,-2.6691,-2.6691,-2.6691,-2.6691,-2.6691,-2.6691,-2.681,-2.7148,-2.7182,-2.7469,-2.8247,-2.8332,-2.8636,-2.9397,-2.9482,-2.9617,-2.9922,-2.9956,-2.982,-2.9499,-2.9786,-2.9803,-2.9482,-3.0192,-3.0581,-3.0581,-3.0987,-3.119,-3.119,-3.119,-3.119,-3.119,-3.119,-3.119,-3.119,-3.119,-3.119,-3.119,-3.119,-3.119,-3.119,-3.119,-3.1444,-3.1833,-3.207,-3.2273,-3.251,0.0,0.0,0.0,0.0,0.0,0.0,0.0,0.0,0.0,0.0,0.0,0.0,0.0,0.0,0.0,0.0,-2.5303,-2.5303,-2.5303,-2.5303,-2.5303,-2.5303,-2.5152,-2.5046,-2.501,0.0,0.0,0.0,0.0,0.0,-2.419,-2.419,-2.419,0.0,-2.419,0.0,0.0,0.0,0.0,-2.419,-2.419,-2.419,-2.419,-2.419,-2.4151,-2.4036,-2.3795,-2.3649,-2.3544,-2.3282,-2.3141,-2.3021,-2.2772,-2.266,0.0,0.0,0.0,-2.2462,0.0,0.0,0.0,0.0,-2.5456,-2.5744,0.0,-2.6573,-2.6691,-2.6691,-2.6691,-2.6691,-2.6691,-2.6691,-2.6691,-2.6691,-2.6691,-2.6691,-2.6691,-2.6691,-2.6894,-2.7469,-2.7537,-2.7841,-2.8619,-2.8687,-2.8772,-2.8958,-2.9011,-2.889,-2.8704,-2.8873,-2.889,-2.8687,-2.9431,-2.9922,-3.0108,-3.0835,-3.119,-3.119,-3.119,-3.119,-3.119,-3.119,-3.119,-3.119,-3.119,-3.119,-3.119,-3.119,-3.119,-3.119,-3.119,-3.1529,-3.1968,-3.1596,-3.2053,-3.2814,0.0,0.0,0.0,0.0,0.0,0.0,0.0,0.0,0.0,0.0,0.0,0.0,0.0,-2.5303,-2.5303,-2.5303,-2.5303,-2.5303,-2.5303,-2.5303,-2.5303,-2.5303,-2.5284,0.0,-2.4991,0.0,0.0,0.0,0.0,0.0,-2.419,-2.419,-2.419,-2.419,-2.419,-2.419,-2.419,0.0,0.0,0.0,-2.419,-2.419,-2.419,-2.419,-2.3996,-2.3714,-2.3714,-2.35,-2.3212,-2.3212,-2.2996,-2.2721,-2.2721,-2.2527,-2.2338,0.0,0.0,0.0,0.0,0.0,0.0,-2.434,0.0,0.0,0.0,-2.6201,-2.6691,-2.6691,-2.6691,-2.6691,-2.6691,-2.6691,-2.6691,-2.6691,-2.6691,-2.6691,-2.6691,-2.6691,-2.6708,-2.6742,-2.6759,-2.7046,-2.7772,-2.784,-2.8197,-2.8924,-2.9011,-2.8653,-2.7891,-2.8586,-2.8653,-2.7909,-2.8636,-2.9381,-3.0108,-3.0835,-3.119,-3.119,-3.119,-3.119,-3.119,-3.119,-3.119,-3.119,-3.119,-3.119,-3.119,-3.119,-3.119,-3.119,-3.119,-3.1207,-3.1326,-3.1985,-3.1833,-3.1512,0.0,0.0,0.0,0.0,0.0,0.0,0.0,0.0,0.0,0.0,0.0,0.0,0.0,-2.5303,-2.5303,-2.5303,-2.5303,-2.5303,-2.5303,-2.5303,-2.5303,-2.5303,-2.5303,-2.5264,-2.5184,0.0,0.0,0.0,0.0,-2.4339,-2.419,-2.419,-2.419,-2.419,-2.419,-2.419,-2.419,-2.419,0.0,0.0,0.0,-2.419,-2.417,-2.3976,-2.3795,-2.3671,-2.3477,-2.33,-2.3189,-2.3189,-2.2972,-2.2695,-2.2695,-2.2527,-2.231,-2.231,-2.231,-2.2361,0.0,0.0,0.0,-2.3596,-2.3985,-2.4441,-2.5389,-2.5812,-2.6133,-2.659,-2.6691,-2.6691,-2.6691,-2.6691,-2.6691,-2.6691,-2.6691,-2.6691,-2.6691,-2.6691,-2.6691,-2.6691,-2.6691,-2.6793,-2.7063,-2.7097,-2.7215,-2.7486,-2.752,-2.7385,-2.7114,-2.7368,-2.7385,-2.7114,-2.7841,-2.8839,-3.0091,-3.0362,-3.0734,-3.119,-3.119,-3.119,-3.119,-3.119,-3.119,-3.119,-3.119,-3.119,-3.119,-3.119,-3.119,-3.119,-3.119,-3.119,-3.1224,-3.1495,-3.141,-3.1275,0.0,0.0,0.0,0.0,0.0,0.0,0.0,0.0,0.0,0.0,0.0,0.0,0.0,0.0,-2.5303,-2.5303,-2.5303,-2.5303,-2.5303,-2.5303,-2.5303,-2.5303,-2.5303,-2.5303,-2.5303,0.0,0.0,0.0,0.0,0.0,0.0,-2.4228,-2.419,-2.419,-2.419,-2.419,0.0,0.0,0.0,-2.419,0.0,-2.419,-2.417,-2.3937,-2.3795,-2.3671,-2.3437,-2.33,-2.3189,-2.3069,-2.288,-2.2669,-2.2599,-2.2436,-2.231,-2.231,-2.231,-2.231,-2.231,0.0,0.0,0.0,-2.3224,-2.3663,-2.4644,-2.5253,-2.5744,-2.6234,-2.6522,-2.6691,-2.6691,-2.6691,-2.6691,-2.6691,-2.6691,-2.6691,-2.6691,-2.6691,-2.6691,-2.6691,-2.6691,-2.6691,-2.6691,-2.6691,-2.6691,-2.6691,-2.6691,-2.6691,-2.6691,-2.6691,-2.6691,-2.6691,-2.7689,-2.8704,-2.9719,-2.9736,-3.0226,-3.119,-3.0954,-3.0954,-3.119,-3.119,-3.119,-3.119,-3.119,-3.119,-3.119,-3.119,-3.119,-3.119,-3.119,-3.119,-3.119,-3.119,-3.119,-3.119,0.0,0.0,0.0,0.0,0.0,0.0,0.0,0.0,0.0,0.0,0.0,0.0,0.0,0.0,0.0,-2.5303,-2.5303,-2.5303,-2.5303,-2.5303,-2.5303,-2.5303,-2.5303,-2.5303,-2.5303,0.0,0.0,0.0,0.0,0.0,0.0,0.0,-2.419,-2.419,-2.419,-2.419,-2.419,0.0,-2.419,-2.419,-2.419,-2.419,-2.419,-2.419,-2.4014,-2.3728,-2.3728,-2.3535,-2.32,-2.2857,-2.2738,-2.266,-2.2388,-2.231,-2.231,-2.231,-2.231,-2.231,0.0,0.0,0.0,0.0,-2.2835,-2.3376,-2.3393,-2.4509,-2.5558,-2.5592,-2.6167,-2.6674,-2.6691,-2.6691,-2.6691,-2.6691,-2.6691,-2.6691,-2.6691,-2.6691,-2.6691,-2.6691,-2.6691,-2.6691,-2.6691,-2.6691,-2.6691,-2.6691,-2.6691,-2.6691,-2.6691,-2.6691,-2.6691,-2.6691,-2.8129,-2.8924,-2.8941,-2.9011,-2.9702,-3.1123,-3.0429,-3.048,-3.1157,-3.1157,-3.1173,-3.119,-3.119,-3.119,-3.119,-3.119,-3.119,-3.119,-3.119,-3.119,-3.119,-3.119,-3.119,-3.119,0.0,0.0,0.0,0.0,0.0,0.0,0.0,0.0,0.0,0.0,0.0,0.0,0.0,-2.5303,-2.5303,-2.5303,-2.5303,-2.5303,-2.5303,-2.5303,-2.5303,-2.5303,-2.5303,-2.5303,-2.5303,0.0,0.0,0.0,0.0,0.0,0.0,0.0,0.0,0.0,-2.419,-2.419,-2.419,-2.419,0.0,-2.419,-2.419,-2.419,-2.417,-2.3917,-2.4136,-2.4536,-2.4248,-2.4248,-2.4382,-2.3989,-2.3503,-2.2972,-2.2453,-2.231,-2.231,-2.231,-2.231,-2.231,-2.231,0.0,0.0,0.0,0.0,0.0,-2.3274,-2.3714,-2.4306,-2.5389,-2.5761,-2.6065,-2.659,-2.6691,-2.6691,-2.6691,-2.6691,-2.6691,-2.6691,-2.6691,-2.6691,-2.6691,-2.6691,-2.6691,-2.6691,-2.6691,-2.6691,-2.6691,-2.6691,-2.6691,-2.6691,-2.6691,-2.6691,-2.6691,-2.7097,-2.7588,-2.8146,-2.8704,-2.9178,-2.96,-2.9939,-3.0226,-3.0412,-3.0412,-3.07,-3.119,-3.119,-3.119,-3.119,-3.119,-3.119,-3.119,-3.119,-3.119,-3.119,-3.119,-3.119,-3.119,0.0,0.0,0.0,0.0,0.0,0.0,0.0,0.0,0.0,0.0,0.0,0.0,0.0,0.0,-2.5303,-2.5303,-2.5303,-2.5303,-2.5303,-2.5303,-2.5303,-2.5303,-2.5303,-2.5264,-2.5192,0.0,0.0,0.0,0.0,0.0,0.0,0.0,0.0,0.0,0.0,0.0,0.0,0.0,0.0,-2.3996,-2.3996,-2.3996,-2.4032,-2.4301,-2.4614,-2.4892,-2.5152,-2.5085,-2.4892,-2.501,-2.4462,-2.3559,-2.272,-2.2463,-2.2436,-2.2321,-2.231,0.0,0.0,0.0,0.0,-2.231,0.0,0.0,-2.2852,-2.3173,-2.363,-2.4509,-2.4932,-2.5372,-2.6116,-2.6234,-2.6336,-2.664,-2.6691,-2.6691,-2.6691,-2.6691,-2.681,-2.7131,-2.7165,-2.7165,-2.7165,-2.7165,-2.7029,-2.6708,-2.6691,-2.6691,-2.6691,-2.6996,-2.7012,-2.6708,-2.6996,-2.7385,-2.7789,-2.796,-2.8349,-2.9028,-2.9431,-2.9803,-3.0125,-3.0429,-3.0784,-3.119,-3.119,-3.119,-3.119,-3.119,-3.119,-3.119,-3.119,-3.119,-3.119,-3.119,-3.119,-3.119,0.0,0.0,0.0,0.0,0.0,0.0,0.0,0.0,0.0,0.0,0.0,0.0,0.0,0.0,0.0,-2.5303,-2.5303,-2.5303,-2.5303,-2.5303,-2.5303,-2.5303,-2.5303,-2.5214,-2.5034,0.0,0.0,0.0,0.0,0.0,0.0,0.0,0.0,0.0,0.0,0.0,0.0,0.0,-2.3671,-2.3692,-2.3671,-2.3631,-2.3743,-2.4871,-2.511,-2.5026,-2.6176,-2.5923,-2.5129,-2.5793,-2.5332,-2.4282,-2.3206,-2.2859,-2.2806,-2.2411,-2.2361,0.0,0.0,0.0,0.0,-2.231,-2.231,0.0,-2.231,-2.2818,-2.3291,-2.3376,-2.39,-2.4594,-2.5274,-2.5409,-2.5612,-2.6303,-2.6522,-2.6657,-2.6691,-2.6691,-2.6945,-2.7621,-2.7689,-2.7689,-2.7689,-2.7689,-2.7418,-2.6742,-2.6691,-2.6691,-2.6691,-2.7334,-2.7385,-2.6708,-2.7351,-2.7689,-2.7689,-2.7114,-2.7469,-2.8738,-2.8943,-2.933,-3.0006,-3.0734,-3.1123,-3.119,-3.119,-3.119,-3.119,-3.119,-3.119,-3.119,-3.119,-3.119,-3.119,-3.119,-3.119,-3.119,-2.5703,0.0,0.0,0.0,0.0,0.0,0.0,0.0,0.0,0.0,0.0,0.0,0.0,0.0,0.0,0.0,-2.5303,-2.5303,-2.5303,-2.5303,-2.5303,-2.5303,-2.5303,-2.5274,-2.5234,-2.5088,0.0,0.0,0.0,0.0,0.0,0.0,0.0,0.0,0.0,0.0,0.0,0.0,-2.3437,-2.3671,-2.3414,-2.33,-2.3389,-2.4195,-2.4871,-2.5478,-2.6365,-2.6535,-2.6269,-2.5788,-2.5332,-2.4836,-2.3989,-2.3932,-2.3918,-2.2649,-2.2733,-2.3054,-2.2462,-2.231,-2.231,-2.231,-2.231,0.0,-2.231,-2.2412,-2.2682,-2.3274,-2.3511,-2.3742,-2.4165,-2.4215,-2.4331,-2.4623,-2.5546,-2.6314,-2.6657,-2.6691,-2.6742,-2.6894,-2.6911,-2.6911,-2.6911,-2.6911,-2.6843,-2.6708,-2.6691,-2.6691,-2.6691,-2.6843,-2.6843,-2.6691,-2.6843,-2.6911,-2.6911,-2.7368,-2.7452,-2.7148,-2.8435,-2.9059,-2.9228,-2.9973,-3.0632,-3.119,-3.119,-3.119,-3.119,-3.119,-3.119,-3.119,-3.119,-3.119,-3.119,-3.119,-3.119,-3.119,-2.5703,0.0,0.0,0.0,0.0,0.0,0.0,0.0,0.0,0.0,0.0,0.0,0.0,0.0,0.0,0.0,0.0,-2.5303,-2.5303,-2.5303,-2.5264,-2.5152,-2.5152,-2.5065,-2.4891,-2.4809,-2.4663,0.0,0.0,0.0,0.0,0.0,0.0,0.0,0.0,0.0,0.0,0.0,-2.3392,-2.3671,-2.3141,-2.3045,-2.3277,-2.4074,-2.458,-2.5022,-2.5844,-2.641,-2.6613,-2.5782,-2.5412,-2.5207,-2.4667,-2.4367,-2.4018,-2.3112,-2.3105,-2.3241,-2.2513,-2.231,-2.231,-2.231,-2.231,0.0,0.0,-2.231,-2.2513,-2.3241,-2.3105,-2.3131,-2.4024,-2.3717,-2.3457,-2.3976,-2.4658,-2.5108,-2.4975,-2.6285,-2.7249,-2.7249,-2.7249,-2.7249,-2.7249,-2.7604,-2.7672,-2.7283,-2.6911,-2.6691,-2.6691,-2.7046,-2.708,-2.6708,-2.7063,-2.708,-2.6691,-2.7063,-2.7063,-2.6708,-2.8247,-2.9011,-2.9062,-3.0142,-3.0852,-3.119,-3.119,-3.119,-3.119,-3.119,-3.119,-3.119,-3.119,-3.119,-3.119,-3.119,-3.119,-3.119,-2.5703,0.0,0.0,0.0,0.0,0.0,0.0,0.0,0.0,0.0,0.0,0.0,0.0,0.0,0.0,0.0,0.0,-2.5303,-2.5303,-2.5303,-2.5214,-2.501,-2.501,-2.4858,-2.4559,-2.4528,-2.4428,0.0,0.0,0.0,0.0,0.0,0.0,0.0,0.0,0.0,0.0,0.0,-2.3437,-2.3649,-2.2972,-2.2873,-2.3182,-2.3925,-2.4173,-2.4252,-2.5086,-2.6003,-2.6667,-2.5738,-2.5517,-2.5543,-2.4979,-2.4545,-2.4093,-2.3396,-2.3376,-2.341,-2.2547,-2.231,-2.231,-2.231,-2.231,-2.231,0.0,0.0,0.0,-2.3241,-2.2818,-2.2738,-2.4113,-2.3348,-2.2733,-2.3505,-2.3945,-2.3923,-2.3147,-2.5612,-2.7406,-2.7157,-2.7328,-2.7515,-2.7649,-2.8373,-2.8454,-2.7573,-2.7159,-2.6859,-2.6556,-2.7484,-2.7621,-2.6725,-2.7435,-2.7452,-2.6708,-2.6691,-2.6776,-2.6928,-2.8315,-2.9059,-2.9245,-3.0581,-3.119,-3.119,-3.119,-3.119,-3.119,-3.119,-3.119,-3.119,-3.119,-3.119,-3.119,-3.119,-3.119,-3.119,-2.5703,-2.5703,0.0,0.0,0.0,0.0,0.0,0.0,0.0,0.0,0.0,0.0,-2.5303,-2.5303,-2.5303,0.0,-2.5303,-2.5303,-2.5303,-2.5303,-2.5214,-2.501,-2.501,-2.4924,-2.4775,-2.4591,-2.4495,-2.4461,0.0,0.0,0.0,0.0,0.0,0.0,-2.419,0.0,0.0,0.0,-2.3671,-2.3649,-2.3049,-2.2781,-2.2807,-2.3311,-2.3522,-2.3578,-2.4339,-2.5548,-2.664,-2.552,-2.557,-2.5901,-2.4535,-2.4729,-2.5028,-2.3004,-2.3342,-2.4052,-2.2682,-2.231,-2.231,-2.231,-2.231,-2.231,-2.231,0.0,-2.2513,-2.3241,0.0,-2.2635,-2.3767,0.0,0.0,-2.2472,-2.3496,-2.3813,-2.2639,-2.4796,-2.6008,-2.4749,-2.5537,-2.6465,-2.7127,-2.78,-2.7683,-2.6478,-2.7343,-2.742,-2.6151,-2.783,-2.818,-2.6742,-2.7435,-2.7452,-2.6708,-2.6691,-2.7029,-2.7671,-2.8569,-2.933,-3.0006,-3.0818,-3.119,-3.119,-3.119,-3.119,-3.119,-3.119,-3.119,-3.119,-3.119,-3.119,-3.119,-3.119,-3.119,-3.119,-2.5703,-2.5703,0.0,0.0,0.0,0.0,0.0,0.0,0.0,0.0,0.0,0.0,-2.5303,-2.5303,-2.5303,-2.5303,-2.5303,-2.5303,-2.5303,-2.5303,0.0,-2.4891,-2.4877,-2.4756,-2.4461,-2.4375,-2.4339,-2.4339,-2.4247,0.0,0.0,0.0,0.0,0.0,-2.419,0.0,-2.417,-2.3837,-2.3816,-2.3917,-2.3087,-2.284,-2.2958,-2.2822,-2.2767,-2.288,-2.3813,-2.4431,-2.4879,-2.5253,-2.5022,-2.468,-2.5364,-2.4985,-2.4239,-2.3714,-2.3697,-2.363,-2.2598,-2.2615,-2.2835,-2.2412,-2.2632,-2.2835,-2.2412,-2.231,-2.2513,-2.3241,0.0,0.0,0.0,0.0,0.0,0.0,-2.2528,-2.2478,-2.2419,-2.3475,-2.4209,-2.4207,-2.4975,-2.5816,-2.6545,-2.6863,-2.6792,-2.6286,-2.6704,-2.6742,-2.6128,-2.7271,-2.7433,-2.6454,-2.7048,-2.6886,-2.5835,-2.6139,-2.6447,-2.6781,-2.7801,-2.8704,-2.9482,-3.0226,-3.0801,-3.119,-3.119,-3.119,-3.119,-3.119,-3.119,-3.119,-3.119,-3.119,-3.119,-3.119,-3.119,-3.119,-2.5703,0.0,0.0,0.0,0.0,0.0,0.0,0.0,-2.5322,-2.5303,-2.5303,-2.5303,-2.5303,-2.5303,-2.5303,-2.5303,-2.5303,-2.5303,-2.5303,-2.5303,-2.516,-2.4869,-2.4832,-2.4639,-2.4284,-2.4228,-2.419,-2.419,0.0,0.0,0.0,0.0,0.0,0.0,0.0,-2.419,-2.417,-2.3937,-2.3876,-2.3858,-2.3117,-2.2873,-2.2908,-2.247,-2.231,-2.2406,-2.3196,-2.3437,-2.3562,-2.4644,-2.4425,-2.3968,-2.5575,-2.5118,-2.4069,-2.4421,-2.4255,-2.3799,-2.2868,-2.2987,-2.3224,-2.2496,-2.2699,-2.297,-2.2429,-2.231,-2.2513,-2.3241,-2.2818,0.0,0.0,0.0,-2.1996,-2.2599,0.0,-2.1811,-2.2258,-2.274,-2.3271,-2.373,-2.4657,-2.5481,-2.5989,-2.6186,-2.6176,-2.5863,-2.6103,-2.6176,-2.6002,-2.6726,-2.686,-2.623,-2.6798,-2.6477,-2.5221,-2.5726,-2.6112,-2.631,-2.7183,-2.8123,-2.9008,-2.977,-3.0395,-3.0903,-3.1106,-3.119,-3.119,-3.119,-3.119,-3.119,-3.119,-3.119,-3.119,-3.119,-3.119,-3.119,-2.5703,-2.5703,0.0,0.0,0.0,0.0,0.0,-2.5409,-2.537,-2.5303,-2.5303,-2.5303,-2.5303,-2.5303,-2.5303,-2.5303,-2.5303,-2.5303,-2.5303,-2.5303,-2.5214,-2.501,-2.4883,-2.47,-2.4495,-2.4303,-2.419,-2.419,0.0,0.0,0.0,0.0,0.0,0.0,-2.419,-2.419,-2.419,-2.419,-2.3816,-2.3212,-2.3189,-2.2849,-2.2338,-2.231,-2.231,-2.231,-2.2344,-2.2801,-2.341,-2.3444,-2.39,-2.4489,-2.4557,-2.5,-2.5389,-2.4678,-2.4983,-2.522,-2.3765,-2.3376,-2.3224,-2.2496,-2.2327,-2.2344,-2.231,-2.231,-2.2513,-2.3241,-2.2818,-2.275,-2.4218,-2.3274,-2.237,-2.2661,-2.2619,0.0,0.0,-2.3227,-2.3723,-2.2858,-2.4357,-2.5481,-2.5443,-2.6075,-2.5964,-2.4762,-2.5783,-2.6168,-2.5447,-2.6671,-2.7024,-2.6222,-2.6798,-2.6477,-2.5221,-2.5726,-2.6376,-2.7085,-2.7102,-2.7777,-2.9008,-2.977,-3.0125,-3.0192,-3.0886,-3.119,-3.119,-3.119,-3.119,-3.119,-3.119,-3.119,-3.119,-3.119,-3.119,-3.119,-2.5703,0.0,0.0,0.0,0.0,-2.5642,-2.5551,-2.5459,-2.539,-2.537,-2.5322,-2.5303,-2.5303,-2.5303,-2.5303,-2.5303,-2.5303,-2.5303,-2.5303,-2.5303,-2.5214,-2.501,-2.4949,-2.4864,-2.47,-2.4512,-2.441,-2.441,-2.4284,0.0,0.0,0.0,0.0,0.0,0.0,-2.419,-2.419,-2.419,-2.4074,-2.3837,-2.361,-2.3135,-2.2546,-2.2546,-2.2436,-2.231,-2.231,-2.2462,-2.2818,-2.3799,-2.3951,-2.4019,-2.5473,-2.5439,-2.4915,-2.5152,-2.505,-2.4746,-2.4255,-2.4475,-2.456,-2.3342,-2.3393,-2.3613,-2.3139,-2.2649,-2.2513,-2.3241,-2.2818,-2.2462,-2.2953,-2.2649,-2.2642,-2.3731,-2.3202,-2.3129,0.0,-2.409,-2.3538,-2.32,-2.3793,-2.4212,-2.4228,-2.4849,-2.4881,-2.3999,-2.4731,-2.5137,-2.488,-2.5211,-2.5347,-2.5157,-2.5268,-2.4948,-2.4158,-2.4657,-2.506,-2.5298,-2.5651,-2.6515,-2.7761,-2.801,-2.8561,-2.9397,-2.9744,-2.9886,-2.9919,-3.0401,-3.0601,-3.0658,-3.1055,-3.119,-3.119,-3.119,-3.119,-3.119,-2.5703,0.0,0.0,-2.5703,-2.5703,-2.5684,-2.5605,-2.5531,-2.5452,-2.5447,-2.539,-2.5341,-2.5341,-2.5303,-2.5303,-2.5303,-2.5303,-2.5303,-2.5303,-2.5303,-2.5234,-2.5111,-2.5034,-2.4943,-2.4804,-2.4591,-2.4461,-2.4393,-2.4247,-2.419,0.0,0.0,0.0,0.0,0.0,-2.419,-2.419,-2.419,-2.4113,-2.3996,-2.3795,-2.33,-2.2721,-2.2822,-2.2643,-2.231,-2.231,-2.231,-2.253,-2.3985,-2.4171,-2.412,-2.6082,-2.6031,-2.5372,-2.5845,-2.5642,-2.522,-2.4949,-2.5236,-2.5321,-2.4086,-2.4137,-2.432,-2.3562,-2.3038,-2.2835,-2.3291,-2.2818,-2.2462,-2.2987,-2.2868,-2.3088,-2.432,-2.3852,-2.3847,0.0,-2.4438,-2.3598,-2.3309,-2.3285,-2.3266,-2.3266,-2.3864,-2.4088,-2.3625,-2.4014,-2.4373,-2.4567,-2.4301,-2.4283,-2.4612,-2.4484,-2.4142,-2.3595,-2.4116,-2.4389,-2.4389,-2.4752,-2.5461,-2.6444,-2.6706,-2.7273,-2.8073,-2.8418,-2.8551,-2.8625,-2.928,-2.956,-2.9617,-3.0185,-3.0412,-3.048,-3.1004,-3.119,-3.119,-2.5703,-2.5723,-2.5762,-2.5762,-2.5723,-2.5684,-2.5605,-2.5605,-2.5586,-2.5567,-2.5505,-2.5457,-2.5466,-2.5409,-2.5341,-2.5303,-2.5341,-2.536,-2.536,-2.536,-2.536,-2.536,-2.5118,-2.4937,-2.4818,-2.4663,-2.4447,-2.4209,-2.4226,0.0,0.0,0.0,0.0,0.0,-2.419,0.0,-2.419,-2.417,-2.3996,-2.3692,-2.3714,-2.3305,-2.2772,-2.3069,-2.2824,-2.231,-2.231,-2.2327,-2.2581,-2.4002,-2.454,-2.4828,-2.6234,-2.6691,-2.6691,-2.6691,-2.6691,-2.6539,-2.5845,-2.5659,-2.549,-2.4729,-2.4557,-2.4388,-2.3663,-2.3477,-2.346,-2.3494,-2.2919,-2.2835,-2.4222,-2.3917,-2.3697,-2.4408,-2.4608,-2.4608,-2.4574,-2.4361,-2.3959,-2.3234,-2.2933,-2.275,-2.2709,-2.3236,-2.3595,-2.3595,-2.3595,-2.3879,-2.4537,-2.3954,-2.3894,-2.4507,-2.4426,-2.4116,-2.3595,-2.4116,-2.4348,-2.4348,-2.4348,-2.4632,-2.5198,-2.5886,-2.623,-2.6278,-2.6992,-2.7297,-2.7338,-2.7889,-2.8118,-2.8213,-2.8757,-2.9008,-2.9211,-3.0615,-3.114,-3.114,-2.5703,-2.6211,-2.668,-2.668,-2.6133,-2.5684,-2.5684,-2.5625,-2.5838,-2.6464,-2.6435,-2.6365,-2.6372,-2.6304,-2.6005,-2.536,-2.589,-2.6274,-2.6274,-2.6274,-2.6274,-2.6274,-2.5455,-2.4986,-2.4949,-2.5236,-2.5075,-2.4409,-2.4874,0.0,-2.419,0.0,0.0,0.0,0.0,-2.419,-2.417,-2.3937,-2.3774,-2.3714,-2.3976,-2.3671,-2.3069,-2.3165,-2.2824,-2.231,-2.231,-2.2649,-2.3257,-2.4201,-2.4847,-2.5473,-2.6404,-2.6691,-2.6691,-2.6691,-2.6691,-2.6657,-2.6471,-2.642,-2.6234,-2.5507,-2.5321,-2.527,-2.5084,-2.4611,-2.4357,-2.4915,-2.4441,-2.4036,-2.4438,-2.4371,-2.4441,-2.5203,-2.5778,-2.593,-2.5389,-2.5029,-2.4507,-2.3768,-2.3763,-2.3515,-2.2791,-2.3236,-2.3595,-2.3595,-2.3595,-2.3684,-2.3849,-2.3684,-2.3684,-2.3864,-2.3814,-2.3767,-2.3595,-2.3767,-2.3794,-2.3794,-2.3794,-2.4074,-2.4592,-2.4804,-2.51,-2.5486,-2.58,-2.5904,-2.5994,-2.665,-2.7153,-2.7583,-2.8174,-2.898,-2.9871,-3.0243,-3.0378,-3.0463,-2.6836,-2.6914,-2.7129,-2.75,-2.6855,-2.6269,-2.6269,-2.5918,-2.5957,-2.6836,-2.6854,-2.6784,-2.6746,-2.7014,-2.6996,-2.6486,-2.689,-2.7178,-2.7178,-2.7178,-2.6965,-2.6496,-2.5898,-2.5317,-2.4795,-2.504,-2.5076,-2.4893,-2.4873,-2.4814,-2.4704,0.0,0.0,0.0,0.0,-2.419,-2.417,-2.3837,-2.3795,-2.3917,-2.3958,-2.3774,0.0,-2.3277,-2.289,-2.2463,-2.2349,-2.2784,-2.3511,-2.4269,-2.4983,-2.5744,-2.6471,-2.6691,-2.6691,-2.6691,-2.6691,-2.6691,-2.6691,-2.6691,-2.659,-2.6184,-2.6082,-2.5998,-2.5676,-2.5287,-2.5101,-2.5524,-2.5,-2.4709,-2.5321,-2.5186,-2.522,-2.5964,-2.642,-2.6437,-2.571,-2.5247,-2.4613,-2.3489,-2.3872,-2.3755,-2.2635,-2.3102,-2.3644,-2.3933,-2.351,-2.331,-2.3595,-2.3595,-2.3595,-2.3595,-2.3325,-2.3325,-2.3595,-2.3325,-2.3325,-2.3595,-2.3595,-2.3616,-2.3677,-2.3952,-2.4087,-2.4138,-2.4449,-2.4628,-2.4643,-2.5296,-2.5748,-2.6122,-2.6934,-2.7686,-2.838,-2.8901,-2.9533,-3.0226,-2.8457,-2.7851,-2.7578,-2.834,-2.7832,-2.7344,-2.7344,-2.6602,-2.6348,-2.7226,-2.7265,-2.7202,-2.715,-2.7736,-2.8016,-2.7755,-2.7928,-2.8005,-2.7909,-2.8005,-2.7585,-2.6555,-2.6352,-2.5721,-2.4561,-2.4623,-2.491,-2.5444,-2.4835,-2.4854,0.0,0.0,0.0,0.0,0.0,0.0,-2.4113,-2.3876,-2.3917,-2.4113,-2.3876,-2.3735,-2.3671,-2.3369,-2.3021,-2.2669,-2.2453,-2.2863,-2.363,-2.4286,-2.505,-2.5862,-2.6488,-2.6691,-2.6691,-2.6691,-2.6691,-2.6691,-2.6691,-2.6691,-2.6691,-2.6691,-2.6691,-2.6522,-2.5896,-2.5744,-2.5744,-2.5744,-2.522,-2.52,-2.6454,-2.6184,-2.5947,-2.659,-2.6691,-2.6437,-2.571,-2.5364,-2.4663,-2.3123,-2.378,0.0,-2.2697,-2.3172,-2.3754,-2.4261,-2.3379,-2.2996,-2.3445,-2.355,-2.3565,-2.3475,-2.2951,-2.2936,-2.3475,-2.2862,-2.2862,-2.3475,-2.3475,-2.3236,-2.2858,-2.3355,-2.331,-2.2873,-2.337,-2.3595,-2.3638,-2.4116,-2.4348,-2.4511,-2.5577,-2.6063,-2.6264,-2.7395,-2.867,-2.9922,-2.9238,-2.9258,-2.9199,-2.9355,-2.9258,-2.9141,-2.9141,-2.8398,-2.8164,-2.9023,-2.8993,-2.8899,-2.8935,-2.8917,-2.8362,-2.6948,-2.8082,-2.8602,-2.7928,-2.8525,-2.8514,-2.7665,-2.6605,-2.563,-2.4764,-2.5232,-2.5539,-2.5651,-2.6172,-2.6172,0.0,0.0,0.0,0.0,0.0,0.0,-2.3795,-2.4016,-2.3996,-2.3816,-2.4016,-2.3955,-2.3692,-2.3631,-2.3236,-2.2695,-2.2634,-2.3346,-2.4337,-2.4472,-2.5372,-2.6522,-2.6657,-2.6691,-2.6691,-2.6691,-2.6691,-2.6691,-2.6691,-2.6691,-2.6691,-2.6691,-2.6691,-2.6657,-2.6539,-2.6505,-2.6505,-2.6505,-2.6387,-2.6387,-2.664,-2.659,-2.6539,-2.6674,-2.6691,-2.6437,-2.571,-2.605,-2.5848,-2.4349,-2.4891,-2.5029,-2.4195,-2.4185,-2.4102,-2.3736,-2.3533,-2.3266,-2.2862,-2.3325,-2.337,-2.2847,-2.2783,-2.2727,-2.2847,-2.2188,-2.2203,-2.2847,-2.2847,-2.3041,-2.3445,-2.355,-2.3535,-2.3445,-2.355,-2.3595,-2.3595,-2.3724,-2.3991,-2.4511,-2.5577,-2.6376,-2.6974,-2.758,-2.7958,-2.8332,-3.0195,-2.9902,-2.9746,-3.0195,-2.9902,-2.9746,-3.0215,-2.9922,-2.9648,-2.9609,-2.9493,-2.9233,-2.8786,-2.937,-2.9313,-2.8005,-2.9044,-2.9602,-2.9217,-2.9563,-2.9164,-2.7807,-2.7159,-2.6186,-2.4823,-2.508,-2.5649,-2.6472,-2.6337,-2.6578,-2.7146,-2.6393,0.0,0.0,0.0,-2.4736,-2.4541,-2.4119,-2.3955,-2.3976,-2.3955,-2.3955,-2.3937,-2.3774,-2.3392,-2.2947,-2.2772,-2.323,-2.3985,-2.4388,-2.5473,-2.6623,-2.6251,-2.6133,-2.6133,-2.6133,-2.6133,-2.6201,-2.659,-2.6691,-2.6691,-2.6691,-2.6691,-2.6691,-2.6691,-2.6691,-2.6691,-2.6691,-2.6691,-2.6691,-2.6691,-2.6691,-2.6691,-2.6691,-2.6691,-2.6573,-2.6218,-2.6471,-2.6285,-2.5203,-2.5727,-2.5764,-2.4762,-2.5017,-2.4687,-2.3437,-2.2864,-2.2488,-2.2188,-2.3071,-2.331,-2.2739,-2.2724,-2.2724,-2.2724,-2.2024,-2.1859,-2.2173,-2.2173,-2.2143,-2.2128,-2.2817,-2.2936,-2.2652,-2.331,-2.3595,-2.3595,-2.3595,-2.3752,-2.4074,-2.5182,-2.5788,-2.6211,-2.6972,-2.7232,-2.7402,-3.0898,-3.0351,-3.0156,-3.1016,-3.0469,-3.0176,-3.1035,-3.1016,-3.0643,-2.9923,-2.9627,-2.9263,-2.867,-2.9563,-2.989,-2.9159,-2.991,-3.0321,-3.014,-3.0314,-2.9594,-2.7746,-2.7612,-2.6732,-2.4879,-2.4842,-2.5561,-2.7002,-2.6345,-2.6793,-2.8285,-2.7323,-2.6755,-2.6563,-2.576,-2.5311,-2.5089,-2.419,-2.3976,-2.417,-2.3917,-2.3958,-2.417,-2.3917,-2.3588,-2.3259,-2.2923,-2.3135,-2.3647,-2.4113,-2.5135,-2.6116,-2.5541,-2.5473,-2.5609,-2.5609,-2.571,-2.5964,-2.6539,-2.6691,-2.6691,-2.6691,-2.6691,-2.6691,-2.6691,-2.6691,-2.6691,-2.6691,-2.6691,-2.6742,-2.6894,-2.681,-2.6691,-2.6691,-2.6691,-2.664,-2.6488,-2.6471,-2.6184,-2.5456,-2.5744,-2.5546,-2.4381,-2.4909,-2.4652,-2.3133,-2.2415,-2.1949,-2.1695,-2.2787,-2.3176,-2.2739,-2.2547,-2.2574,-2.2724,-2.1739,-2.1335,-2.1485,-2.1485,-2.1291,-2.0961,-2.1994,-2.2188,-2.1754,-2.2757,-2.3266,-2.3415,-2.355,-2.3595,-2.3681,-2.4672,-2.5012,-2.5128,-2.6052,-2.647,-2.6724,-3.0898,-3.082,-3.1055,-3.1934,-3.1367,-3.1074,-3.1953,-3.1406,-3.0836,-3.0617,-2.9897,-2.9627,-3.0213,-2.964,-2.9198,-2.9102,-2.991,-3.0063,-2.9275,-2.9967,-2.9629,-2.7956,-2.7694,-2.6785,-2.5024,-2.4986,-2.5444,-2.6365,-2.6855,-2.7267,-2.7674,-2.7679,-2.6927,-2.5553,-2.5439,-2.4979,-2.43,-2.4207,-2.417,-2.4208,-2.417,-2.417,-2.4208,-2.417,-2.3955,-2.361,-2.3259,-2.3605,-2.4138,-2.3659,-2.4036,-2.4678,-2.4611,-2.505,-2.5609,-2.5609,-2.6065,-2.6607,-2.6674,-2.6691,-2.6691,-2.6691,-2.6691,-2.6691,-2.6691,-2.6691,-2.6691,-2.6691,-2.6691,-2.6894,-2.7553,-2.7165,-2.6691,-2.6691,-2.6691,-2.6471,-2.5812,-2.571,-2.5423,-2.4678,-2.4069,-2.338,-2.2625,-2.2817,-2.293,-2.275,-2.3043,-2.2769,-2.1764,-2.2383,-2.2783,-2.2724,-2.2099,-2.2084,-2.2667,-2.0812,-2.0183,-2.0797,-2.0797,-2.1081,-2.1605,-2.1739,-2.1754,-2.171,-2.1829,-2.2218,-2.2843,-2.337,-2.3595,-2.3681,-2.4225,-2.4471,-2.4552,-2.5128,-2.5652,-2.6101,-3.0898,-3.0898,-3.1016,-3.1367,-3.1133,-3.1016,-3.1367,-3.1059,-3.0754,-3.0649,-3.0344,-3.0008,-2.9759,-2.9352,-2.8909,-2.8409,-2.8698,-2.8756,-2.839,-2.8717,-2.8371,-2.7178,-2.7028,-2.642,-2.5212,-2.5173,-2.5614,-2.6477,-2.6967,-2.7585,-2.8316,-2.7959,-2.72,-2.6098,-2.5623,-2.5219,-2.4887,-2.4392,-2.419,-2.419,-2.419,-2.419,-2.419,-2.419,-2.3996,-2.3671,-2.3323,-2.3263,-2.3267,-2.2886,-2.3658,-2.4675,-2.4041,-2.4036,-2.4374,-2.4797,-2.5135,-2.5558,-2.6454,-2.6691,-2.6691,-2.6691,-2.6691,-2.6691,-2.6691,-2.6691,-2.6691,-2.6691,-2.6691,-2.6793,-2.7097,-2.7266,-2.7232,-2.6776,-2.708,-2.7114,-2.6353,-2.6251,-2.5981,-2.5253,-2.4898,-2.4425,-2.368,-2.4132,-2.4313,-2.3984,-2.3607,-2.3049,-2.2171,-2.2496,-2.2847,-2.3221,-2.2233,-2.2009,-2.2709,-2.1096,-2.0228,-2.0094,-2.0094,-2.0228,-2.0498,-2.0917,-2.1545,-2.2278,-2.2278,-2.2637,-2.3191,-2.2682,-2.2906,-2.3593,-2.3738,-2.4217,-2.491,-2.5144,-2.5709,-2.6367,-3.1289,-3.1465,-3.1719,-3.1973,-3.1601,-3.1365,-3.1568,-3.1083,-3.0681,-3.0579,-3.0568,-3.0217,-2.9267,-2.892,-2.8525,-2.7948,-2.789,-2.789,-2.789,-2.789,-2.7505,-2.664,-2.6601,-2.6197,-2.5322,-2.5303,-2.5581,-2.6135,-2.6603,-2.7233,-2.7966,-2.7662,-2.7064,-2.6227,-2.564,-2.5274,-2.5017,-2.4428,-2.419,-2.419,-2.419,-2.419,-2.419,-2.419,-2.4036,-2.3795,-2.3477,-2.3189,-2.2923,-2.2554,-2.3275,-2.4188,-2.334,-2.3224,-2.3494,-2.4002,-2.4475,-2.5033,-2.6082,-2.6522,-2.6691,-2.6691,-2.6691,-2.6691,-2.6691,-2.6691,-2.6691,-2.6691,-2.6691,-2.6759,-2.6979,-2.7283,-2.7317,-2.6776,-2.7148,-2.7232,-2.6488,-2.637,-2.6099,-2.5355,-2.5084,-2.4661,-2.3917,-2.4509,-2.4805,-2.4415,-2.3838,-2.3232,-2.265,-2.2823,-2.3096,-2.3507,-2.2329,-2.2009,-2.2709,-2.1171,-2.0168,-1.969,-1.969,-1.969,-1.9741,-2.0183,-2.0917,-2.1839,-2.2009,-2.2338,-2.2712,-2.2203,-2.2517,-2.3338,-2.3437,-2.4091,-2.4973,-2.4973,-2.5635,-2.6436,-3.2187,-3.2812,-3.3633,-3.4492,-3.3281,-3.2439,-3.3149,-3.1811,-3.0641,-3.0525,-3.0506,-3.014,-2.9198,-2.839,-2.7909,-2.789,-2.789,-2.789,-2.789,-2.789,-2.7505,-2.664,-2.6601,-2.6197,-2.5322,-2.5303,-2.5203,-2.503,-2.5693,-2.6019,-2.605,-2.6631,-2.6376,-2.5421,-2.5403,-2.4962,-2.4208,-2.419,-2.419,-2.419,-2.419,-2.419,-2.419,-2.419,-2.4208,-2.4151,-2.3816,-2.3692,-2.3588,-2.2923,-2.2712,-2.2678,-2.2405,-2.2818,-2.3393,-2.341,-2.4458,-2.5592,-2.5609,-2.615,-2.6691,-2.6691,-2.6691,-2.6691,-2.6691,-2.6691,-2.6691,-2.6691,-2.6691,-2.6911,-2.7637,-2.7199,-2.6708,-2.6691,-2.6708,-2.6454,-2.5727,-2.5625,-2.5338,-2.4608,-2.3866,-2.3139,-2.2412,-2.2987,-2.3427,-2.3427,-2.3584,-2.3536,-2.3103,-2.3277,-2.3343,-2.331,-2.2249,-2.2009,-2.2709,-2.0692,-1.969,-1.969,-1.969,-1.969,-1.969,-1.969,-1.9705,-1.975,-2.0438,-2.0737,-2.0857,-2.2143,-2.2724,-2.2783,-2.3355,-2.3948,-2.4389,-2.4389,-2.5105,-2.6013,-3.2305,-3.2851,-3.3465,-3.3716,-3.3296,-3.2811,-3.2415,-3.1844,-3.1225,-3.0583,-3.0467,-3.0102,-2.9198,-2.8371,-2.789,-2.789,-2.6813,-2.614,-2.614,-2.614,-2.6005,-2.5726,-2.5707,-2.5572,-2.5303,-2.5303,-2.5203,-2.501,-2.5674,-2.586,-2.5597,-2.5781,-2.5408,-2.4575,-2.4575,-2.4428,-2.419,-2.419,-2.419,-2.419,-2.419,-2.419,-2.419,-2.419,-2.419,-2.4151,-2.3816,-2.3692,-2.3631,-2.3189,-2.2898,-2.2695,-2.2599,-2.2607,-2.275,-2.3241,-2.3731,-2.4323,-2.5338,-2.5778,-2.6065,-2.6573,-2.6691,-2.6691,-2.6691,-2.6691,-2.6691,-2.6691,-2.6691,-2.6928,-2.7637,-2.7621,-2.7469,-2.7469,-2.7469,-2.7199,-2.6454,-2.593,-2.5338,-2.4608,-2.3833,-2.3105,-2.2378,-2.297,-2.3596,-2.4103,-2.5142,-2.5096,-2.3568,-2.297,-2.3057,-2.3943,-2.2037,-2.156,-2.2709,-2.0692,-1.969,-1.969,-1.969,-1.969,-1.9741,-2.0168,-2.0378,-2.0393,-2.0617,-2.0976,-2.138,-2.135,-2.1605,-2.2064,-2.255,-2.3344,-2.4274,-2.4214,-2.5139,-2.6436,-3.3242,-3.3785,-3.4321,-3.4276,-3.3717,-3.3063,-3.2443,-3.1765,-3.1109,-3.0544,-3.0417,-3.0198,-2.964,-2.8852,-2.8102,-2.7467,-2.612,-2.5303,-2.5303,-2.5303,-2.5303,-2.5303,-2.5303,-2.5303,-2.5303,-2.5303,-2.5182,-2.4911,-2.5192,-2.5207,-2.4962,-2.4962,-2.4667,-2.419,-2.419,-2.419,-2.419,-2.419,-2.419,-2.419,-2.419,-2.419,-2.419,-2.419,-2.419,-2.417,-2.3958,-2.3816,-2.3671,-2.3459,-2.3069,-2.2695,-2.2695,-2.2527,-2.2395,-2.2852,-2.3173,-2.3596,-2.4526,-2.5186,-2.571,-2.6167,-2.6488,-2.6691,-2.6691,-2.6691,-2.6691,-2.6691,-2.6691,-2.6843,-2.73,-2.7402,-2.7402,-2.7402,-2.7402,-2.7131,-2.6387,-2.5896,-2.5338,-2.4608,-2.3833,-2.3224,-2.2767,-2.2885,-2.3173,-2.363,-2.478,-2.4906,-2.3649,-2.391,-2.4094,-2.4081,-2.2308,-2.1614,-2.2167,-2.0535,-1.969,-1.969,-1.969,-1.969,-1.969,-2.0124,-2.0318,-2.0318,-2.0318,-2.0557,-2.0932,-2.0782,-2.1061,-2.163,-2.2409,-2.3412,-2.4418,-2.4398,-2.5188,-2.6218,-3.4704,-3.5337,-3.5894,-3.5886,-3.4501,-3.3308,-3.3108,-3.1711,-3.0602,-3.0417,-3.0398,-3.0398,-3.0398,-2.9621,-2.8467,-2.6909,-2.5928,-2.536,-2.5303,-2.5303,-2.5303,-2.5303,-2.5303,-2.5303,-2.5303,-2.5303,-2.5138,-2.4804,-2.4393,-2.419,-2.419,-2.419,-2.419,-2.419,-2.419,-2.419,-2.419,-2.419,-2.419,-2.419,-2.419,-2.419,-2.419,-2.419,-2.419,-2.419,-2.419,-2.3996,-2.3735,-2.3735,-2.3282,-2.2772,-2.2746,-2.2537,-2.2321,-2.231,-2.2801,-2.3325,-2.3376,-2.4408,-2.5473,-2.5575,-2.615,-2.6691,-2.6691,-2.6691,-2.6691,-2.6691,-2.6691,-2.6708,-2.6759,-2.6725,-2.6708,-2.6759,-2.6725,-2.6454,-2.5778,-2.5642,-2.5355,-2.4675,-2.3917,-2.346,-2.3393,-2.2784,-2.2395,-2.2395,-2.3105,-2.3545,-2.3545,-2.5846,-2.6079,-2.3786,-2.2794,-2.1972,-2.1301,-2.0243,-1.969,-1.969,-1.969,-1.969,-1.969,-1.969,-1.969,-1.969,-1.969,-1.969,-1.9735,-2.0423,-2.0894,-2.1327,-2.2754,-2.3851,-2.4689,-2.4691,-2.5063,-2.549,-3.4747,-3.5224,-3.5728,-3.5682,-3.5315,-3.4564,-3.316,-3.2602,-3.1872,-3.0571,-3.0398,-3.0398,-3.0398,-2.9621,-2.8929,-2.8544,-2.7159,-2.6005,-2.5341,-2.5303,-2.5303,-2.5303,-2.5303,-2.5303,-2.5303,-2.5303,-2.5138,-2.4804,-2.4393,-2.419,-2.419,-2.419,-2.419,-2.419,-2.419,-2.419,-2.419,-2.419,-2.419,-2.419,-2.419,-2.419,-2.419,-2.419,-2.419,-2.419,-2.419,-2.4151,-2.4074,-2.4074,-2.3816,-2.3414,-2.3165,-2.2848,-2.2563,-2.236,-2.2429,-2.2682,-2.3241,-2.3646,-2.4188,-2.5321,-2.615,-2.6691,-2.6691,-2.6691,-2.6691,-2.6691,-2.6691,-2.686,-2.7452,-2.708,-2.6877,-2.7469,-2.7063,-2.664,-2.6454,-2.5947,-2.5541,-2.5372,-2.4678,-2.4002,-2.3444,-2.3241,-2.3139,-2.3139,-2.434,-2.5084,-2.5084,-2.6708,-2.6415,-2.3786,-2.2318,-2.1492,-2.1286,-2.0243,-1.969,-1.969,-1.969,-1.969,-1.969,-1.969,-1.969,-1.969,-1.969,-1.969,-1.9735,-2.0423,-2.0467,-2.0228,-2.1757,-2.2828,-2.3578,-2.3697,-2.4517,-2.549,-3.5282,-3.5434,-3.5637,-3.5611,-3.5257,-3.4622,-3.3641,-3.2833,-3.2025,-3.1121,-3.066,-3.0398,-3.0398,-2.9987,-2.9525,-2.9121,-2.7928,-2.6813,-2.5947,-2.589,-2.5717,-2.5322,-2.5303,-2.5303,-2.5303,-2.5303,-2.5138,-2.4804,-2.4393,-2.419,-2.419,-2.419,-2.419,-2.419,-2.419,-2.419,-2.419,-2.419,-2.419,-2.419,-2.419,-2.419,-2.419,-2.419,-2.419,-2.419,-2.419,-2.419,-2.419,-2.419,-2.3976,-2.3649,-2.3323,-2.2972,-2.266,-2.2388,-2.231,-2.2395,-2.2801,-2.3139,-2.3748,-2.5236,-2.615,-2.6691,-2.6691,-2.6691,-2.6691,-2.6691,-2.6691,-2.6826,-2.7232,-2.6962,-2.6826,-2.7232,-2.6962,-2.6573,-2.6234,-2.5862,-2.5609,-2.5609,-2.4949,-2.4458,-2.4408,-2.3799,-2.3393,-2.3393,-2.4441,-2.5101,-2.5101,-2.6184,-2.5983,-2.4263,-2.2897,-2.1898,-2.1301,-2.0243,-1.969,-1.969,-1.969,-1.969,-1.969,-1.969,-1.969,-1.969,-1.969,-1.969,-1.9741,-2.0282,-2.0421,-2.0441,-2.1792,-2.2704,-2.3324,-2.3748,-2.4408,-2.5033,-3.5853,-3.5718,-3.5584,-3.5584,-3.493,-3.4353,-3.4218,-3.2872,-3.1833,-3.1718,-3.0948,-3.0398,-3.0398,-3.0398,-3.0102,-2.9352,-2.8544,-2.7659,-2.6659,-2.6486,-2.6082,-2.5322,-2.5303,-2.5303,-2.5303,-2.5264,-2.5115,-2.4804,-2.4445,-2.4228,-2.419,-2.419,-2.419,-2.419,-2.419,-2.419,-2.419,-2.419,-2.419,-2.419,-2.419,-2.419,-2.419,-2.419,-2.419,-2.419,-2.419,-2.419,-2.419,-2.419,-2.4016,-2.3714,-2.3392,-2.3045,-2.2738,-2.2453,-2.2321,-2.231,-2.231,-2.2919,-2.3866,-2.5118,-2.6065,-2.6691,-2.6691,-2.6691,-2.6691,-2.6691,-2.6691,-2.6691,-2.6691,-2.6691,-2.6725,-2.6843,-2.6776,-2.6522,-2.6015,-2.5845,-2.5778,-2.5778,-2.5203,-2.4983,-2.5389,-2.4289,-2.3511,-2.341,-2.4069,-2.4557,-2.4675,-2.5372,-2.5514,-2.4987,-2.3777,-2.2505,-2.1146,-2.0197,-1.969,-1.969,-1.969,-1.9735,-1.9839,-1.9735,-1.975,-1.9839,-1.9735,-1.9711,-1.9818,-2.0158,-2.0583,-2.1119,-2.2115,-2.2865,-2.3371,-2.4086,-2.4421,-2.4506,-3.5661,-3.5584,-3.5526,-3.5526,-3.5411,-3.5045,-3.4314,-3.3353,-3.2468,-3.1795,-3.0948,-3.0398,-3.0398,-3.0398,-3.034,-3.0217,-2.941,-2.8255,-2.6697,-2.5909,-2.5437,-2.5303,-2.5303,-2.5303,-2.5303,-2.5122,-2.4968,-2.4804,-2.4578,-2.4357,-2.419,-2.419,-2.419,-2.419,-2.419,-2.419,-2.419,-2.419,-2.419,-2.419,-2.419,-2.419,-2.419,-2.419,-2.419,-2.419,-2.419,-2.419,-2.419,-2.419,-2.417,-2.4074,-2.3714,-2.3392,-2.3069,-2.2738,-2.249,-2.231,-2.231,-2.3291,-2.4388,-2.4625,-2.5676,-2.6691,-2.6691,-2.6691,-2.6691,-2.6691,-2.6691,-2.6691,-2.6691,-2.6691,-2.6894,-2.7554,-2.7114,-2.6877,-2.7402,-2.6928,-2.6522,-2.6522,-2.642,-2.5896,-2.4794,-2.4441,-2.4052,-2.3444,-2.4069,-2.4763,-2.5406,-2.6133,-2.6302,-2.5832,-2.3835,-2.2021,-2.0469,-1.9955,-1.969,-1.969,-1.969,-1.9989,-2.0543,-1.9944,-2.0004,-2.0513,-1.9944,-1.9909,-2.0212,-2.028,-2.0583,-2.1039,-2.1575,-2.2217,-2.2872,-2.3375,-2.3951,-2.4506,-3.4891,-3.4468,-3.4257,-3.4718,-3.441,-3.4276,-3.4814,-3.3391,-3.2275,-3.2333,-3.1218,-3.0398,-3.0398,-3.0398,-3.0398,-3.0398,-2.9217,-2.8121,-2.7351,-2.6486,-2.5793,-2.5322,-2.5303,-2.5303,-2.5303,-2.5099,-2.4974,-2.4917,-2.4741,-2.4561,-2.4357,-2.4357,-2.4303,-2.419,-2.419,-2.419,-2.419,-2.419,-2.419,-2.419,-2.419,-2.419,-2.419,-2.419,-2.419,-2.419,-2.419,-2.419,-2.419,-2.419,-2.419,-2.4151,-2.3816,-2.3459,-2.3141,-2.2797,-2.25,-2.231,-2.231,-2.3088,-2.3985,-2.4421,-2.5304,-2.6319,-2.7114,-2.6996,-2.681,-2.7215,-2.6979,-2.6691,-2.6691,-2.6691,-2.681,-2.7165,-2.6911,-2.6826,-2.7165,-2.6911,-2.6691,-2.6691,-2.6691,-2.642,-2.5744,-2.5321,-2.4949,-2.4611,-2.4898,-2.5236,-2.5592,-2.6302,-2.659,-2.6367,-2.4113,-2.2271,-2.0973,-2.0323,-1.9909,-1.969,-1.969,-1.9854,-2.0154,-1.9824,-1.9854,-2.0139,-2.0081,-2.0124,-2.0333,-2.1006,-2.1289,-2.1368,-2.1943,-2.2546,-2.3154,-2.3772,-2.4458,-2.5084,-3.3968,-3.3391,-3.3103,-3.3776,-3.3333,-3.3353,-3.4699,-3.3083,-3.1929,-3.2545,-3.1333,-3.0398,-3.0398,-3.0398,-3.0321,-3.0121,-2.8756,-2.7813,-2.7601,-2.6774,-2.6005,-2.5322,-2.5303,-2.5303,-2.5303,-2.5152,-2.5046,-2.501,-2.4891,-2.4727,-2.4495,-2.4495,-2.4393,-2.419,-2.419,-2.419,-2.419,-2.419,-2.419,-2.419,-2.419,-2.419,-2.419,-2.419,-2.419,-2.419,-2.419,-2.419,-2.419,-2.419,-2.419,-2.4151,-2.3816,-2.3459,-2.3141,-2.2797,-2.25,-2.231,-2.231,-2.2835,-2.3579,-2.4337,-2.505,-2.5947,-2.7266,-2.7114,-2.686,-2.7435,-2.7097,-2.6691,-2.6691,-2.6691,-2.6759,-2.6928,-2.681,-2.6826,-2.7165,-2.6928,-2.6759,-2.6945,-2.6793,-2.6623,-2.6454,-2.593,-2.5609,-2.5609,-2.5609,-2.5676,-2.5845,-2.6387,-2.6691,-2.6691,-2.4475,-2.2817,-2.1805,-2.091,-2.0261,-1.9839,-1.9945,-1.9965,-1.9914,-1.9985,-2.0036,-2.0101,-2.0357,-2.0679,-2.1053,-2.1999,-2.2423,-2.2579,-2.3144,-2.3465,-2.375,-2.4675,-2.5274,-2.5606,-3.3006,-3.2949,-3.291,-3.2987,-3.2949,-3.2949,-3.3064,-3.2295,-3.1718,-3.1775,-3.0987,-3.0398,-3.0398,-3.0398,-3.0083,-2.9275,-2.839,-2.7563,-2.6755,-2.589,-2.536,-2.5303,-2.5303,-2.5303,-2.5303,-2.5293,-2.5192,-2.501,-2.4998,-2.4818,-2.4495,-2.4495,-2.4393,-2.419,-2.419,-2.419,-2.419,-2.419,-2.419,-2.419,-2.419,-2.419,-2.419,-2.419,-2.419,-2.419,-2.419,-2.419,-2.419,-2.419,-2.419,-2.4151,-2.3816,-2.3459,-2.3141,-2.2797,-2.25,-2.231,-2.231,-2.2835,-2.3579,-2.4337,-2.505,-2.5812,-2.659,-2.6725,-2.6708,-2.6759,-2.6725,-2.6691,-2.6691,-2.6691,-2.6911,-2.7621,-2.7148,-2.7182,-2.8619,-2.7588,-2.6945,-2.762,-2.7114,-2.642,-2.5761,-2.5642,-2.5609,-2.5609,-2.5609,-2.5896,-2.6573,-2.6657,-2.6691,-2.6691,-2.483,-2.3457,-2.2619,-2.1504,-2.0731,-2.0246,-2.0698,-2.0824,-2.0617,-2.0811,-2.1012,-2.1193,-2.1,-2.174,-2.3076,-2.3163,-2.4043,-2.5305,-2.5356,-2.4941,-2.4501,-2.6056,-2.6162,-2.5676,-3.216,-3.1718,-3.1525,-3.2064,-3.1256,-3.091,-3.1987,-3.0564,-2.9525,-3.0025,-2.9794,-2.939,-2.8909,-2.9294,-2.9256,-2.8429,-2.7582,-2.6948,-2.6621,-2.5793,-2.5303,-2.5303,-2.5303,-2.5303,-2.5303,-2.5303,-2.5264,-2.5192,-2.5192,-2.5053,-2.4804,-2.4727,-2.4575,-2.4375,-2.4266,-2.419,-2.419,-2.419,-2.419,-2.419,-2.419,-2.419,-2.419,-2.419,-2.419,-2.419,-2.419,-2.419,-2.419,-2.419,-2.419,-2.417,-2.4054,-2.3649,-2.3093,-2.2607,-2.2388,-2.231,-2.231,-2.2835,-2.3579,-2.4337,-2.505,-2.5913,-2.7114,-2.7029,-2.6826,-2.73,-2.7012,-2.6691,-2.6691,-2.6691,-2.6793,-2.708,-2.7283,-2.7604,-2.818,-2.7757,-2.7503,-2.7755,-2.7165,-2.659,-2.6302,-2.6285,-2.6285,-2.6285,-2.6285,-2.6404,-2.6674,-2.6691,-2.6488,-2.6031,-2.5344,-2.4696,-2.4116,-2.3244,-2.2312,-2.1415,-2.1598,-2.1385,-2.0905,-2.0956,-2.1037,-2.1144,-2.1526,-2.23,-2.3363,-2.4007,-2.4825,-2.561,-2.5828,-2.5897,-2.5959,-2.6561,-2.688,-2.6985,-3.0564,-3.0025,-2.9794,-3.041,-2.9525,-2.9121,-3.0314,-2.9025,-2.8102,-2.864,-2.8717,-2.8506,-2.7948,-2.839,-2.839,-2.7563,-2.6948,-2.6486,-2.6217,-2.563,-2.5303,-2.5303,-2.5303,-2.5303,-2.5303,-2.5303,-2.5303,-2.5303,-2.5303,-2.5203,-2.4998,-2.4869,-2.4685,-2.4495,-2.4284,-2.419,-2.419,-2.419,-2.419,-2.419,-2.419,-2.419,-2.419,-2.419,-2.419,-2.419,-2.419,-2.419,-2.419,-2.419,-2.419,-2.417,-2.4074,-2.3588,-2.2947,-2.2554,-2.2377,-2.231,-2.231,-2.2835,-2.3579,-2.4337,-2.4864,-2.5642,-2.7131,-2.7063,-2.6843,-2.7351,-2.7046,-2.6691,-2.6691,-2.6691,-2.6691,-2.6691,-2.7131,-2.7638,-2.8112,-2.7977,-2.7874,-2.8163,-2.752,-2.6945,-2.6708,-2.6691,-2.6691,-2.6691,-2.6691,-2.6691,-2.6691,-2.6471,-2.6116,-2.5625,-2.5609,-2.5462,-2.5179,-2.4463,-2.3605,-2.267,-2.2541,-2.2118,-2.1343,-2.1389,-2.1323,-2.1244,-2.1955,-2.2809,-2.3715,-2.4551,-2.5288,-2.5943,-2.6168,-2.6441,-2.6767,-2.7018,-2.743,-2.7816,-2.8063,-2.789,-2.789,-2.789,-2.789,-2.789,-2.789,-2.7871,-2.7871,-2.7871,-2.789,-2.789,-2.7871,-2.789,-2.7544,-2.6678,-2.6582,-2.6217,-2.536,-2.5303,-2.5303,-2.5303,-2.5303,-2.5303,-2.5303,-2.5303,-2.5303,-2.5303,-2.5303,-2.5203,-2.501,-2.485,-2.47,-2.4495,-2.4284,-2.419,-2.419,-2.419,-2.419,-2.419,-2.419,-2.419,-2.419,-2.419,-2.419,-2.419,-2.419,-2.419,-2.419,-2.419,-2.419,-2.4151,-2.3816,-2.3236,-2.2695,-2.2695,-2.25,-2.231,-2.231,-2.2835,-2.3562,-2.432,-2.4506,-2.4896,-2.6353,-2.6691,-2.6691,-2.6691,-2.6691,-2.6691,-2.6691,-2.6691,-2.6691,-2.6691,-2.6691,-2.7232,-2.8791,-2.8298,-2.8112,-2.889,-2.8281,-2.752,-2.6776,-2.6691,-2.6691,-2.6691,-2.6691,-2.6691,-2.6691,-2.5998,-2.5609,-2.5592,-2.5609,-2.5609,-2.5592,-2.4864,-2.4305,-2.3902,-2.3566,-2.295,-2.2132,-2.2249,-2.2061,-2.1642,-2.2405,-2.336,-2.4424,-2.4769,-2.5568,-2.6612,-2.6612,-2.6612,-2.6704,-2.7493,-2.7787,-2.7852,-2.8063,-2.789,-2.789,-2.789,-2.739,-2.6986,-2.6986,-2.6467,-2.6082,-2.6082,-2.6621,-2.6755,-2.614,-2.6621,-2.664,-2.5774,-2.5687,-2.5572,-2.5322,-2.5303,-2.5303,-2.5303,-2.5303,-2.5303,-2.5303,-2.5303,-2.5303,-2.5303,-2.5303,-2.5264,-2.5203,-2.4923,-2.4775,-2.47,-2.4339,-2.419,-2.419,-2.419,-2.419,-2.419,-2.419,-2.419,-2.419,-2.419,-2.419,-2.419,-2.419,-2.419,-2.419,-2.419,-2.419,-2.4151,-2.3816,-2.3392,-2.2996,-2.2772,-2.25,-2.231,-2.231,-2.2462,-2.2818,-2.3528,-2.4509,-2.5389,-2.5828,-2.6336,-2.6691,-2.6691,-2.6691,-2.6691,-2.6691,-2.6691,-2.6691,-2.6691,-2.7131,-2.7638,-2.8095,-2.7941,-2.7909,-2.8146,-2.7486,-2.6945,-2.6708,-2.6691,-2.6488,-2.5981,-2.593,-2.593,-2.593,-2.5727,-2.5135,-2.4086,-2.5067,-2.5227,-2.4419,-2.5482,-2.5858,-2.5501,-2.5416,-2.5086,-2.4531,-2.3999,-2.3693,-2.3545,-2.346,-2.3907,-2.4792,-2.5117,-2.5779,-2.6612,-2.6612,-2.6612,-2.6704,-2.7493,-2.7787,-2.7915,-2.7101,-2.6871,-2.6871,-2.6871,-2.6447,-2.6101,-2.6101,-2.563,-2.5303,-2.5303,-2.5774,-2.589,-2.536,-2.5774,-2.587,-2.5341,-2.5303,-2.5303,-2.5303,-2.5303,-2.5303,-2.5303,-2.5303,-2.5303,-2.5303,-2.5303,-2.5303,-2.5303,-2.5303,-2.5303,-2.5284,-2.4968,-2.4804,-2.479,-2.4375,-2.419,-2.419,-2.419,-2.419,-2.419,-2.419,-2.419,-2.419,-2.419,-2.419,-2.419,-2.419,-2.419,-2.419,-2.419,-2.419,-2.4151,-2.3816,-2.3459,-2.3141,-2.2797,-2.25,-2.231,-2.231,-2.231,-2.2412,-2.2852,-2.3849,-2.4881,-2.5473,-2.5947,-2.6353,-2.664,-2.6471,-2.6353,-2.664,-2.6454,-2.6353,-2.664,-2.708,-2.7486,-2.7739,-2.7789,-2.7789,-2.7789,-2.7165,-2.659,-2.6285,-2.5998,-2.5625,-2.5203,-2.5152,-2.5152,-2.5152,-2.4989,-2.4518,-2.3642,-2.4883,-2.523,-2.4531,-2.5974,-2.6597,-2.6382,-2.6079,-2.5797,-2.5524,-2.4736,-2.4222,-2.3927,-2.3782,-2.3981,-2.4436,-2.4787,-2.5199,-2.5658,-2.5658,-2.5841,-2.6227,-2.7034,-2.753,-2.7915,-2.5774,-2.5418,-2.538,-2.5303,-2.5303,-2.5303,-2.5303,-2.5303,-2.5303,-2.5303,-2.5303,-2.5303,-2.5303,-2.5303,-2.5303,-2.5303,-2.5303,-2.5303,-2.5303,-2.5303,-2.5303,-2.5303,-2.5303,-2.5303,-2.5303,-2.5303,-2.5303,-2.5303,-2.5303,-2.5303,-2.5284,-2.4962,-2.4818,-2.479,-2.441,-2.4209,-2.419,-2.419,-2.419,-2.419,-2.419,-2.419,-2.419,-2.419,-2.419,-2.419,-2.419,-2.419,-2.419,-2.419,-2.419,-2.4151,-2.3837,-2.3482,-2.3141,-2.2848,-2.2527,-2.231,-2.231,-2.231,-2.2327,-2.2395,-2.2852,-2.3663,-2.5084,-2.5456,-2.5693,-2.6353,-2.5964,-2.5727,-2.6471,-2.6048,-2.5845,-2.6573,-2.6691,-2.6928,-2.7621,-2.7688,-2.7689,-2.7603,-2.7012,-2.6302,-2.5607,-2.4876,-2.4469,-2.4506,-2.4537,-2.4567,-2.4567,-2.4293,-2.4091,-2.3952,-2.5033,-2.5569,-2.5453,-2.6304,-2.6782,-2.6835,-2.603,-2.5666,-2.5681,-2.496,-2.4177,-2.3412,-2.3646,-2.3735,-2.3774,-2.4074,-2.419,-2.419,-2.419,-2.4649,-2.5403,-2.6282,-2.7053,-2.7805,-2.6659,-2.6332,-2.6101,-2.5418,-2.5303,-2.5303,-2.5303,-2.5303,-2.5303,-2.5303,-2.5303,-2.5303,-2.5303,-2.5303,-2.5303,-2.5303,-2.5303,-2.5303,-2.5303,-2.5303,-2.5303,-2.5303,-2.5303,-2.5303,-2.5303,-2.5303,-2.5303,-2.5303,-2.5303,-2.5303,-2.5284,-2.5065,-2.4904,-2.479,-2.4526,-2.4339,-2.419,-2.419,-2.419,-2.419,-2.419,-2.419,-2.419,-2.419,-2.419,-2.419,-2.419,-2.419,-2.419,-2.419,-2.419,-2.419,-2.4113,-2.3692,-2.3189,-2.3117,-2.2721,-2.231,-2.231,-2.231,-2.2446,-2.3021,-2.2852,-2.2784,-2.3663,-2.4323,-2.4763,-2.4946,-2.4862,-2.4949,-2.571,-2.571,-2.5845,-2.6573,-2.6691,-2.6759,-2.6911,-2.6945,-2.6725,-2.6167,-2.5947,-2.5637,-2.5188,-2.4459,-2.4173,-2.4472,-2.479,-2.4977,-2.4977,-2.5732,-2.5606,-2.4327,-2.5729,-2.6053,-2.5044,-2.6404,-2.741,-2.8021,-2.7212,-2.7001,-2.7278,-2.6494,-2.5673,-2.4889,-2.433,-2.4094,-2.4094,-2.417,-2.419,-2.419,-2.419,-2.43,-2.463,-2.608,-2.6722,-2.7093,-2.6928,-2.6601,-2.6332,-2.5437,-2.5303,-2.5303,-2.5303,-2.5303,-2.5303,-2.5303,-2.5303,-2.5303,-2.5303,-2.5303,-2.5303,-2.5303,-2.5303,-2.5303,-2.5303,-2.5303,-2.5303,-2.5303,-2.5303,-2.5303,-2.5303,-2.5303,-2.5303,-2.5303,-2.5303,-2.5303,-2.5303,-2.5099,-2.4943,-2.479,-2.4591,-2.4393,-2.419,-2.419,-2.419,-2.419,-2.419,-2.419,-2.419,-2.419,-2.419,-2.419,-2.419,-2.419,-2.419,-2.419,-2.419,-2.417,-2.4016,-2.3714,-2.3369,-2.3069,-2.2755,-2.2463,-2.2321,-2.231,-2.2395,-2.2784,-2.2598,-2.2598,-2.3663,-2.3934,-2.4154,-2.4881,-2.4729,-2.4814,-2.5913,-2.5845,-2.5845,-2.6573,-2.6691,-2.6691,-2.6691,-2.6387,-2.6031,-2.5659,-2.4983,-2.439,-2.394,-2.3694,-2.3598,-2.363,-2.4336,-2.4725,-2.458,-2.5782,-2.6072,-2.5231,-2.6656,-2.705,-2.6285,-2.7167,-2.799,-2.8664,-2.7482,-2.7027,-2.72,-2.6392,-2.5585,-2.4815,-2.4487,-2.4339,-2.4339,-2.4462,-2.4495,-2.4495,-2.4495,-2.4495,-2.4683,-2.6189,-2.7177,-2.7904,-2.6909,-2.6601,-2.6332,-2.5437,-2.5303,-2.5303,-2.5303,-2.5303,-2.5303,-2.5303,-2.5303,-2.5303,-2.5303,-2.5303,-2.5303,-2.5303,-2.5303,-2.5303,-2.5303,-2.5303,-2.5303,-2.5303,-2.5303,-2.5303,-2.5303,-2.5303,-2.5303,-2.5303,-2.5303,-2.5303,-2.5303,-2.5099,-2.4943,-2.479,-2.4591,-2.4393,-2.419,-2.419,-2.419,-2.419,-2.419,-2.419,-2.419,-2.419,-2.419,-2.419,-2.419,-2.419,-2.419,-2.419,-2.419,-2.4151,-2.3876,-2.3753,-2.3566,-2.2972,-2.2746,-2.2634,-2.236,-2.231,-2.2344,-2.2462,-2.2395,-2.2699,-2.4154,-2.3917,-2.3748,-2.4983,-2.4831,-2.4898,-2.6251,-2.6015,-2.5845,-2.6573,-2.6691,-2.6691,-2.6691,-2.6065,-2.5558,-2.5439,-2.4207,-2.3213,-2.2824,-2.3093,-2.3194,-2.3014,-2.4035,-2.4665,-2.4568,-2.587,-2.6558,-2.6463,-2.7668,-2.8179,-2.7901,-2.8238,-2.8608,-2.9048,-2.7558,-2.6765,-2.6576,-2.5768,-2.4942,-2.4209,-2.441,-2.4495,-2.4512,-2.4716,-2.4804,-2.4804,-2.4804,-2.4879,-2.519,-2.6597,-2.7908,-2.904,-2.6794,-2.6601,-2.6332,-2.5437,-2.5303,-2.5303,-2.5303,-2.5303,-2.5303,-2.5303,-2.5303,-2.5303,-2.5303,-2.5303,-2.5303,-2.5303,-2.5303,-2.5303,-2.5303,-2.5303,-2.5303,-2.5303,-2.5303,-2.5303,-2.5303,-2.5303,-2.5303,-2.5303,-2.5303,-2.5303,-2.5303,-2.5099,-2.4943,-2.479,-2.4591,-2.4393,-2.419,-2.419,-2.419,-2.419,-2.419,-2.419,-2.419,-2.419,-2.419,-2.419,-2.419,-2.419,-2.419,-2.419,-2.419,-2.419,-2.4151,-2.3937,-2.3628,-2.3236,-2.2923,-2.2634,-2.236,-2.231,-2.2462,-2.3088,-2.2784,-2.2699,-2.4154,-2.3917,-2.346,-2.3663,-2.412,-2.4746,-2.5592,-2.5676,-2.5845,-2.6573,-2.6691,-2.6691,-2.6691,-2.6065,-2.5372,-2.4712,-2.3804,-2.3193,-2.3135,-2.3455,-2.3768,-2.4138,-2.5237,-2.6159,-2.6819,-2.796,-2.8386,-2.7843,-2.8739,-2.897,-2.8401,-2.9115,-2.9439,-2.9332,-2.8367,-2.7449,-2.6576,-2.5768,-2.4942,-2.4209,-2.441,-2.4495,-2.4512,-2.4716,-2.4804,-2.4804,-2.4804,-2.5238,-2.6001,-2.7419,-2.8392,-2.904,-2.6774,-2.6601,-2.6332,-2.5437,-2.5303,-2.5303,-2.5303,-2.5303,-2.5303,-2.5303,-2.5303,-2.5303,-2.5303,-2.5303,-2.5303,-2.5303,-2.5303,-2.5303,-2.5303,-2.5303,-2.5303,-2.5303,-2.5303,-2.5303,-2.5303,-2.5303,-2.5303,-2.5303,-2.5303,-2.5303,-2.5303,-2.5099,-2.4943,-2.479,-2.4591,-2.4393,-2.419,-2.419,-2.419,-2.419,-2.419,-2.419,-2.419,-2.419,-2.419,-2.419,-2.419,-2.419,-2.419,-2.419,-2.419,-2.419,-2.419,-2.4094,-2.3876,-2.3346,-2.3093,-2.289,-2.2415,-2.231,-2.2496,-2.3224,-2.3156,-2.319,-2.4269,-2.456,-2.4628,-2.4628,-2.4898,-2.5338,-2.6082,-2.6218,-2.6319,-2.664,-2.6691,-2.6691,-2.6691,-2.571,-2.4618,-2.3596,-2.3317,-2.3189,-2.3189,-2.3482,-2.3889,-2.4353,-2.5464,-2.6447,-2.7266,-2.8383,-2.8879,-2.8606,-2.923,-2.9383,-2.9008,-2.9576,-2.9713,-2.9394,-2.8518,-2.7582,-2.6576,-2.5768,-2.5021,-2.4375,-2.4575,-2.4712,-2.479,-2.5,-2.508,-2.508,-2.508,-2.5462,-2.6117,-2.7204,-2.792,-2.8415]}]]